<?xml version="1.0" encoding="UTF-8" standalone="no" ?>
<gpx xmlns="http://www.topografix.com/GPX/1/1" xmlns:xsi="http://www.w3.org/2001/XMLSchema-instance" xsi:schemaLocation="http://www.topografix.com/GPX/1/1 http://www.topografix.com/GPX/1/1/gpx.xsd" version="1.1" creator="VisuGPX - https://www.visugpx.com">
  <metadata>
    <name>2016.08.07</name>
    <desc><![CDATA[Ouistreham, Arromanches les bains]]></desc>
  </metadata>
  <trk>
    <name><![CDATA[2016.08.16 Ouistreham]]></name>
    <trkseg>
      <trkpt lat="49.28593" lon="-0.27128">
        <ele>16</ele>
        <time>2016-08-07T09:53:04Z</time>
      </trkpt>
      <trkpt lat="49.28592" lon="-0.27128">
        <ele>12.63</ele>
        <time>2016-08-07T09:53:34Z</time>
      </trkpt>
      <trkpt lat="49.28593" lon="-0.27124">
        <ele>-0.34</ele>
        <time>2016-08-07T11:28:41Z</time>
      </trkpt>
      <trkpt lat="49.28591" lon="-0.27133">
        <ele>2.54</ele>
        <time>2016-08-07T11:28:58Z</time>
      </trkpt>
      <trkpt lat="49.28593" lon="-0.27129">
        <ele>7.83</ele>
        <time>2016-08-07T11:29:16Z</time>
      </trkpt>
      <trkpt lat="49.28592" lon="-0.27134">
        <ele>9.27</ele>
        <time>2016-08-07T11:29:27Z</time>
      </trkpt>
      <trkpt lat="49.2859" lon="-0.27144">
        <ele>7.83</ele>
        <time>2016-08-07T11:29:36Z</time>
      </trkpt>
      <trkpt lat="49.28582" lon="-0.27153">
        <ele>6.87</ele>
        <time>2016-08-07T11:29:41Z</time>
      </trkpt>
      <trkpt lat="49.28572" lon="-0.27157">
        <ele>6.87</ele>
        <time>2016-08-07T11:29:45Z</time>
      </trkpt>
      <trkpt lat="49.28565" lon="-0.2714">
        <ele>5.42</ele>
        <time>2016-08-07T11:29:49Z</time>
      </trkpt>
      <trkpt lat="49.28542" lon="-0.27068">
        <ele>4.46</ele>
        <time>2016-08-07T11:30:04Z</time>
      </trkpt>
      <trkpt lat="49.2854" lon="-0.27015">
        <ele>4.94</ele>
        <time>2016-08-07T11:30:14Z</time>
      </trkpt>
      <trkpt lat="49.28538" lon="-0.27001">
        <ele>4.94</ele>
        <time>2016-08-07T11:30:19Z</time>
      </trkpt>
      <trkpt lat="49.28528" lon="-0.26981">
        <ele>5.91</ele>
        <time>2016-08-07T11:30:26Z</time>
      </trkpt>
      <trkpt lat="49.28524" lon="-0.26966">
        <ele>6.39</ele>
        <time>2016-08-07T11:30:36Z</time>
      </trkpt>
      <trkpt lat="49.28523" lon="-0.26964">
        <ele>7.35</ele>
        <time>2016-08-07T11:30:49Z</time>
      </trkpt>
      <trkpt lat="49.28522" lon="-0.26964">
        <ele>7.35</ele>
        <time>2016-08-07T11:31:01Z</time>
      </trkpt>
      <trkpt lat="49.28525" lon="-0.26965">
        <ele>6.87</ele>
        <time>2016-08-07T11:31:10Z</time>
      </trkpt>
      <trkpt lat="49.2853" lon="-0.26949">
        <ele>5.42</ele>
        <time>2016-08-07T11:31:15Z</time>
      </trkpt>
      <trkpt lat="49.28532" lon="-0.26943">
        <ele>5.42</ele>
        <time>2016-08-07T11:31:16Z</time>
      </trkpt>
      <trkpt lat="49.28538" lon="-0.26924">
        <ele>4.94</ele>
        <time>2016-08-07T11:31:19Z</time>
      </trkpt>
      <trkpt lat="49.28546" lon="-0.26891">
        <ele>5.42</ele>
        <time>2016-08-07T11:31:24Z</time>
      </trkpt>
      <trkpt lat="49.28545" lon="-0.26883">
        <ele>5.91</ele>
        <time>2016-08-07T11:31:25Z</time>
      </trkpt>
      <trkpt lat="49.28544" lon="-0.26876">
        <ele>6.39</ele>
        <time>2016-08-07T11:31:26Z</time>
      </trkpt>
      <trkpt lat="49.28516" lon="-0.26792">
        <ele>6.39</ele>
        <time>2016-08-07T11:31:41Z</time>
      </trkpt>
      <trkpt lat="49.2851" lon="-0.26777">
        <ele>5.42</ele>
        <time>2016-08-07T11:31:44Z</time>
      </trkpt>
      <trkpt lat="49.28501" lon="-0.2675">
        <ele>7.35</ele>
        <time>2016-08-07T11:31:50Z</time>
      </trkpt>
      <trkpt lat="49.28502" lon="-0.26745">
        <ele>7.35</ele>
        <time>2016-08-07T11:31:51Z</time>
      </trkpt>
      <trkpt lat="49.28505" lon="-0.26742">
        <ele>7.35</ele>
        <time>2016-08-07T11:31:52Z</time>
      </trkpt>
      <trkpt lat="49.28508" lon="-0.26739">
        <ele>7.35</ele>
        <time>2016-08-07T11:31:53Z</time>
      </trkpt>
      <trkpt lat="49.28512" lon="-0.26736">
        <ele>7.35</ele>
        <time>2016-08-07T11:31:54Z</time>
      </trkpt>
      <trkpt lat="49.28515" lon="-0.26733">
        <ele>7.35</ele>
        <time>2016-08-07T11:31:55Z</time>
      </trkpt>
      <trkpt lat="49.28534" lon="-0.26718">
        <ele>7.35</ele>
        <time>2016-08-07T11:32:00Z</time>
      </trkpt>
      <trkpt lat="49.28577" lon="-0.26683">
        <ele>7.83</ele>
        <time>2016-08-07T11:32:12Z</time>
      </trkpt>
      <trkpt lat="49.28601" lon="-0.26666">
        <ele>7.83</ele>
        <time>2016-08-07T11:32:23Z</time>
      </trkpt>
      <trkpt lat="49.28602" lon="-0.26665">
        <ele>7.83</ele>
        <time>2016-08-07T11:32:24Z</time>
      </trkpt>
      <trkpt lat="49.28605" lon="-0.26663">
        <ele>7.83</ele>
        <time>2016-08-07T11:32:39Z</time>
      </trkpt>
      <trkpt lat="49.28614" lon="-0.26658">
        <ele>7.83</ele>
        <time>2016-08-07T11:33:00Z</time>
      </trkpt>
      <trkpt lat="49.28618" lon="-0.26658">
        <ele>7.83</ele>
        <time>2016-08-07T11:33:01Z</time>
      </trkpt>
      <trkpt lat="49.28622" lon="-0.26661">
        <ele>7.83</ele>
        <time>2016-08-07T11:33:02Z</time>
      </trkpt>
      <trkpt lat="49.28626" lon="-0.26666">
        <ele>7.35</ele>
        <time>2016-08-07T11:33:03Z</time>
      </trkpt>
      <trkpt lat="49.28629" lon="-0.26673">
        <ele>7.35</ele>
        <time>2016-08-07T11:33:04Z</time>
      </trkpt>
      <trkpt lat="49.28632" lon="-0.26681">
        <ele>7.35</ele>
        <time>2016-08-07T11:33:05Z</time>
      </trkpt>
      <trkpt lat="49.28635" lon="-0.26689">
        <ele>7.83</ele>
        <time>2016-08-07T11:33:06Z</time>
      </trkpt>
      <trkpt lat="49.28658" lon="-0.26757">
        <ele>7.83</ele>
        <time>2016-08-07T11:33:17Z</time>
      </trkpt>
      <trkpt lat="49.28662" lon="-0.26766">
        <ele>7.83</ele>
        <time>2016-08-07T11:33:19Z</time>
      </trkpt>
      <trkpt lat="49.28666" lon="-0.26779">
        <ele>7.83</ele>
        <time>2016-08-07T11:33:21Z</time>
      </trkpt>
      <trkpt lat="49.28705" lon="-0.26903">
        <ele>8.31</ele>
        <time>2016-08-07T11:33:36Z</time>
      </trkpt>
      <trkpt lat="49.28745" lon="-0.27037">
        <ele>7.83</ele>
        <time>2016-08-07T11:33:52Z</time>
      </trkpt>
      <trkpt lat="49.28787" lon="-0.27169">
        <ele>7.35</ele>
        <time>2016-08-07T11:34:08Z</time>
      </trkpt>
      <trkpt lat="49.28791" lon="-0.27173">
        <ele>6.87</ele>
        <time>2016-08-07T11:34:09Z</time>
      </trkpt>
      <trkpt lat="49.28797" lon="-0.27173">
        <ele>7.35</ele>
        <time>2016-08-07T11:34:10Z</time>
      </trkpt>
      <trkpt lat="49.28802" lon="-0.27171">
        <ele>7.35</ele>
        <time>2016-08-07T11:34:11Z</time>
      </trkpt>
      <trkpt lat="49.28807" lon="-0.27169">
        <ele>7.35</ele>
        <time>2016-08-07T11:34:12Z</time>
      </trkpt>
      <trkpt lat="49.28893" lon="-0.27134">
        <ele>7.83</ele>
        <time>2016-08-07T11:34:28Z</time>
      </trkpt>
      <trkpt lat="49.28902" lon="-0.27128">
        <ele>7.83</ele>
        <time>2016-08-07T11:34:30Z</time>
      </trkpt>
      <trkpt lat="49.28912" lon="-0.2712">
        <ele>8.31</ele>
        <time>2016-08-07T11:34:32Z</time>
      </trkpt>
      <trkpt lat="49.28916" lon="-0.27118">
        <ele>8.31</ele>
        <time>2016-08-07T11:34:33Z</time>
      </trkpt>
      <trkpt lat="49.28921" lon="-0.27116">
        <ele>8.31</ele>
        <time>2016-08-07T11:34:34Z</time>
      </trkpt>
      <trkpt lat="49.28927" lon="-0.27116">
        <ele>8.79</ele>
        <time>2016-08-07T11:34:35Z</time>
      </trkpt>
      <trkpt lat="49.28932" lon="-0.27116">
        <ele>8.79</ele>
        <time>2016-08-07T11:34:36Z</time>
      </trkpt>
      <trkpt lat="49.28959" lon="-0.27111">
        <ele>8.79</ele>
        <time>2016-08-07T11:34:41Z</time>
      </trkpt>
      <trkpt lat="49.29044" lon="-0.2708">
        <ele>6.87</ele>
        <time>2016-08-07T11:34:56Z</time>
      </trkpt>
      <trkpt lat="49.29132" lon="-0.27049">
        <ele>3.98</ele>
        <time>2016-08-07T11:35:10Z</time>
      </trkpt>
      <trkpt lat="49.29138" lon="-0.2705">
        <ele>3.98</ele>
        <time>2016-08-07T11:35:11Z</time>
      </trkpt>
      <trkpt lat="49.29144" lon="-0.27054">
        <ele>3.98</ele>
        <time>2016-08-07T11:35:12Z</time>
      </trkpt>
      <trkpt lat="49.29148" lon="-0.27061">
        <ele>3.5</ele>
        <time>2016-08-07T11:35:13Z</time>
      </trkpt>
      <trkpt lat="49.29151" lon="-0.2707">
        <ele>3.5</ele>
        <time>2016-08-07T11:35:14Z</time>
      </trkpt>
      <trkpt lat="49.29153" lon="-0.27079">
        <ele>3.5</ele>
        <time>2016-08-07T11:35:15Z</time>
      </trkpt>
      <trkpt lat="49.29174" lon="-0.27229">
        <ele>5.91</ele>
        <time>2016-08-07T11:35:31Z</time>
      </trkpt>
      <trkpt lat="49.29181" lon="-0.2728">
        <ele>6.87</ele>
        <time>2016-08-07T11:35:37Z</time>
      </trkpt>
      <trkpt lat="49.29198" lon="-0.27402">
        <ele>7.83</ele>
        <time>2016-08-07T11:35:51Z</time>
      </trkpt>
      <trkpt lat="49.29205" lon="-0.27452">
        <ele>8.31</ele>
        <time>2016-08-07T11:35:57Z</time>
      </trkpt>
      <trkpt lat="49.29206" lon="-0.2746">
        <ele>8.31</ele>
        <time>2016-08-07T11:35:58Z</time>
      </trkpt>
      <trkpt lat="49.29215" lon="-0.27524">
        <ele>7.83</ele>
        <time>2016-08-07T11:36:06Z</time>
      </trkpt>
      <trkpt lat="49.29215" lon="-0.2753">
        <ele>7.83</ele>
        <time>2016-08-07T11:36:07Z</time>
      </trkpt>
      <trkpt lat="49.29216" lon="-0.27537">
        <ele>8.31</ele>
        <time>2016-08-07T11:36:08Z</time>
      </trkpt>
      <trkpt lat="49.2922" lon="-0.27567">
        <ele>7.83</ele>
        <time>2016-08-07T11:36:12Z</time>
      </trkpt>
      <trkpt lat="49.29241" lon="-0.27713">
        <ele>7.83</ele>
        <time>2016-08-07T11:36:28Z</time>
      </trkpt>
      <trkpt lat="49.29264" lon="-0.27877">
        <ele>7.35</ele>
        <time>2016-08-07T11:36:46Z</time>
      </trkpt>
      <trkpt lat="49.29265" lon="-0.27885">
        <ele>7.35</ele>
        <time>2016-08-07T11:36:47Z</time>
      </trkpt>
      <trkpt lat="49.29266" lon="-0.27914">
        <ele>7.83</ele>
        <time>2016-08-07T11:36:52Z</time>
      </trkpt>
      <trkpt lat="49.29268" lon="-0.27919">
        <ele>7.83</ele>
        <time>2016-08-07T11:36:53Z</time>
      </trkpt>
      <trkpt lat="49.2927" lon="-0.27924">
        <ele>7.83</ele>
        <time>2016-08-07T11:36:54Z</time>
      </trkpt>
      <trkpt lat="49.29272" lon="-0.27931">
        <ele>7.83</ele>
        <time>2016-08-07T11:36:55Z</time>
      </trkpt>
      <trkpt lat="49.29273" lon="-0.27938">
        <ele>7.83</ele>
        <time>2016-08-07T11:36:56Z</time>
      </trkpt>
      <trkpt lat="49.29276" lon="-0.27945">
        <ele>7.83</ele>
        <time>2016-08-07T11:36:57Z</time>
      </trkpt>
      <trkpt lat="49.2928" lon="-0.27961">
        <ele>8.31</ele>
        <time>2016-08-07T11:36:59Z</time>
      </trkpt>
      <trkpt lat="49.29306" lon="-0.28094">
        <ele>8.31</ele>
        <time>2016-08-07T11:37:14Z</time>
      </trkpt>
      <trkpt lat="49.29308" lon="-0.28103">
        <ele>8.31</ele>
        <time>2016-08-07T11:37:15Z</time>
      </trkpt>
      <trkpt lat="49.29325" lon="-0.28233">
        <ele>7.83</ele>
        <time>2016-08-07T11:37:29Z</time>
      </trkpt>
      <trkpt lat="49.29328" lon="-0.2825">
        <ele>7.83</ele>
        <time>2016-08-07T11:37:31Z</time>
      </trkpt>
      <trkpt lat="49.29328" lon="-0.28258">
        <ele>7.83</ele>
        <time>2016-08-07T11:37:32Z</time>
      </trkpt>
      <trkpt lat="49.29328" lon="-0.28267">
        <ele>7.83</ele>
        <time>2016-08-07T11:37:33Z</time>
      </trkpt>
      <trkpt lat="49.29328" lon="-0.28275">
        <ele>7.83</ele>
        <time>2016-08-07T11:37:34Z</time>
      </trkpt>
      <trkpt lat="49.29329" lon="-0.28283">
        <ele>7.83</ele>
        <time>2016-08-07T11:37:35Z</time>
      </trkpt>
      <trkpt lat="49.29332" lon="-0.28291">
        <ele>7.83</ele>
        <time>2016-08-07T11:37:36Z</time>
      </trkpt>
      <trkpt lat="49.29335" lon="-0.28298">
        <ele>7.83</ele>
        <time>2016-08-07T11:37:37Z</time>
      </trkpt>
      <trkpt lat="49.29338" lon="-0.28304">
        <ele>7.83</ele>
        <time>2016-08-07T11:37:38Z</time>
      </trkpt>
      <trkpt lat="49.29341" lon="-0.28312">
        <ele>7.83</ele>
        <time>2016-08-07T11:37:39Z</time>
      </trkpt>
      <trkpt lat="49.29343" lon="-0.2832">
        <ele>7.83</ele>
        <time>2016-08-07T11:37:40Z</time>
      </trkpt>
      <trkpt lat="49.29374" lon="-0.28446">
        <ele>7.35</ele>
        <time>2016-08-07T11:37:55Z</time>
      </trkpt>
      <trkpt lat="49.29406" lon="-0.28586">
        <ele>7.35</ele>
        <time>2016-08-07T11:38:11Z</time>
      </trkpt>
      <trkpt lat="49.29434" lon="-0.28705">
        <ele>7.83</ele>
        <time>2016-08-07T11:38:24Z</time>
      </trkpt>
      <trkpt lat="49.29447" lon="-0.28764">
        <ele>7.35</ele>
        <time>2016-08-07T11:38:32Z</time>
      </trkpt>
      <trkpt lat="49.29446" lon="-0.2878">
        <ele>6.39</ele>
        <time>2016-08-07T11:38:39Z</time>
      </trkpt>
      <trkpt lat="49.2945" lon="-0.28797">
        <ele>6.39</ele>
        <time>2016-08-07T11:38:43Z</time>
      </trkpt>
      <trkpt lat="49.29451" lon="-0.28803">
        <ele>6.87</ele>
        <time>2016-08-07T11:38:44Z</time>
      </trkpt>
      <trkpt lat="49.29452" lon="-0.28817">
        <ele>6.87</ele>
        <time>2016-08-07T11:38:46Z</time>
      </trkpt>
      <trkpt lat="49.29454" lon="-0.28824">
        <ele>6.39</ele>
        <time>2016-08-07T11:38:47Z</time>
      </trkpt>
      <trkpt lat="49.29456" lon="-0.28837">
        <ele>6.39</ele>
        <time>2016-08-07T11:38:49Z</time>
      </trkpt>
      <trkpt lat="49.29458" lon="-0.28842">
        <ele>6.39</ele>
        <time>2016-08-07T11:38:50Z</time>
      </trkpt>
      <trkpt lat="49.2946" lon="-0.28847">
        <ele>6.39</ele>
        <time>2016-08-07T11:38:51Z</time>
      </trkpt>
      <trkpt lat="49.29467" lon="-0.28863">
        <ele>6.87</ele>
        <time>2016-08-07T11:38:54Z</time>
      </trkpt>
      <trkpt lat="49.29469" lon="-0.28869">
        <ele>6.87</ele>
        <time>2016-08-07T11:38:55Z</time>
      </trkpt>
      <trkpt lat="49.29469" lon="-0.28877">
        <ele>6.87</ele>
        <time>2016-08-07T11:38:56Z</time>
      </trkpt>
      <trkpt lat="49.2947" lon="-0.28892">
        <ele>7.35</ele>
        <time>2016-08-07T11:38:58Z</time>
      </trkpt>
      <trkpt lat="49.2947" lon="-0.2894">
        <ele>7.35</ele>
        <time>2016-08-07T11:39:04Z</time>
      </trkpt>
      <trkpt lat="49.29471" lon="-0.28948">
        <ele>7.83</ele>
        <time>2016-08-07T11:39:05Z</time>
      </trkpt>
      <trkpt lat="49.29478" lon="-0.28979">
        <ele>7.83</ele>
        <time>2016-08-07T11:39:09Z</time>
      </trkpt>
      <trkpt lat="49.29489" lon="-0.29026">
        <ele>7.83</ele>
        <time>2016-08-07T11:39:16Z</time>
      </trkpt>
      <trkpt lat="49.2949" lon="-0.29032">
        <ele>7.83</ele>
        <time>2016-08-07T11:39:17Z</time>
      </trkpt>
      <trkpt lat="49.29498" lon="-0.29058">
        <ele>7.83</ele>
        <time>2016-08-07T11:39:22Z</time>
      </trkpt>
      <trkpt lat="49.29499" lon="-0.29064">
        <ele>7.83</ele>
        <time>2016-08-07T11:39:23Z</time>
      </trkpt>
      <trkpt lat="49.29502" lon="-0.2907">
        <ele>7.83</ele>
        <time>2016-08-07T11:39:24Z</time>
      </trkpt>
      <trkpt lat="49.29504" lon="-0.29076">
        <ele>7.83</ele>
        <time>2016-08-07T11:39:25Z</time>
      </trkpt>
      <trkpt lat="49.29505" lon="-0.29083">
        <ele>7.83</ele>
        <time>2016-08-07T11:39:26Z</time>
      </trkpt>
      <trkpt lat="49.29507" lon="-0.29089">
        <ele>7.83</ele>
        <time>2016-08-07T11:39:27Z</time>
      </trkpt>
      <trkpt lat="49.29508" lon="-0.29097">
        <ele>7.83</ele>
        <time>2016-08-07T11:39:28Z</time>
      </trkpt>
      <trkpt lat="49.29526" lon="-0.29155">
        <ele>7.83</ele>
        <time>2016-08-07T11:39:36Z</time>
      </trkpt>
      <trkpt lat="49.29528" lon="-0.2916">
        <ele>7.83</ele>
        <time>2016-08-07T11:39:37Z</time>
      </trkpt>
      <trkpt lat="49.2953" lon="-0.29165">
        <ele>8.31</ele>
        <time>2016-08-07T11:39:38Z</time>
      </trkpt>
      <trkpt lat="49.29535" lon="-0.29184">
        <ele>8.31</ele>
        <time>2016-08-07T11:39:43Z</time>
      </trkpt>
      <trkpt lat="49.29537" lon="-0.29188">
        <ele>7.83</ele>
        <time>2016-08-07T11:39:44Z</time>
      </trkpt>
      <trkpt lat="49.29539" lon="-0.29192">
        <ele>7.83</ele>
        <time>2016-08-07T11:39:45Z</time>
      </trkpt>
      <trkpt lat="49.29546" lon="-0.29207">
        <ele>7.83</ele>
        <time>2016-08-07T11:39:48Z</time>
      </trkpt>
      <trkpt lat="49.29567" lon="-0.29272">
        <ele>7.83</ele>
        <time>2016-08-07T11:39:57Z</time>
      </trkpt>
      <trkpt lat="49.29569" lon="-0.29279">
        <ele>7.83</ele>
        <time>2016-08-07T11:39:58Z</time>
      </trkpt>
      <trkpt lat="49.29569" lon="-0.29286">
        <ele>7.83</ele>
        <time>2016-08-07T11:39:59Z</time>
      </trkpt>
      <trkpt lat="49.2957" lon="-0.29292">
        <ele>7.83</ele>
        <time>2016-08-07T11:40:00Z</time>
      </trkpt>
      <trkpt lat="49.29571" lon="-0.29299">
        <ele>7.83</ele>
        <time>2016-08-07T11:40:01Z</time>
      </trkpt>
      <trkpt lat="49.29573" lon="-0.29305">
        <ele>7.83</ele>
        <time>2016-08-07T11:40:02Z</time>
      </trkpt>
      <trkpt lat="49.2958" lon="-0.29328">
        <ele>8.31</ele>
        <time>2016-08-07T11:40:06Z</time>
      </trkpt>
      <trkpt lat="49.29582" lon="-0.29334">
        <ele>8.31</ele>
        <time>2016-08-07T11:40:07Z</time>
      </trkpt>
      <trkpt lat="49.29584" lon="-0.29341">
        <ele>8.31</ele>
        <time>2016-08-07T11:40:08Z</time>
      </trkpt>
      <trkpt lat="49.29585" lon="-0.29348">
        <ele>8.31</ele>
        <time>2016-08-07T11:40:09Z</time>
      </trkpt>
      <trkpt lat="49.29587" lon="-0.29355">
        <ele>8.31</ele>
        <time>2016-08-07T11:40:10Z</time>
      </trkpt>
      <trkpt lat="49.2959" lon="-0.29362">
        <ele>8.31</ele>
        <time>2016-08-07T11:40:11Z</time>
      </trkpt>
      <trkpt lat="49.29597" lon="-0.29387">
        <ele>8.31</ele>
        <time>2016-08-07T11:40:15Z</time>
      </trkpt>
      <trkpt lat="49.29599" lon="-0.29401">
        <ele>8.79</ele>
        <time>2016-08-07T11:40:17Z</time>
      </trkpt>
      <trkpt lat="49.29601" lon="-0.29407">
        <ele>8.79</ele>
        <time>2016-08-07T11:40:18Z</time>
      </trkpt>
      <trkpt lat="49.29603" lon="-0.29413">
        <ele>8.79</ele>
        <time>2016-08-07T11:40:19Z</time>
      </trkpt>
      <trkpt lat="49.29605" lon="-0.29419">
        <ele>8.79</ele>
        <time>2016-08-07T11:40:20Z</time>
      </trkpt>
      <trkpt lat="49.29607" lon="-0.29424">
        <ele>8.79</ele>
        <time>2016-08-07T11:40:21Z</time>
      </trkpt>
      <trkpt lat="49.29609" lon="-0.2943">
        <ele>8.79</ele>
        <time>2016-08-07T11:40:22Z</time>
      </trkpt>
      <trkpt lat="49.29611" lon="-0.29437">
        <ele>8.79</ele>
        <time>2016-08-07T11:40:23Z</time>
      </trkpt>
      <trkpt lat="49.29612" lon="-0.29443">
        <ele>8.79</ele>
        <time>2016-08-07T11:40:24Z</time>
      </trkpt>
      <trkpt lat="49.29616" lon="-0.29457">
        <ele>8.79</ele>
        <time>2016-08-07T11:40:26Z</time>
      </trkpt>
      <trkpt lat="49.29618" lon="-0.29464">
        <ele>8.79</ele>
        <time>2016-08-07T11:40:27Z</time>
      </trkpt>
      <trkpt lat="49.29652" lon="-0.29593">
        <ele>8.79</ele>
        <time>2016-08-07T11:40:44Z</time>
      </trkpt>
      <trkpt lat="49.29653" lon="-0.296">
        <ele>8.79</ele>
        <time>2016-08-07T11:40:45Z</time>
      </trkpt>
      <trkpt lat="49.29655" lon="-0.29607">
        <ele>8.79</ele>
        <time>2016-08-07T11:40:46Z</time>
      </trkpt>
      <trkpt lat="49.29657" lon="-0.29613">
        <ele>8.31</ele>
        <time>2016-08-07T11:40:47Z</time>
      </trkpt>
      <trkpt lat="49.29665" lon="-0.29638">
        <ele>8.31</ele>
        <time>2016-08-07T11:40:52Z</time>
      </trkpt>
      <trkpt lat="49.29666" lon="-0.29644">
        <ele>8.31</ele>
        <time>2016-08-07T11:40:53Z</time>
      </trkpt>
      <trkpt lat="49.29668" lon="-0.2965">
        <ele>8.31</ele>
        <time>2016-08-07T11:40:54Z</time>
      </trkpt>
      <trkpt lat="49.29695" lon="-0.29753">
        <ele>8.31</ele>
        <time>2016-08-07T11:41:08Z</time>
      </trkpt>
      <trkpt lat="49.29702" lon="-0.29772">
        <ele>8.31</ele>
        <time>2016-08-07T11:41:11Z</time>
      </trkpt>
      <trkpt lat="49.29729" lon="-0.29873">
        <ele>7.83</ele>
        <time>2016-08-07T11:41:25Z</time>
      </trkpt>
      <trkpt lat="49.2975" lon="-0.29954">
        <ele>8.31</ele>
        <time>2016-08-07T11:41:39Z</time>
      </trkpt>
      <trkpt lat="49.29761" lon="-0.29997">
        <ele>8.31</ele>
        <time>2016-08-07T11:41:50Z</time>
      </trkpt>
      <trkpt lat="49.29768" lon="-0.30027">
        <ele>8.31</ele>
        <time>2016-08-07T11:41:55Z</time>
      </trkpt>
      <trkpt lat="49.29769" lon="-0.30033">
        <ele>8.31</ele>
        <time>2016-08-07T11:41:56Z</time>
      </trkpt>
      <trkpt lat="49.29786" lon="-0.3009">
        <ele>7.83</ele>
        <time>2016-08-07T11:42:05Z</time>
      </trkpt>
      <trkpt lat="49.29787" lon="-0.30097">
        <ele>7.83</ele>
        <time>2016-08-07T11:42:06Z</time>
      </trkpt>
      <trkpt lat="49.29807" lon="-0.3017">
        <ele>7.83</ele>
        <time>2016-08-07T11:42:18Z</time>
      </trkpt>
      <trkpt lat="49.29809" lon="-0.30177">
        <ele>7.83</ele>
        <time>2016-08-07T11:42:19Z</time>
      </trkpt>
      <trkpt lat="49.29814" lon="-0.30196">
        <ele>7.83</ele>
        <time>2016-08-07T11:42:22Z</time>
      </trkpt>
      <trkpt lat="49.29818" lon="-0.30207">
        <ele>6.87</ele>
        <time>2016-08-07T11:42:24Z</time>
      </trkpt>
      <trkpt lat="49.29821" lon="-0.30212">
        <ele>6.87</ele>
        <time>2016-08-07T11:42:25Z</time>
      </trkpt>
      <trkpt lat="49.29823" lon="-0.30217">
        <ele>6.87</ele>
        <time>2016-08-07T11:42:26Z</time>
      </trkpt>
      <trkpt lat="49.29825" lon="-0.30223">
        <ele>6.87</ele>
        <time>2016-08-07T11:42:27Z</time>
      </trkpt>
      <trkpt lat="49.29826" lon="-0.3023">
        <ele>6.39</ele>
        <time>2016-08-07T11:42:28Z</time>
      </trkpt>
      <trkpt lat="49.29827" lon="-0.30236">
        <ele>6.39</ele>
        <time>2016-08-07T11:42:29Z</time>
      </trkpt>
      <trkpt lat="49.29829" lon="-0.30242">
        <ele>6.39</ele>
        <time>2016-08-07T11:42:30Z</time>
      </trkpt>
      <trkpt lat="49.29831" lon="-0.30248">
        <ele>6.39</ele>
        <time>2016-08-07T11:42:31Z</time>
      </trkpt>
      <trkpt lat="49.2985" lon="-0.30312">
        <ele>6.39</ele>
        <time>2016-08-07T11:42:43Z</time>
      </trkpt>
      <trkpt lat="49.29877" lon="-0.304">
        <ele>6.87</ele>
        <time>2016-08-07T11:42:55Z</time>
      </trkpt>
      <trkpt lat="49.29905" lon="-0.30494">
        <ele>6.39</ele>
        <time>2016-08-07T11:43:08Z</time>
      </trkpt>
      <trkpt lat="49.2995" lon="-0.30631">
        <ele>6.87</ele>
        <time>2016-08-07T11:43:26Z</time>
      </trkpt>
      <trkpt lat="49.29986" lon="-0.30743">
        <ele>6.39</ele>
        <time>2016-08-07T11:43:41Z</time>
      </trkpt>
      <trkpt lat="49.30027" lon="-0.30849">
        <ele>6.87</ele>
        <time>2016-08-07T11:43:55Z</time>
      </trkpt>
      <trkpt lat="49.30079" lon="-0.30973">
        <ele>7.35</ele>
        <time>2016-08-07T11:44:12Z</time>
      </trkpt>
      <trkpt lat="49.30081" lon="-0.3098">
        <ele>7.35</ele>
        <time>2016-08-07T11:44:13Z</time>
      </trkpt>
      <trkpt lat="49.30098" lon="-0.31019">
        <ele>7.35</ele>
        <time>2016-08-07T11:44:21Z</time>
      </trkpt>
      <trkpt lat="49.30101" lon="-0.31024">
        <ele>7.35</ele>
        <time>2016-08-07T11:44:22Z</time>
      </trkpt>
      <trkpt lat="49.30104" lon="-0.3103">
        <ele>7.35</ele>
        <time>2016-08-07T11:44:23Z</time>
      </trkpt>
      <trkpt lat="49.30106" lon="-0.31034">
        <ele>7.35</ele>
        <time>2016-08-07T11:44:24Z</time>
      </trkpt>
      <trkpt lat="49.30107" lon="-0.31038">
        <ele>7.35</ele>
        <time>2016-08-07T11:44:25Z</time>
      </trkpt>
      <trkpt lat="49.30108" lon="-0.31042">
        <ele>7.35</ele>
        <time>2016-08-07T11:44:26Z</time>
      </trkpt>
      <trkpt lat="49.3011" lon="-0.31047">
        <ele>7.35</ele>
        <time>2016-08-07T11:44:27Z</time>
      </trkpt>
      <trkpt lat="49.30111" lon="-0.31053">
        <ele>7.35</ele>
        <time>2016-08-07T11:44:28Z</time>
      </trkpt>
      <trkpt lat="49.30113" lon="-0.31059">
        <ele>7.35</ele>
        <time>2016-08-07T11:44:29Z</time>
      </trkpt>
      <trkpt lat="49.30123" lon="-0.31085">
        <ele>7.83</ele>
        <time>2016-08-07T11:44:33Z</time>
      </trkpt>
      <trkpt lat="49.30129" lon="-0.31104">
        <ele>7.83</ele>
        <time>2016-08-07T11:44:36Z</time>
      </trkpt>
      <trkpt lat="49.30163" lon="-0.312">
        <ele>7.35</ele>
        <time>2016-08-07T11:44:52Z</time>
      </trkpt>
      <trkpt lat="49.30177" lon="-0.31242">
        <ele>4.94</ele>
        <time>2016-08-07T11:45:02Z</time>
      </trkpt>
      <trkpt lat="49.3019" lon="-0.31262">
        <ele>4.46</ele>
        <time>2016-08-07T11:45:08Z</time>
      </trkpt>
      <trkpt lat="49.30224" lon="-0.3134">
        <ele>5.42</ele>
        <time>2016-08-07T11:45:20Z</time>
      </trkpt>
      <trkpt lat="49.30227" lon="-0.31347">
        <ele>5.42</ele>
        <time>2016-08-07T11:45:21Z</time>
      </trkpt>
      <trkpt lat="49.3023" lon="-0.31354">
        <ele>5.42</ele>
        <time>2016-08-07T11:45:22Z</time>
      </trkpt>
      <trkpt lat="49.30241" lon="-0.31381">
        <ele>5.42</ele>
        <time>2016-08-07T11:45:26Z</time>
      </trkpt>
      <trkpt lat="49.30243" lon="-0.31389">
        <ele>5.91</ele>
        <time>2016-08-07T11:45:27Z</time>
      </trkpt>
      <trkpt lat="49.30248" lon="-0.31411">
        <ele>5.91</ele>
        <time>2016-08-07T11:45:30Z</time>
      </trkpt>
      <trkpt lat="49.3025" lon="-0.31416">
        <ele>5.42</ele>
        <time>2016-08-07T11:45:31Z</time>
      </trkpt>
      <trkpt lat="49.3027" lon="-0.31461">
        <ele>5.42</ele>
        <time>2016-08-07T11:45:43Z</time>
      </trkpt>
      <trkpt lat="49.30281" lon="-0.31474">
        <ele>4.94</ele>
        <time>2016-08-07T11:45:47Z</time>
      </trkpt>
      <trkpt lat="49.30284" lon="-0.3148">
        <ele>4.94</ele>
        <time>2016-08-07T11:45:48Z</time>
      </trkpt>
      <trkpt lat="49.30287" lon="-0.31487">
        <ele>4.94</ele>
        <time>2016-08-07T11:45:49Z</time>
      </trkpt>
      <trkpt lat="49.30295" lon="-0.31506">
        <ele>5.42</ele>
        <time>2016-08-07T11:45:52Z</time>
      </trkpt>
      <trkpt lat="49.30297" lon="-0.31512">
        <ele>5.42</ele>
        <time>2016-08-07T11:45:53Z</time>
      </trkpt>
      <trkpt lat="49.303" lon="-0.31518">
        <ele>4.94</ele>
        <time>2016-08-07T11:45:54Z</time>
      </trkpt>
      <trkpt lat="49.30302" lon="-0.31524">
        <ele>4.94</ele>
        <time>2016-08-07T11:45:55Z</time>
      </trkpt>
      <trkpt lat="49.30306" lon="-0.31529">
        <ele>4.94</ele>
        <time>2016-08-07T11:45:56Z</time>
      </trkpt>
      <trkpt lat="49.30312" lon="-0.31541">
        <ele>4.94</ele>
        <time>2016-08-07T11:45:58Z</time>
      </trkpt>
      <trkpt lat="49.30321" lon="-0.31566">
        <ele>5.42</ele>
        <time>2016-08-07T11:46:02Z</time>
      </trkpt>
      <trkpt lat="49.30322" lon="-0.31572">
        <ele>5.42</ele>
        <time>2016-08-07T11:46:03Z</time>
      </trkpt>
      <trkpt lat="49.30323" lon="-0.31578">
        <ele>4.94</ele>
        <time>2016-08-07T11:46:04Z</time>
      </trkpt>
      <trkpt lat="49.30323" lon="-0.31584">
        <ele>4.94</ele>
        <time>2016-08-07T11:46:05Z</time>
      </trkpt>
      <trkpt lat="49.30322" lon="-0.31589">
        <ele>4.46</ele>
        <time>2016-08-07T11:46:06Z</time>
      </trkpt>
      <trkpt lat="49.30321" lon="-0.31595">
        <ele>4.46</ele>
        <time>2016-08-07T11:46:07Z</time>
      </trkpt>
      <trkpt lat="49.30321" lon="-0.316">
        <ele>4.46</ele>
        <time>2016-08-07T11:46:08Z</time>
      </trkpt>
      <trkpt lat="49.30321" lon="-0.31605">
        <ele>4.46</ele>
        <time>2016-08-07T11:46:09Z</time>
      </trkpt>
      <trkpt lat="49.30323" lon="-0.31611">
        <ele>4.46</ele>
        <time>2016-08-07T11:46:10Z</time>
      </trkpt>
      <trkpt lat="49.30325" lon="-0.31616">
        <ele>4.46</ele>
        <time>2016-08-07T11:46:11Z</time>
      </trkpt>
      <trkpt lat="49.30327" lon="-0.31622">
        <ele>4.46</ele>
        <time>2016-08-07T11:46:12Z</time>
      </trkpt>
      <trkpt lat="49.30353" lon="-0.31684">
        <ele>5.91</ele>
        <time>2016-08-07T11:46:20Z</time>
      </trkpt>
      <trkpt lat="49.30374" lon="-0.31735">
        <ele>6.87</ele>
        <time>2016-08-07T11:46:27Z</time>
      </trkpt>
      <trkpt lat="49.3038" lon="-0.31747">
        <ele>6.87</ele>
        <time>2016-08-07T11:46:29Z</time>
      </trkpt>
      <trkpt lat="49.30391" lon="-0.31769">
        <ele>7.35</ele>
        <time>2016-08-07T11:46:34Z</time>
      </trkpt>
      <trkpt lat="49.30394" lon="-0.31772">
        <ele>7.35</ele>
        <time>2016-08-07T11:46:35Z</time>
      </trkpt>
      <trkpt lat="49.30397" lon="-0.31777">
        <ele>7.35</ele>
        <time>2016-08-07T11:46:36Z</time>
      </trkpt>
      <trkpt lat="49.30416" lon="-0.31802">
        <ele>7.35</ele>
        <time>2016-08-07T11:46:41Z</time>
      </trkpt>
      <trkpt lat="49.30431" lon="-0.31824">
        <ele>7.83</ele>
        <time>2016-08-07T11:46:45Z</time>
      </trkpt>
      <trkpt lat="49.3044" lon="-0.31833">
        <ele>7.83</ele>
        <time>2016-08-07T11:46:47Z</time>
      </trkpt>
      <trkpt lat="49.30502" lon="-0.31939">
        <ele>8.79</ele>
        <time>2016-08-07T11:47:04Z</time>
      </trkpt>
      <trkpt lat="49.3054" lon="-0.32037">
        <ele>8.31</ele>
        <time>2016-08-07T11:47:18Z</time>
      </trkpt>
      <trkpt lat="49.30543" lon="-0.32045">
        <ele>8.31</ele>
        <time>2016-08-07T11:47:19Z</time>
      </trkpt>
      <trkpt lat="49.30551" lon="-0.32068">
        <ele>8.31</ele>
        <time>2016-08-07T11:47:22Z</time>
      </trkpt>
      <trkpt lat="49.30606" lon="-0.32187">
        <ele>7.35</ele>
        <time>2016-08-07T11:47:38Z</time>
      </trkpt>
      <trkpt lat="49.30625" lon="-0.32239">
        <ele>7.35</ele>
        <time>2016-08-07T11:47:45Z</time>
      </trkpt>
      <trkpt lat="49.30627" lon="-0.32247">
        <ele>6.87</ele>
        <time>2016-08-07T11:47:46Z</time>
      </trkpt>
      <trkpt lat="49.30629" lon="-0.32255">
        <ele>6.87</ele>
        <time>2016-08-07T11:47:47Z</time>
      </trkpt>
      <trkpt lat="49.3064" lon="-0.32292">
        <ele>6.87</ele>
        <time>2016-08-07T11:47:52Z</time>
      </trkpt>
      <trkpt lat="49.30642" lon="-0.32299">
        <ele>6.87</ele>
        <time>2016-08-07T11:47:53Z</time>
      </trkpt>
      <trkpt lat="49.30643" lon="-0.32304">
        <ele>6.87</ele>
        <time>2016-08-07T11:47:54Z</time>
      </trkpt>
      <trkpt lat="49.30644" lon="-0.32308">
        <ele>6.87</ele>
        <time>2016-08-07T11:47:55Z</time>
      </trkpt>
      <trkpt lat="49.30644" lon="-0.32313">
        <ele>6.39</ele>
        <time>2016-08-07T11:47:56Z</time>
      </trkpt>
      <trkpt lat="49.30644" lon="-0.32318">
        <ele>6.39</ele>
        <time>2016-08-07T11:47:57Z</time>
      </trkpt>
      <trkpt lat="49.30643" lon="-0.32322">
        <ele>5.91</ele>
        <time>2016-08-07T11:47:58Z</time>
      </trkpt>
      <trkpt lat="49.30641" lon="-0.32325">
        <ele>5.91</ele>
        <time>2016-08-07T11:47:59Z</time>
      </trkpt>
      <trkpt lat="49.30595" lon="-0.32355">
        <ele>6.87</ele>
        <time>2016-08-07T11:48:10Z</time>
      </trkpt>
      <trkpt lat="49.30591" lon="-0.3236">
        <ele>6.87</ele>
        <time>2016-08-07T11:48:11Z</time>
      </trkpt>
      <trkpt lat="49.30588" lon="-0.32365">
        <ele>7.35</ele>
        <time>2016-08-07T11:48:12Z</time>
      </trkpt>
      <trkpt lat="49.30586" lon="-0.32371">
        <ele>7.35</ele>
        <time>2016-08-07T11:48:13Z</time>
      </trkpt>
      <trkpt lat="49.30584" lon="-0.32377">
        <ele>7.83</ele>
        <time>2016-08-07T11:48:14Z</time>
      </trkpt>
      <trkpt lat="49.30583" lon="-0.32382">
        <ele>7.83</ele>
        <time>2016-08-07T11:48:15Z</time>
      </trkpt>
      <trkpt lat="49.30584" lon="-0.32388">
        <ele>7.83</ele>
        <time>2016-08-07T11:48:16Z</time>
      </trkpt>
      <trkpt lat="49.30584" lon="-0.32394">
        <ele>7.83</ele>
        <time>2016-08-07T11:48:17Z</time>
      </trkpt>
      <trkpt lat="49.30584" lon="-0.32401">
        <ele>7.83</ele>
        <time>2016-08-07T11:48:18Z</time>
      </trkpt>
      <trkpt lat="49.30584" lon="-0.32408">
        <ele>7.83</ele>
        <time>2016-08-07T11:48:19Z</time>
      </trkpt>
      <trkpt lat="49.30583" lon="-0.32416">
        <ele>7.83</ele>
        <time>2016-08-07T11:48:20Z</time>
      </trkpt>
      <trkpt lat="49.30582" lon="-0.32425">
        <ele>7.83</ele>
        <time>2016-08-07T11:48:21Z</time>
      </trkpt>
      <trkpt lat="49.30583" lon="-0.32433">
        <ele>7.83</ele>
        <time>2016-08-07T11:48:22Z</time>
      </trkpt>
      <trkpt lat="49.30584" lon="-0.32442">
        <ele>7.35</ele>
        <time>2016-08-07T11:48:23Z</time>
      </trkpt>
      <trkpt lat="49.30587" lon="-0.3245">
        <ele>7.35</ele>
        <time>2016-08-07T11:48:24Z</time>
      </trkpt>
      <trkpt lat="49.30591" lon="-0.32458">
        <ele>7.83</ele>
        <time>2016-08-07T11:48:25Z</time>
      </trkpt>
      <trkpt lat="49.30642" lon="-0.32537">
        <ele>9.27</ele>
        <time>2016-08-07T11:48:37Z</time>
      </trkpt>
      <trkpt lat="49.30701" lon="-0.32654">
        <ele>10.71</ele>
        <time>2016-08-07T11:48:53Z</time>
      </trkpt>
      <trkpt lat="49.30741" lon="-0.32733">
        <ele>11.19</ele>
        <time>2016-08-07T11:49:04Z</time>
      </trkpt>
      <trkpt lat="49.30745" lon="-0.32739">
        <ele>11.19</ele>
        <time>2016-08-07T11:49:05Z</time>
      </trkpt>
      <trkpt lat="49.30749" lon="-0.32745">
        <ele>11.19</ele>
        <time>2016-08-07T11:49:06Z</time>
      </trkpt>
      <trkpt lat="49.30754" lon="-0.3275">
        <ele>11.19</ele>
        <time>2016-08-07T11:49:07Z</time>
      </trkpt>
      <trkpt lat="49.30758" lon="-0.32757">
        <ele>11.19</ele>
        <time>2016-08-07T11:49:08Z</time>
      </trkpt>
      <trkpt lat="49.30762" lon="-0.32764">
        <ele>11.19</ele>
        <time>2016-08-07T11:49:09Z</time>
      </trkpt>
      <trkpt lat="49.30766" lon="-0.32771">
        <ele>11.67</ele>
        <time>2016-08-07T11:49:10Z</time>
      </trkpt>
      <trkpt lat="49.30839" lon="-0.32916">
        <ele>11.67</ele>
        <time>2016-08-07T11:49:30Z</time>
      </trkpt>
      <trkpt lat="49.30896" lon="-0.33033">
        <ele>12.63</ele>
        <time>2016-08-07T11:49:47Z</time>
      </trkpt>
      <trkpt lat="49.30928" lon="-0.3311">
        <ele>13.6</ele>
        <time>2016-08-07T11:49:59Z</time>
      </trkpt>
      <trkpt lat="49.30937" lon="-0.33133">
        <ele>13.6</ele>
        <time>2016-08-07T11:50:02Z</time>
      </trkpt>
      <trkpt lat="49.30997" lon="-0.33277">
        <ele>13.6</ele>
        <time>2016-08-07T11:50:20Z</time>
      </trkpt>
      <trkpt lat="49.31054" lon="-0.33416">
        <ele>13.6</ele>
        <time>2016-08-07T11:50:35Z</time>
      </trkpt>
      <trkpt lat="49.31129" lon="-0.33596">
        <ele>13.12</ele>
        <time>2016-08-07T11:50:54Z</time>
      </trkpt>
      <trkpt lat="49.31185" lon="-0.33732">
        <ele>12.15</ele>
        <time>2016-08-07T11:51:09Z</time>
      </trkpt>
      <trkpt lat="49.31232" lon="-0.3385">
        <ele>12.15</ele>
        <time>2016-08-07T11:51:22Z</time>
      </trkpt>
      <trkpt lat="49.31285" lon="-0.33979">
        <ele>11.67</ele>
        <time>2016-08-07T11:51:37Z</time>
      </trkpt>
      <trkpt lat="49.31335" lon="-0.34103">
        <ele>10.23</ele>
        <time>2016-08-07T11:51:52Z</time>
      </trkpt>
      <trkpt lat="49.31387" lon="-0.34229">
        <ele>11.19</ele>
        <time>2016-08-07T11:52:08Z</time>
      </trkpt>
      <trkpt lat="49.31398" lon="-0.34258">
        <ele>11.67</ele>
        <time>2016-08-07T11:52:12Z</time>
      </trkpt>
      <trkpt lat="49.314" lon="-0.34265">
        <ele>11.67</ele>
        <time>2016-08-07T11:52:13Z</time>
      </trkpt>
      <trkpt lat="49.31416" lon="-0.34307">
        <ele>12.15</ele>
        <time>2016-08-07T11:52:21Z</time>
      </trkpt>
      <trkpt lat="49.31422" lon="-0.34321">
        <ele>11.67</ele>
        <time>2016-08-07T11:52:23Z</time>
      </trkpt>
      <trkpt lat="49.31452" lon="-0.34391">
        <ele>12.63</ele>
        <time>2016-08-07T11:52:33Z</time>
      </trkpt>
      <trkpt lat="49.31456" lon="-0.34395">
        <ele>12.63</ele>
        <time>2016-08-07T11:52:34Z</time>
      </trkpt>
      <trkpt lat="49.3146" lon="-0.34399">
        <ele>12.15</ele>
        <time>2016-08-07T11:52:35Z</time>
      </trkpt>
      <trkpt lat="49.31463" lon="-0.34405">
        <ele>12.15</ele>
        <time>2016-08-07T11:52:36Z</time>
      </trkpt>
      <trkpt lat="49.31465" lon="-0.34413">
        <ele>12.15</ele>
        <time>2016-08-07T11:52:37Z</time>
      </trkpt>
      <trkpt lat="49.31467" lon="-0.3442">
        <ele>12.63</ele>
        <time>2016-08-07T11:52:38Z</time>
      </trkpt>
      <trkpt lat="49.3147" lon="-0.34428">
        <ele>12.63</ele>
        <time>2016-08-07T11:52:39Z</time>
      </trkpt>
      <trkpt lat="49.31473" lon="-0.34435">
        <ele>12.63</ele>
        <time>2016-08-07T11:52:40Z</time>
      </trkpt>
      <trkpt lat="49.31476" lon="-0.34442">
        <ele>13.12</ele>
        <time>2016-08-07T11:52:41Z</time>
      </trkpt>
      <trkpt lat="49.31511" lon="-0.34519">
        <ele>14.08</ele>
        <time>2016-08-07T11:52:52Z</time>
      </trkpt>
      <trkpt lat="49.31514" lon="-0.34525">
        <ele>14.56</ele>
        <time>2016-08-07T11:52:53Z</time>
      </trkpt>
      <trkpt lat="49.31517" lon="-0.34532">
        <ele>14.56</ele>
        <time>2016-08-07T11:52:54Z</time>
      </trkpt>
      <trkpt lat="49.3152" lon="-0.3454">
        <ele>14.56</ele>
        <time>2016-08-07T11:52:55Z</time>
      </trkpt>
      <trkpt lat="49.31523" lon="-0.34547">
        <ele>14.56</ele>
        <time>2016-08-07T11:52:56Z</time>
      </trkpt>
      <trkpt lat="49.31526" lon="-0.34554">
        <ele>14.08</ele>
        <time>2016-08-07T11:52:57Z</time>
      </trkpt>
      <trkpt lat="49.31579" lon="-0.34676">
        <ele>15.04</ele>
        <time>2016-08-07T11:53:14Z</time>
      </trkpt>
      <trkpt lat="49.31604" lon="-0.34732">
        <ele>14.08</ele>
        <time>2016-08-07T11:53:22Z</time>
      </trkpt>
      <trkpt lat="49.31646" lon="-0.34827">
        <ele>14.08</ele>
        <time>2016-08-07T11:53:34Z</time>
      </trkpt>
      <trkpt lat="49.31649" lon="-0.34836">
        <ele>14.08</ele>
        <time>2016-08-07T11:53:35Z</time>
      </trkpt>
      <trkpt lat="49.31682" lon="-0.34903">
        <ele>13.6</ele>
        <time>2016-08-07T11:53:43Z</time>
      </trkpt>
      <trkpt lat="49.31686" lon="-0.3491">
        <ele>13.6</ele>
        <time>2016-08-07T11:53:44Z</time>
      </trkpt>
      <trkpt lat="49.31694" lon="-0.34923">
        <ele>13.6</ele>
        <time>2016-08-07T11:53:46Z</time>
      </trkpt>
      <trkpt lat="49.31697" lon="-0.34927">
        <ele>14.08</ele>
        <time>2016-08-07T11:53:47Z</time>
      </trkpt>
      <trkpt lat="49.317" lon="-0.34931">
        <ele>13.6</ele>
        <time>2016-08-07T11:53:48Z</time>
      </trkpt>
      <trkpt lat="49.31703" lon="-0.34935">
        <ele>13.6</ele>
        <time>2016-08-07T11:53:49Z</time>
      </trkpt>
      <trkpt lat="49.31707" lon="-0.34939">
        <ele>13.12</ele>
        <time>2016-08-07T11:53:50Z</time>
      </trkpt>
      <trkpt lat="49.3171" lon="-0.34944">
        <ele>13.12</ele>
        <time>2016-08-07T11:53:51Z</time>
      </trkpt>
      <trkpt lat="49.31715" lon="-0.34948">
        <ele>12.63</ele>
        <time>2016-08-07T11:53:52Z</time>
      </trkpt>
      <trkpt lat="49.31784" lon="-0.35013">
        <ele>11.67</ele>
        <time>2016-08-07T11:54:05Z</time>
      </trkpt>
      <trkpt lat="49.31816" lon="-0.35046">
        <ele>11.19</ele>
        <time>2016-08-07T11:54:11Z</time>
      </trkpt>
      <trkpt lat="49.3187" lon="-0.35159">
        <ele>9.75</ele>
        <time>2016-08-07T11:54:25Z</time>
      </trkpt>
      <trkpt lat="49.31873" lon="-0.35167">
        <ele>9.27</ele>
        <time>2016-08-07T11:54:26Z</time>
      </trkpt>
      <trkpt lat="49.31889" lon="-0.35206">
        <ele>7.83</ele>
        <time>2016-08-07T11:54:31Z</time>
      </trkpt>
      <trkpt lat="49.31939" lon="-0.35326">
        <ele>11.19</ele>
        <time>2016-08-07T11:54:47Z</time>
      </trkpt>
      <trkpt lat="49.31949" lon="-0.35346">
        <ele>11.19</ele>
        <time>2016-08-07T11:54:50Z</time>
      </trkpt>
      <trkpt lat="49.31952" lon="-0.35351">
        <ele>11.19</ele>
        <time>2016-08-07T11:54:51Z</time>
      </trkpt>
      <trkpt lat="49.31956" lon="-0.35356">
        <ele>11.19</ele>
        <time>2016-08-07T11:54:52Z</time>
      </trkpt>
      <trkpt lat="49.31959" lon="-0.35361">
        <ele>11.19</ele>
        <time>2016-08-07T11:54:53Z</time>
      </trkpt>
      <trkpt lat="49.31962" lon="-0.35367">
        <ele>11.19</ele>
        <time>2016-08-07T11:54:54Z</time>
      </trkpt>
      <trkpt lat="49.31964" lon="-0.35372">
        <ele>11.19</ele>
        <time>2016-08-07T11:54:55Z</time>
      </trkpt>
      <trkpt lat="49.31982" lon="-0.35416">
        <ele>12.15</ele>
        <time>2016-08-07T11:55:05Z</time>
      </trkpt>
      <trkpt lat="49.31985" lon="-0.3543">
        <ele>12.15</ele>
        <time>2016-08-07T11:55:07Z</time>
      </trkpt>
      <trkpt lat="49.31987" lon="-0.35437">
        <ele>12.15</ele>
        <time>2016-08-07T11:55:08Z</time>
      </trkpt>
      <trkpt lat="49.31994" lon="-0.35459">
        <ele>12.15</ele>
        <time>2016-08-07T11:55:11Z</time>
      </trkpt>
      <trkpt lat="49.3202" lon="-0.35524">
        <ele>11.67</ele>
        <time>2016-08-07T11:55:21Z</time>
      </trkpt>
      <trkpt lat="49.32057" lon="-0.35614">
        <ele>12.15</ele>
        <time>2016-08-07T11:55:34Z</time>
      </trkpt>
      <trkpt lat="49.3206" lon="-0.35623">
        <ele>11.67</ele>
        <time>2016-08-07T11:55:35Z</time>
      </trkpt>
      <trkpt lat="49.32063" lon="-0.35632">
        <ele>11.67</ele>
        <time>2016-08-07T11:55:36Z</time>
      </trkpt>
      <trkpt lat="49.32068" lon="-0.35642">
        <ele>11.67</ele>
        <time>2016-08-07T11:55:37Z</time>
      </trkpt>
      <trkpt lat="49.32072" lon="-0.35651">
        <ele>11.67</ele>
        <time>2016-08-07T11:55:38Z</time>
      </trkpt>
      <trkpt lat="49.32113" lon="-0.35743">
        <ele>11.19</ele>
        <time>2016-08-07T11:55:50Z</time>
      </trkpt>
      <trkpt lat="49.32122" lon="-0.35768">
        <ele>10.71</ele>
        <time>2016-08-07T11:55:54Z</time>
      </trkpt>
      <trkpt lat="49.32171" lon="-0.3588">
        <ele>9.75</ele>
        <time>2016-08-07T11:56:08Z</time>
      </trkpt>
      <trkpt lat="49.32182" lon="-0.35903">
        <ele>9.27</ele>
        <time>2016-08-07T11:56:11Z</time>
      </trkpt>
      <trkpt lat="49.32189" lon="-0.35921">
        <ele>8.79</ele>
        <time>2016-08-07T11:56:13Z</time>
      </trkpt>
      <trkpt lat="49.32243" lon="-0.36043">
        <ele>10.23</ele>
        <time>2016-08-07T11:56:28Z</time>
      </trkpt>
      <trkpt lat="49.32247" lon="-0.36051">
        <ele>10.23</ele>
        <time>2016-08-07T11:56:29Z</time>
      </trkpt>
      <trkpt lat="49.32284" lon="-0.36122">
        <ele>12.63</ele>
        <time>2016-08-07T11:56:39Z</time>
      </trkpt>
      <trkpt lat="49.32326" lon="-0.36219">
        <ele>13.12</ele>
        <time>2016-08-07T11:56:52Z</time>
      </trkpt>
      <trkpt lat="49.3236" lon="-0.3634">
        <ele>12.63</ele>
        <time>2016-08-07T11:57:07Z</time>
      </trkpt>
      <trkpt lat="49.32379" lon="-0.36427">
        <ele>12.63</ele>
        <time>2016-08-07T11:57:18Z</time>
      </trkpt>
      <trkpt lat="49.32381" lon="-0.36435">
        <ele>12.63</ele>
        <time>2016-08-07T11:57:19Z</time>
      </trkpt>
      <trkpt lat="49.32383" lon="-0.36444">
        <ele>12.63</ele>
        <time>2016-08-07T11:57:20Z</time>
      </trkpt>
      <trkpt lat="49.32385" lon="-0.36452">
        <ele>13.12</ele>
        <time>2016-08-07T11:57:21Z</time>
      </trkpt>
      <trkpt lat="49.32387" lon="-0.3646">
        <ele>13.12</ele>
        <time>2016-08-07T11:57:22Z</time>
      </trkpt>
      <trkpt lat="49.32411" lon="-0.36552">
        <ele>12.63</ele>
        <time>2016-08-07T11:57:33Z</time>
      </trkpt>
      <trkpt lat="49.32414" lon="-0.36559">
        <ele>12.63</ele>
        <time>2016-08-07T11:57:34Z</time>
      </trkpt>
      <trkpt lat="49.32432" lon="-0.36606">
        <ele>12.15</ele>
        <time>2016-08-07T11:57:40Z</time>
      </trkpt>
      <trkpt lat="49.32466" lon="-0.3674">
        <ele>11.67</ele>
        <time>2016-08-07T11:57:56Z</time>
      </trkpt>
      <trkpt lat="49.32496" lon="-0.36849">
        <ele>10.71</ele>
        <time>2016-08-07T11:58:09Z</time>
      </trkpt>
      <trkpt lat="49.32523" lon="-0.36962">
        <ele>9.75</ele>
        <time>2016-08-07T11:58:21Z</time>
      </trkpt>
      <trkpt lat="49.32524" lon="-0.36972">
        <ele>9.75</ele>
        <time>2016-08-07T11:58:22Z</time>
      </trkpt>
      <trkpt lat="49.32526" lon="-0.36982">
        <ele>9.75</ele>
        <time>2016-08-07T11:58:23Z</time>
      </trkpt>
      <trkpt lat="49.32545" lon="-0.37065">
        <ele>9.27</ele>
        <time>2016-08-07T11:58:34Z</time>
      </trkpt>
      <trkpt lat="49.32551" lon="-0.37086">
        <ele>9.27</ele>
        <time>2016-08-07T11:58:38Z</time>
      </trkpt>
      <trkpt lat="49.32555" lon="-0.37088">
        <ele>9.75</ele>
        <time>2016-08-07T11:58:39Z</time>
      </trkpt>
      <trkpt lat="49.32559" lon="-0.37088">
        <ele>9.75</ele>
        <time>2016-08-07T11:58:40Z</time>
      </trkpt>
      <trkpt lat="49.32563" lon="-0.37087">
        <ele>9.75</ele>
        <time>2016-08-07T11:58:41Z</time>
      </trkpt>
      <trkpt lat="49.32568" lon="-0.37085">
        <ele>9.75</ele>
        <time>2016-08-07T11:58:42Z</time>
      </trkpt>
      <trkpt lat="49.32572" lon="-0.37082">
        <ele>9.75</ele>
        <time>2016-08-07T11:58:43Z</time>
      </trkpt>
      <trkpt lat="49.32576" lon="-0.3708">
        <ele>9.75</ele>
        <time>2016-08-07T11:58:44Z</time>
      </trkpt>
      <trkpt lat="49.32599" lon="-0.37073">
        <ele>9.27</ele>
        <time>2016-08-07T11:58:52Z</time>
      </trkpt>
      <trkpt lat="49.32601" lon="-0.37076">
        <ele>8.79</ele>
        <time>2016-08-07T11:58:53Z</time>
      </trkpt>
      <trkpt lat="49.32603" lon="-0.37082">
        <ele>8.79</ele>
        <time>2016-08-07T11:58:54Z</time>
      </trkpt>
      <trkpt lat="49.32632" lon="-0.37186">
        <ele>6.39</ele>
        <time>2016-08-07T11:59:08Z</time>
      </trkpt>
      <trkpt lat="49.32652" lon="-0.37255">
        <ele>5.91</ele>
        <time>2016-08-07T11:59:17Z</time>
      </trkpt>
      <trkpt lat="49.32656" lon="-0.3727">
        <ele>5.91</ele>
        <time>2016-08-07T11:59:19Z</time>
      </trkpt>
      <trkpt lat="49.32657" lon="-0.37297">
        <ele>5.91</ele>
        <time>2016-08-07T11:59:24Z</time>
      </trkpt>
      <trkpt lat="49.32654" lon="-0.37301">
        <ele>5.42</ele>
        <time>2016-08-07T11:59:25Z</time>
      </trkpt>
      <trkpt lat="49.32651" lon="-0.37304">
        <ele>5.42</ele>
        <time>2016-08-07T11:59:26Z</time>
      </trkpt>
      <trkpt lat="49.32618" lon="-0.37326">
        <ele>6.87</ele>
        <time>2016-08-07T11:59:33Z</time>
      </trkpt>
      <trkpt lat="49.32614" lon="-0.37328">
        <ele>6.87</ele>
        <time>2016-08-07T11:59:34Z</time>
      </trkpt>
      <trkpt lat="49.32611" lon="-0.37332">
        <ele>7.35</ele>
        <time>2016-08-07T11:59:35Z</time>
      </trkpt>
      <trkpt lat="49.32609" lon="-0.37337">
        <ele>7.35</ele>
        <time>2016-08-07T11:59:36Z</time>
      </trkpt>
      <trkpt lat="49.32608" lon="-0.37342">
        <ele>7.35</ele>
        <time>2016-08-07T11:59:37Z</time>
      </trkpt>
      <trkpt lat="49.32608" lon="-0.37348">
        <ele>7.35</ele>
        <time>2016-08-07T11:59:38Z</time>
      </trkpt>
      <trkpt lat="49.32608" lon="-0.37354">
        <ele>7.35</ele>
        <time>2016-08-07T11:59:39Z</time>
      </trkpt>
      <trkpt lat="49.32609" lon="-0.37361">
        <ele>7.35</ele>
        <time>2016-08-07T11:59:40Z</time>
      </trkpt>
      <trkpt lat="49.32611" lon="-0.37368">
        <ele>7.35</ele>
        <time>2016-08-07T11:59:41Z</time>
      </trkpt>
      <trkpt lat="49.32613" lon="-0.37374">
        <ele>7.83</ele>
        <time>2016-08-07T11:59:42Z</time>
      </trkpt>
      <trkpt lat="49.32613" lon="-0.3738">
        <ele>7.83</ele>
        <time>2016-08-07T11:59:43Z</time>
      </trkpt>
      <trkpt lat="49.32611" lon="-0.37385">
        <ele>7.83</ele>
        <time>2016-08-07T11:59:44Z</time>
      </trkpt>
      <trkpt lat="49.3261" lon="-0.37388">
        <ele>8.31</ele>
        <time>2016-08-07T11:59:45Z</time>
      </trkpt>
      <trkpt lat="49.32608" lon="-0.37391">
        <ele>8.31</ele>
        <time>2016-08-07T11:59:46Z</time>
      </trkpt>
      <trkpt lat="49.32608" lon="-0.37394">
        <ele>8.31</ele>
        <time>2016-08-07T11:59:47Z</time>
      </trkpt>
      <trkpt lat="49.32608" lon="-0.374">
        <ele>7.83</ele>
        <time>2016-08-07T11:59:54Z</time>
      </trkpt>
      <trkpt lat="49.32608" lon="-0.37403">
        <ele>7.83</ele>
        <time>2016-08-07T11:59:55Z</time>
      </trkpt>
      <trkpt lat="49.32609" lon="-0.37406">
        <ele>7.83</ele>
        <time>2016-08-07T11:59:56Z</time>
      </trkpt>
      <trkpt lat="49.3261" lon="-0.37408">
        <ele>7.83</ele>
        <time>2016-08-07T11:59:57Z</time>
      </trkpt>
      <trkpt lat="49.32612" lon="-0.37412">
        <ele>7.83</ele>
        <time>2016-08-07T11:59:58Z</time>
      </trkpt>
      <trkpt lat="49.32613" lon="-0.37416">
        <ele>7.83</ele>
        <time>2016-08-07T11:59:59Z</time>
      </trkpt>
      <trkpt lat="49.32616" lon="-0.3742">
        <ele>8.31</ele>
        <time>2016-08-07T12:00:00Z</time>
      </trkpt>
      <trkpt lat="49.3264" lon="-0.37464">
        <ele>8.31</ele>
        <time>2016-08-07T12:00:07Z</time>
      </trkpt>
      <trkpt lat="49.3265" lon="-0.37484">
        <ele>8.31</ele>
        <time>2016-08-07T12:00:10Z</time>
      </trkpt>
      <trkpt lat="49.32697" lon="-0.37567">
        <ele>8.79</ele>
        <time>2016-08-07T12:00:23Z</time>
      </trkpt>
      <trkpt lat="49.32714" lon="-0.37602">
        <ele>8.79</ele>
        <time>2016-08-07T12:00:28Z</time>
      </trkpt>
      <trkpt lat="49.32717" lon="-0.37609">
        <ele>8.79</ele>
        <time>2016-08-07T12:00:29Z</time>
      </trkpt>
      <trkpt lat="49.32749" lon="-0.37722">
        <ele>7.35</ele>
        <time>2016-08-07T12:00:43Z</time>
      </trkpt>
      <trkpt lat="49.3278" lon="-0.37846">
        <ele>8.31</ele>
        <time>2016-08-07T12:00:58Z</time>
      </trkpt>
      <trkpt lat="49.32808" lon="-0.37966">
        <ele>7.35</ele>
        <time>2016-08-07T12:01:12Z</time>
      </trkpt>
      <trkpt lat="49.32834" lon="-0.38071">
        <ele>6.87</ele>
        <time>2016-08-07T12:01:24Z</time>
      </trkpt>
      <trkpt lat="49.32869" lon="-0.38217">
        <ele>6.39</ele>
        <time>2016-08-07T12:01:39Z</time>
      </trkpt>
      <trkpt lat="49.3288" lon="-0.38263">
        <ele>6.39</ele>
        <time>2016-08-07T12:01:44Z</time>
      </trkpt>
      <trkpt lat="49.32881" lon="-0.38272">
        <ele>6.39</ele>
        <time>2016-08-07T12:01:45Z</time>
      </trkpt>
      <trkpt lat="49.32883" lon="-0.38281">
        <ele>5.91</ele>
        <time>2016-08-07T12:01:46Z</time>
      </trkpt>
      <trkpt lat="49.32918" lon="-0.38423">
        <ele>4.46</ele>
        <time>2016-08-07T12:02:02Z</time>
      </trkpt>
      <trkpt lat="49.3293" lon="-0.38477">
        <ele>4.46</ele>
        <time>2016-08-07T12:02:08Z</time>
      </trkpt>
      <trkpt lat="49.32932" lon="-0.38486">
        <ele>4.46</ele>
        <time>2016-08-07T12:02:09Z</time>
      </trkpt>
      <trkpt lat="49.32948" lon="-0.3856">
        <ele>3.5</ele>
        <time>2016-08-07T12:02:18Z</time>
      </trkpt>
      <trkpt lat="49.32956" lon="-0.38592">
        <ele>3.98</ele>
        <time>2016-08-07T12:02:22Z</time>
      </trkpt>
      <trkpt lat="49.32989" lon="-0.38719">
        <ele>4.46</ele>
        <time>2016-08-07T12:02:37Z</time>
      </trkpt>
      <trkpt lat="49.33024" lon="-0.3885">
        <ele>6.39</ele>
        <time>2016-08-07T12:02:53Z</time>
      </trkpt>
      <trkpt lat="49.33026" lon="-0.38859">
        <ele>6.39</ele>
        <time>2016-08-07T12:02:54Z</time>
      </trkpt>
      <trkpt lat="49.33028" lon="-0.38866">
        <ele>6.39</ele>
        <time>2016-08-07T12:02:55Z</time>
      </trkpt>
      <trkpt lat="49.33058" lon="-0.38972">
        <ele>6.39</ele>
        <time>2016-08-07T12:03:08Z</time>
      </trkpt>
      <trkpt lat="49.33077" lon="-0.39042">
        <ele>6.39</ele>
        <time>2016-08-07T12:03:18Z</time>
      </trkpt>
      <trkpt lat="49.33078" lon="-0.39048">
        <ele>6.39</ele>
        <time>2016-08-07T12:03:19Z</time>
      </trkpt>
      <trkpt lat="49.3308" lon="-0.39055">
        <ele>6.87</ele>
        <time>2016-08-07T12:03:20Z</time>
      </trkpt>
      <trkpt lat="49.33085" lon="-0.39076">
        <ele>7.35</ele>
        <time>2016-08-07T12:03:23Z</time>
      </trkpt>
      <trkpt lat="49.33107" lon="-0.39161">
        <ele>7.83</ele>
        <time>2016-08-07T12:03:36Z</time>
      </trkpt>
      <trkpt lat="49.3311" lon="-0.39174">
        <ele>8.31</ele>
        <time>2016-08-07T12:03:38Z</time>
      </trkpt>
      <trkpt lat="49.33113" lon="-0.39179">
        <ele>8.31</ele>
        <time>2016-08-07T12:03:39Z</time>
      </trkpt>
      <trkpt lat="49.33119" lon="-0.39188">
        <ele>8.79</ele>
        <time>2016-08-07T12:03:41Z</time>
      </trkpt>
      <trkpt lat="49.3313" lon="-0.39201">
        <ele>8.79</ele>
        <time>2016-08-07T12:03:44Z</time>
      </trkpt>
      <trkpt lat="49.33134" lon="-0.39207">
        <ele>9.27</ele>
        <time>2016-08-07T12:03:45Z</time>
      </trkpt>
      <trkpt lat="49.33149" lon="-0.3924">
        <ele>9.27</ele>
        <time>2016-08-07T12:03:50Z</time>
      </trkpt>
      <trkpt lat="49.33188" lon="-0.39326">
        <ele>7.83</ele>
        <time>2016-08-07T12:04:03Z</time>
      </trkpt>
      <trkpt lat="49.33191" lon="-0.39333">
        <ele>7.83</ele>
        <time>2016-08-07T12:04:04Z</time>
      </trkpt>
      <trkpt lat="49.33193" lon="-0.3934">
        <ele>7.83</ele>
        <time>2016-08-07T12:04:05Z</time>
      </trkpt>
      <trkpt lat="49.33196" lon="-0.39347">
        <ele>7.83</ele>
        <time>2016-08-07T12:04:06Z</time>
      </trkpt>
      <trkpt lat="49.33199" lon="-0.39354">
        <ele>7.83</ele>
        <time>2016-08-07T12:04:07Z</time>
      </trkpt>
      <trkpt lat="49.33201" lon="-0.39361">
        <ele>8.31</ele>
        <time>2016-08-07T12:04:08Z</time>
      </trkpt>
      <trkpt lat="49.3322" lon="-0.3941">
        <ele>8.79</ele>
        <time>2016-08-07T12:04:15Z</time>
      </trkpt>
      <trkpt lat="49.33223" lon="-0.39416">
        <ele>8.79</ele>
        <time>2016-08-07T12:04:16Z</time>
      </trkpt>
      <trkpt lat="49.33226" lon="-0.39421">
        <ele>8.79</ele>
        <time>2016-08-07T12:04:17Z</time>
      </trkpt>
      <trkpt lat="49.3323" lon="-0.39427">
        <ele>9.27</ele>
        <time>2016-08-07T12:04:18Z</time>
      </trkpt>
      <trkpt lat="49.33232" lon="-0.39434">
        <ele>9.27</ele>
        <time>2016-08-07T12:04:19Z</time>
      </trkpt>
      <trkpt lat="49.33243" lon="-0.3946">
        <ele>9.75</ele>
        <time>2016-08-07T12:04:23Z</time>
      </trkpt>
      <trkpt lat="49.33245" lon="-0.39467">
        <ele>9.75</ele>
        <time>2016-08-07T12:04:24Z</time>
      </trkpt>
      <trkpt lat="49.33247" lon="-0.39475">
        <ele>9.75</ele>
        <time>2016-08-07T12:04:25Z</time>
      </trkpt>
      <trkpt lat="49.33252" lon="-0.39505">
        <ele>9.75</ele>
        <time>2016-08-07T12:04:29Z</time>
      </trkpt>
      <trkpt lat="49.3326" lon="-0.39584">
        <ele>9.75</ele>
        <time>2016-08-07T12:04:39Z</time>
      </trkpt>
      <trkpt lat="49.33259" lon="-0.39592">
        <ele>9.75</ele>
        <time>2016-08-07T12:04:40Z</time>
      </trkpt>
      <trkpt lat="49.33258" lon="-0.39599">
        <ele>9.75</ele>
        <time>2016-08-07T12:04:41Z</time>
      </trkpt>
      <trkpt lat="49.33258" lon="-0.39608">
        <ele>9.75</ele>
        <time>2016-08-07T12:04:42Z</time>
      </trkpt>
      <trkpt lat="49.33258" lon="-0.39616">
        <ele>9.75</ele>
        <time>2016-08-07T12:04:43Z</time>
      </trkpt>
      <trkpt lat="49.33259" lon="-0.39624">
        <ele>10.23</ele>
        <time>2016-08-07T12:04:44Z</time>
      </trkpt>
      <trkpt lat="49.3326" lon="-0.39633">
        <ele>10.23</ele>
        <time>2016-08-07T12:04:45Z</time>
      </trkpt>
      <trkpt lat="49.33267" lon="-0.39696">
        <ele>9.75</ele>
        <time>2016-08-07T12:04:52Z</time>
      </trkpt>
      <trkpt lat="49.33278" lon="-0.39826">
        <ele>9.75</ele>
        <time>2016-08-07T12:05:06Z</time>
      </trkpt>
      <trkpt lat="49.33292" lon="-0.39954">
        <ele>9.75</ele>
        <time>2016-08-07T12:05:20Z</time>
      </trkpt>
      <trkpt lat="49.33308" lon="-0.40114">
        <ele>9.75</ele>
        <time>2016-08-07T12:05:38Z</time>
      </trkpt>
      <trkpt lat="49.33317" lon="-0.40253">
        <ele>8.79</ele>
        <time>2016-08-07T12:05:53Z</time>
      </trkpt>
      <trkpt lat="49.33325" lon="-0.40372">
        <ele>6.87</ele>
        <time>2016-08-07T12:06:05Z</time>
      </trkpt>
      <trkpt lat="49.33339" lon="-0.40518">
        <ele>4.46</ele>
        <time>2016-08-07T12:06:20Z</time>
      </trkpt>
      <trkpt lat="49.33348" lon="-0.40692">
        <ele>3.98</ele>
        <time>2016-08-07T12:06:38Z</time>
      </trkpt>
      <trkpt lat="49.33358" lon="-0.40738">
        <ele>4.46</ele>
        <time>2016-08-07T12:06:43Z</time>
      </trkpt>
      <trkpt lat="49.33408" lon="-0.4089">
        <ele>4.46</ele>
        <time>2016-08-07T12:07:00Z</time>
      </trkpt>
      <trkpt lat="49.3344" lon="-0.41039">
        <ele>4.46</ele>
        <time>2016-08-07T12:07:17Z</time>
      </trkpt>
      <trkpt lat="49.33451" lon="-0.41172">
        <ele>3.98</ele>
        <time>2016-08-07T12:07:32Z</time>
      </trkpt>
      <trkpt lat="49.33458" lon="-0.41291">
        <ele>3.98</ele>
        <time>2016-08-07T12:07:46Z</time>
      </trkpt>
      <trkpt lat="49.3346" lon="-0.41325">
        <ele>4.46</ele>
        <time>2016-08-07T12:07:50Z</time>
      </trkpt>
      <trkpt lat="49.3346" lon="-0.41342">
        <ele>4.94</ele>
        <time>2016-08-07T12:07:52Z</time>
      </trkpt>
      <trkpt lat="49.33469" lon="-0.41485">
        <ele>4.94</ele>
        <time>2016-08-07T12:08:09Z</time>
      </trkpt>
      <trkpt lat="49.33474" lon="-0.41584">
        <ele>4.94</ele>
        <time>2016-08-07T12:08:21Z</time>
      </trkpt>
      <trkpt lat="49.33474" lon="-0.41591">
        <ele>4.94</ele>
        <time>2016-08-07T12:08:22Z</time>
      </trkpt>
      <trkpt lat="49.33474" lon="-0.41599">
        <ele>4.94</ele>
        <time>2016-08-07T12:08:23Z</time>
      </trkpt>
      <trkpt lat="49.33475" lon="-0.41714">
        <ele>4.94</ele>
        <time>2016-08-07T12:08:41Z</time>
      </trkpt>
      <trkpt lat="49.33475" lon="-0.41743">
        <ele>5.42</ele>
        <time>2016-08-07T12:08:47Z</time>
      </trkpt>
      <trkpt lat="49.33475" lon="-0.4175">
        <ele>5.42</ele>
        <time>2016-08-07T12:08:48Z</time>
      </trkpt>
      <trkpt lat="49.33475" lon="-0.41781">
        <ele>5.42</ele>
        <time>2016-08-07T12:08:52Z</time>
      </trkpt>
      <trkpt lat="49.33475" lon="-0.4179">
        <ele>4.94</ele>
        <time>2016-08-07T12:08:53Z</time>
      </trkpt>
      <trkpt lat="49.33474" lon="-0.41798">
        <ele>4.94</ele>
        <time>2016-08-07T12:08:54Z</time>
      </trkpt>
      <trkpt lat="49.33473" lon="-0.41853">
        <ele>4.94</ele>
        <time>2016-08-07T12:09:01Z</time>
      </trkpt>
      <trkpt lat="49.33474" lon="-0.41861">
        <ele>4.94</ele>
        <time>2016-08-07T12:09:02Z</time>
      </trkpt>
      <trkpt lat="49.33473" lon="-0.41869">
        <ele>4.94</ele>
        <time>2016-08-07T12:09:03Z</time>
      </trkpt>
      <trkpt lat="49.33473" lon="-0.41877">
        <ele>4.94</ele>
        <time>2016-08-07T12:09:04Z</time>
      </trkpt>
      <trkpt lat="49.33473" lon="-0.41886">
        <ele>4.94</ele>
        <time>2016-08-07T12:09:05Z</time>
      </trkpt>
      <trkpt lat="49.33478" lon="-0.42019">
        <ele>4.46</ele>
        <time>2016-08-07T12:09:21Z</time>
      </trkpt>
      <trkpt lat="49.33479" lon="-0.42043">
        <ele>4.46</ele>
        <time>2016-08-07T12:09:24Z</time>
      </trkpt>
      <trkpt lat="49.33479" lon="-0.42168">
        <ele>5.42</ele>
        <time>2016-08-07T12:09:40Z</time>
      </trkpt>
      <trkpt lat="49.33483" lon="-0.42274">
        <ele>6.39</ele>
        <time>2016-08-07T12:09:54Z</time>
      </trkpt>
      <trkpt lat="49.33485" lon="-0.42304">
        <ele>6.87</ele>
        <time>2016-08-07T12:09:58Z</time>
      </trkpt>
      <trkpt lat="49.33492" lon="-0.42426">
        <ele>6.39</ele>
        <time>2016-08-07T12:10:14Z</time>
      </trkpt>
      <trkpt lat="49.33495" lon="-0.42465">
        <ele>6.39</ele>
        <time>2016-08-07T12:10:19Z</time>
      </trkpt>
      <trkpt lat="49.33495" lon="-0.42473">
        <ele>6.39</ele>
        <time>2016-08-07T12:10:20Z</time>
      </trkpt>
      <trkpt lat="49.33493" lon="-0.42547">
        <ele>6.87</ele>
        <time>2016-08-07T12:10:29Z</time>
      </trkpt>
      <trkpt lat="49.33485" lon="-0.42587">
        <ele>7.35</ele>
        <time>2016-08-07T12:10:34Z</time>
      </trkpt>
      <trkpt lat="49.33426" lon="-0.42673">
        <ele>7.35</ele>
        <time>2016-08-07T12:10:47Z</time>
      </trkpt>
      <trkpt lat="49.3334" lon="-0.42754">
        <ele>7.35</ele>
        <time>2016-08-07T12:11:02Z</time>
      </trkpt>
      <trkpt lat="49.33276" lon="-0.42823">
        <ele>6.39</ele>
        <time>2016-08-07T12:11:14Z</time>
      </trkpt>
      <trkpt lat="49.33271" lon="-0.4283">
        <ele>6.39</ele>
        <time>2016-08-07T12:11:15Z</time>
      </trkpt>
      <trkpt lat="49.33221" lon="-0.42943">
        <ele>6.39</ele>
        <time>2016-08-07T12:11:29Z</time>
      </trkpt>
      <trkpt lat="49.3317" lon="-0.43094">
        <ele>7.83</ele>
        <time>2016-08-07T12:11:47Z</time>
      </trkpt>
      <trkpt lat="49.33138" lon="-0.43146">
        <ele>9.75</ele>
        <time>2016-08-07T12:11:55Z</time>
      </trkpt>
      <trkpt lat="49.33134" lon="-0.43151">
        <ele>9.75</ele>
        <time>2016-08-07T12:11:56Z</time>
      </trkpt>
      <trkpt lat="49.33057" lon="-0.43216">
        <ele>11.19</ele>
        <time>2016-08-07T12:12:11Z</time>
      </trkpt>
      <trkpt lat="49.32988" lon="-0.43294">
        <ele>13.12</ele>
        <time>2016-08-07T12:12:27Z</time>
      </trkpt>
      <trkpt lat="49.32953" lon="-0.43395">
        <ele>13.6</ele>
        <time>2016-08-07T12:12:41Z</time>
      </trkpt>
      <trkpt lat="49.32947" lon="-0.43435">
        <ele>14.08</ele>
        <time>2016-08-07T12:12:46Z</time>
      </trkpt>
      <trkpt lat="49.32947" lon="-0.43459">
        <ele>14.08</ele>
        <time>2016-08-07T12:12:49Z</time>
      </trkpt>
      <trkpt lat="49.32952" lon="-0.43583">
        <ele>13.12</ele>
        <time>2016-08-07T12:13:04Z</time>
      </trkpt>
      <trkpt lat="49.32963" lon="-0.43734">
        <ele>13.12</ele>
        <time>2016-08-07T12:13:22Z</time>
      </trkpt>
      <trkpt lat="49.32971" lon="-0.43859">
        <ele>13.6</ele>
        <time>2016-08-07T12:13:37Z</time>
      </trkpt>
      <trkpt lat="49.32971" lon="-0.43868">
        <ele>13.6</ele>
        <time>2016-08-07T12:13:38Z</time>
      </trkpt>
      <trkpt lat="49.32981" lon="-0.44023">
        <ele>13.12</ele>
        <time>2016-08-07T12:13:55Z</time>
      </trkpt>
      <trkpt lat="49.32991" lon="-0.44158">
        <ele>12.63</ele>
        <time>2016-08-07T12:14:10Z</time>
      </trkpt>
      <trkpt lat="49.32998" lon="-0.44267">
        <ele>12.63</ele>
        <time>2016-08-07T12:14:22Z</time>
      </trkpt>
      <trkpt lat="49.32998" lon="-0.44276">
        <ele>12.63</ele>
        <time>2016-08-07T12:14:23Z</time>
      </trkpt>
      <trkpt lat="49.33008" lon="-0.44403">
        <ele>12.15</ele>
        <time>2016-08-07T12:14:37Z</time>
      </trkpt>
      <trkpt lat="49.33016" lon="-0.44544">
        <ele>11.19</ele>
        <time>2016-08-07T12:14:53Z</time>
      </trkpt>
      <trkpt lat="49.33017" lon="-0.44559">
        <ele>11.67</ele>
        <time>2016-08-07T12:14:55Z</time>
      </trkpt>
      <trkpt lat="49.33018" lon="-0.44567">
        <ele>11.67</ele>
        <time>2016-08-07T12:14:56Z</time>
      </trkpt>
      <trkpt lat="49.33027" lon="-0.44719">
        <ele>11.67</ele>
        <time>2016-08-07T12:15:14Z</time>
      </trkpt>
      <trkpt lat="49.33035" lon="-0.44845">
        <ele>11.67</ele>
        <time>2016-08-07T12:15:28Z</time>
      </trkpt>
      <trkpt lat="49.33039" lon="-0.44977">
        <ele>11.67</ele>
        <time>2016-08-07T12:15:43Z</time>
      </trkpt>
      <trkpt lat="49.33031" lon="-0.45018">
        <ele>11.19</ele>
        <time>2016-08-07T12:15:48Z</time>
      </trkpt>
      <trkpt lat="49.33003" lon="-0.45136">
        <ele>12.63</ele>
        <time>2016-08-07T12:16:02Z</time>
      </trkpt>
      <trkpt lat="49.32999" lon="-0.45191">
        <ele>12.15</ele>
        <time>2016-08-07T12:16:13Z</time>
      </trkpt>
      <trkpt lat="49.32999" lon="-0.45207">
        <ele>11.67</ele>
        <time>2016-08-07T12:16:22Z</time>
      </trkpt>
      <trkpt lat="49.32999" lon="-0.4521">
        <ele>11.19</ele>
        <time>2016-08-07T12:16:23Z</time>
      </trkpt>
      <trkpt lat="49.33002" lon="-0.45241">
        <ele>9.75</ele>
        <time>2016-08-07T12:16:30Z</time>
      </trkpt>
      <trkpt lat="49.33005" lon="-0.45243">
        <ele>9.75</ele>
        <time>2016-08-07T12:16:31Z</time>
      </trkpt>
      <trkpt lat="49.33009" lon="-0.45243">
        <ele>9.75</ele>
        <time>2016-08-07T12:16:32Z</time>
      </trkpt>
      <trkpt lat="49.33014" lon="-0.45244">
        <ele>9.75</ele>
        <time>2016-08-07T12:16:33Z</time>
      </trkpt>
      <trkpt lat="49.3302" lon="-0.45246">
        <ele>10.23</ele>
        <time>2016-08-07T12:16:34Z</time>
      </trkpt>
      <trkpt lat="49.33026" lon="-0.45246">
        <ele>10.23</ele>
        <time>2016-08-07T12:16:35Z</time>
      </trkpt>
      <trkpt lat="49.33033" lon="-0.45246">
        <ele>10.23</ele>
        <time>2016-08-07T12:16:36Z</time>
      </trkpt>
      <trkpt lat="49.33124" lon="-0.45258">
        <ele>8.79</ele>
        <time>2016-08-07T12:16:48Z</time>
      </trkpt>
      <trkpt lat="49.33169" lon="-0.45264">
        <ele>7.83</ele>
        <time>2016-08-07T12:16:54Z</time>
      </trkpt>
      <trkpt lat="49.33177" lon="-0.45262">
        <ele>7.83</ele>
        <time>2016-08-07T12:16:55Z</time>
      </trkpt>
      <trkpt lat="49.33259" lon="-0.45238">
        <ele>6.39</ele>
        <time>2016-08-07T12:17:08Z</time>
      </trkpt>
      <trkpt lat="49.3326" lon="-0.45235">
        <ele>6.39</ele>
        <time>2016-08-07T12:17:09Z</time>
      </trkpt>
      <trkpt lat="49.3326" lon="-0.4523">
        <ele>6.39</ele>
        <time>2016-08-07T12:17:10Z</time>
      </trkpt>
      <trkpt lat="49.33262" lon="-0.45218">
        <ele>6.87</ele>
        <time>2016-08-07T12:17:12Z</time>
      </trkpt>
      <trkpt lat="49.33265" lon="-0.45212">
        <ele>6.87</ele>
        <time>2016-08-07T12:17:13Z</time>
      </trkpt>
      <trkpt lat="49.33269" lon="-0.45209">
        <ele>6.87</ele>
        <time>2016-08-07T12:17:14Z</time>
      </trkpt>
      <trkpt lat="49.33274" lon="-0.45207">
        <ele>6.87</ele>
        <time>2016-08-07T12:17:15Z</time>
      </trkpt>
      <trkpt lat="49.33278" lon="-0.45206">
        <ele>6.39</ele>
        <time>2016-08-07T12:17:16Z</time>
      </trkpt>
      <trkpt lat="49.33283" lon="-0.45204">
        <ele>6.39</ele>
        <time>2016-08-07T12:17:17Z</time>
      </trkpt>
      <trkpt lat="49.33287" lon="-0.45203">
        <ele>6.39</ele>
        <time>2016-08-07T12:17:18Z</time>
      </trkpt>
      <trkpt lat="49.33292" lon="-0.45201">
        <ele>6.39</ele>
        <time>2016-08-07T12:17:19Z</time>
      </trkpt>
      <trkpt lat="49.33305" lon="-0.45198">
        <ele>6.39</ele>
        <time>2016-08-07T12:17:22Z</time>
      </trkpt>
      <trkpt lat="49.33309" lon="-0.45195">
        <ele>6.39</ele>
        <time>2016-08-07T12:17:23Z</time>
      </trkpt>
      <trkpt lat="49.33311" lon="-0.45188">
        <ele>6.39</ele>
        <time>2016-08-07T12:17:24Z</time>
      </trkpt>
      <trkpt lat="49.3331" lon="-0.45181">
        <ele>6.39</ele>
        <time>2016-08-07T12:17:25Z</time>
      </trkpt>
      <trkpt lat="49.3331" lon="-0.45173">
        <ele>6.87</ele>
        <time>2016-08-07T12:17:26Z</time>
      </trkpt>
      <trkpt lat="49.33303" lon="-0.45109">
        <ele>7.35</ele>
        <time>2016-08-07T12:17:33Z</time>
      </trkpt>
      <trkpt lat="49.33304" lon="-0.451">
        <ele>7.35</ele>
        <time>2016-08-07T12:17:34Z</time>
      </trkpt>
      <trkpt lat="49.33307" lon="-0.45093">
        <ele>7.35</ele>
        <time>2016-08-07T12:17:35Z</time>
      </trkpt>
      <trkpt lat="49.33313" lon="-0.45089">
        <ele>7.35</ele>
        <time>2016-08-07T12:17:36Z</time>
      </trkpt>
      <trkpt lat="49.33318" lon="-0.45087">
        <ele>7.35</ele>
        <time>2016-08-07T12:17:37Z</time>
      </trkpt>
      <trkpt lat="49.33324" lon="-0.45086">
        <ele>7.35</ele>
        <time>2016-08-07T12:17:38Z</time>
      </trkpt>
      <trkpt lat="49.33355" lon="-0.45077">
        <ele>6.39</ele>
        <time>2016-08-07T12:17:47Z</time>
      </trkpt>
      <trkpt lat="49.33355" lon="-0.45077">
        <ele>6.39</ele>
        <time>2016-08-07T12:17:48Z</time>
      </trkpt>
      <trkpt lat="49.33357" lon="-0.45083">
        <ele>6.39</ele>
        <time>2016-08-07T12:17:50Z</time>
      </trkpt>
      <trkpt lat="49.33358" lon="-0.45087">
        <ele>5.91</ele>
        <time>2016-08-07T12:17:51Z</time>
      </trkpt>
      <trkpt lat="49.3336" lon="-0.45099">
        <ele>5.42</ele>
        <time>2016-08-07T12:17:53Z</time>
      </trkpt>
      <trkpt lat="49.33361" lon="-0.45107">
        <ele>5.42</ele>
        <time>2016-08-07T12:17:54Z</time>
      </trkpt>
      <trkpt lat="49.33362" lon="-0.45115">
        <ele>4.94</ele>
        <time>2016-08-07T12:17:55Z</time>
      </trkpt>
      <trkpt lat="49.33363" lon="-0.45123">
        <ele>4.94</ele>
        <time>2016-08-07T12:17:56Z</time>
      </trkpt>
      <trkpt lat="49.33365" lon="-0.45131">
        <ele>4.94</ele>
        <time>2016-08-07T12:17:57Z</time>
      </trkpt>
      <trkpt lat="49.33368" lon="-0.45156">
        <ele>4.94</ele>
        <time>2016-08-07T12:18:00Z</time>
      </trkpt>
      <trkpt lat="49.33369" lon="-0.45165">
        <ele>4.94</ele>
        <time>2016-08-07T12:18:01Z</time>
      </trkpt>
      <trkpt lat="49.3338" lon="-0.45267">
        <ele>5.91</ele>
        <time>2016-08-07T12:18:15Z</time>
      </trkpt>
      <trkpt lat="49.33381" lon="-0.45276">
        <ele>5.91</ele>
        <time>2016-08-07T12:18:17Z</time>
      </trkpt>
      <trkpt lat="49.33384" lon="-0.45278">
        <ele>5.42</ele>
        <time>2016-08-07T12:18:18Z</time>
      </trkpt>
      <trkpt lat="49.33387" lon="-0.45279">
        <ele>5.42</ele>
        <time>2016-08-07T12:18:19Z</time>
      </trkpt>
      <trkpt lat="49.33391" lon="-0.45277">
        <ele>4.94</ele>
        <time>2016-08-07T12:18:20Z</time>
      </trkpt>
      <trkpt lat="49.33394" lon="-0.45275">
        <ele>4.94</ele>
        <time>2016-08-07T12:18:21Z</time>
      </trkpt>
      <trkpt lat="49.33397" lon="-0.45274">
        <ele>4.46</ele>
        <time>2016-08-07T12:18:22Z</time>
      </trkpt>
      <trkpt lat="49.33401" lon="-0.45272">
        <ele>4.46</ele>
        <time>2016-08-07T12:18:23Z</time>
      </trkpt>
      <trkpt lat="49.33404" lon="-0.45271">
        <ele>4.46</ele>
        <time>2016-08-07T12:18:24Z</time>
      </trkpt>
      <trkpt lat="49.33463" lon="-0.45254">
        <ele>4.46</ele>
        <time>2016-08-07T12:18:38Z</time>
      </trkpt>
      <trkpt lat="49.33501" lon="-0.45243">
        <ele>4.94</ele>
        <time>2016-08-07T12:18:49Z</time>
      </trkpt>
      <trkpt lat="49.33512" lon="-0.45243">
        <ele>5.42</ele>
        <time>2016-08-07T12:18:55Z</time>
      </trkpt>
      <trkpt lat="49.33513" lon="-0.45247">
        <ele>5.91</ele>
        <time>2016-08-07T12:18:56Z</time>
      </trkpt>
      <trkpt lat="49.33527" lon="-0.45334">
        <ele>4.94</ele>
        <time>2016-08-07T12:19:07Z</time>
      </trkpt>
      <trkpt lat="49.33535" lon="-0.4541">
        <ele>6.39</ele>
        <time>2016-08-07T12:19:16Z</time>
      </trkpt>
      <trkpt lat="49.33549" lon="-0.45542">
        <ele>7.83</ele>
        <time>2016-08-07T12:19:32Z</time>
      </trkpt>
      <trkpt lat="49.33558" lon="-0.45608">
        <ele>8.31</ele>
        <time>2016-08-07T12:19:40Z</time>
      </trkpt>
      <trkpt lat="49.33563" lon="-0.45658">
        <ele>8.79</ele>
        <time>2016-08-07T12:19:46Z</time>
      </trkpt>
      <trkpt lat="49.33567" lon="-0.4569">
        <ele>8.31</ele>
        <time>2016-08-07T12:19:50Z</time>
      </trkpt>
      <trkpt lat="49.33568" lon="-0.45698">
        <ele>8.31</ele>
        <time>2016-08-07T12:19:51Z</time>
      </trkpt>
      <trkpt lat="49.33569" lon="-0.45772">
        <ele>8.31</ele>
        <time>2016-08-07T12:20:02Z</time>
      </trkpt>
      <trkpt lat="49.33566" lon="-0.45775">
        <ele>8.79</ele>
        <time>2016-08-07T12:20:03Z</time>
      </trkpt>
      <trkpt lat="49.33562" lon="-0.45776">
        <ele>8.79</ele>
        <time>2016-08-07T12:20:04Z</time>
      </trkpt>
      <trkpt lat="49.33557" lon="-0.45777">
        <ele>8.79</ele>
        <time>2016-08-07T12:20:05Z</time>
      </trkpt>
      <trkpt lat="49.33553" lon="-0.45777">
        <ele>8.79</ele>
        <time>2016-08-07T12:20:06Z</time>
      </trkpt>
      <trkpt lat="49.33543" lon="-0.45778">
        <ele>8.31</ele>
        <time>2016-08-07T12:20:08Z</time>
      </trkpt>
      <trkpt lat="49.33535" lon="-0.45777">
        <ele>7.83</ele>
        <time>2016-08-07T12:20:10Z</time>
      </trkpt>
      <trkpt lat="49.33517" lon="-0.45778">
        <ele>7.35</ele>
        <time>2016-08-07T12:20:14Z</time>
      </trkpt>
      <trkpt lat="49.33513" lon="-0.45778">
        <ele>7.35</ele>
        <time>2016-08-07T12:20:15Z</time>
      </trkpt>
      <trkpt lat="49.33508" lon="-0.45778">
        <ele>7.83</ele>
        <time>2016-08-07T12:20:16Z</time>
      </trkpt>
      <trkpt lat="49.33438" lon="-0.45782">
        <ele>6.39</ele>
        <time>2016-08-07T12:20:30Z</time>
      </trkpt>
      <trkpt lat="49.33424" lon="-0.45784">
        <ele>6.87</ele>
        <time>2016-08-07T12:20:33Z</time>
      </trkpt>
      <trkpt lat="49.33419" lon="-0.45786">
        <ele>6.87</ele>
        <time>2016-08-07T12:20:34Z</time>
      </trkpt>
      <trkpt lat="49.33416" lon="-0.4579">
        <ele>7.35</ele>
        <time>2016-08-07T12:20:35Z</time>
      </trkpt>
      <trkpt lat="49.33413" lon="-0.45796">
        <ele>7.35</ele>
        <time>2016-08-07T12:20:36Z</time>
      </trkpt>
      <trkpt lat="49.33412" lon="-0.45803">
        <ele>7.35</ele>
        <time>2016-08-07T12:20:37Z</time>
      </trkpt>
      <trkpt lat="49.33412" lon="-0.45811">
        <ele>7.83</ele>
        <time>2016-08-07T12:20:38Z</time>
      </trkpt>
      <trkpt lat="49.33412" lon="-0.45819">
        <ele>7.83</ele>
        <time>2016-08-07T12:20:39Z</time>
      </trkpt>
      <trkpt lat="49.33411" lon="-0.45827">
        <ele>7.83</ele>
        <time>2016-08-07T12:20:40Z</time>
      </trkpt>
      <trkpt lat="49.3341" lon="-0.45835">
        <ele>7.83</ele>
        <time>2016-08-07T12:20:41Z</time>
      </trkpt>
      <trkpt lat="49.33397" lon="-0.45885">
        <ele>9.27</ele>
        <time>2016-08-07T12:20:47Z</time>
      </trkpt>
      <trkpt lat="49.33394" lon="-0.45892">
        <ele>9.75</ele>
        <time>2016-08-07T12:20:48Z</time>
      </trkpt>
      <trkpt lat="49.3339" lon="-0.459">
        <ele>9.75</ele>
        <time>2016-08-07T12:20:49Z</time>
      </trkpt>
      <trkpt lat="49.33387" lon="-0.45906">
        <ele>10.23</ele>
        <time>2016-08-07T12:20:50Z</time>
      </trkpt>
      <trkpt lat="49.33382" lon="-0.45912">
        <ele>10.23</ele>
        <time>2016-08-07T12:20:51Z</time>
      </trkpt>
      <trkpt lat="49.33377" lon="-0.45917">
        <ele>10.71</ele>
        <time>2016-08-07T12:20:52Z</time>
      </trkpt>
      <trkpt lat="49.33345" lon="-0.45949">
        <ele>9.75</ele>
        <time>2016-08-07T12:20:58Z</time>
      </trkpt>
      <trkpt lat="49.3334" lon="-0.45956">
        <ele>9.75</ele>
        <time>2016-08-07T12:20:59Z</time>
      </trkpt>
      <trkpt lat="49.33336" lon="-0.45963">
        <ele>9.75</ele>
        <time>2016-08-07T12:21:00Z</time>
      </trkpt>
      <trkpt lat="49.3332" lon="-0.46013">
        <ele>9.27</ele>
        <time>2016-08-07T12:21:06Z</time>
      </trkpt>
      <trkpt lat="49.33319" lon="-0.46023">
        <ele>9.75</ele>
        <time>2016-08-07T12:21:07Z</time>
      </trkpt>
      <trkpt lat="49.33318" lon="-0.46033">
        <ele>9.75</ele>
        <time>2016-08-07T12:21:08Z</time>
      </trkpt>
      <trkpt lat="49.33318" lon="-0.46043">
        <ele>9.75</ele>
        <time>2016-08-07T12:21:09Z</time>
      </trkpt>
      <trkpt lat="49.33319" lon="-0.46053">
        <ele>9.75</ele>
        <time>2016-08-07T12:21:10Z</time>
      </trkpt>
      <trkpt lat="49.33321" lon="-0.46062">
        <ele>9.75</ele>
        <time>2016-08-07T12:21:11Z</time>
      </trkpt>
      <trkpt lat="49.33323" lon="-0.46071">
        <ele>9.75</ele>
        <time>2016-08-07T12:21:12Z</time>
      </trkpt>
      <trkpt lat="49.33326" lon="-0.4608">
        <ele>9.75</ele>
        <time>2016-08-07T12:21:13Z</time>
      </trkpt>
      <trkpt lat="49.33329" lon="-0.46088">
        <ele>9.75</ele>
        <time>2016-08-07T12:21:14Z</time>
      </trkpt>
      <trkpt lat="49.33332" lon="-0.46095">
        <ele>9.75</ele>
        <time>2016-08-07T12:21:15Z</time>
      </trkpt>
      <trkpt lat="49.33336" lon="-0.46101">
        <ele>9.27</ele>
        <time>2016-08-07T12:21:16Z</time>
      </trkpt>
      <trkpt lat="49.33339" lon="-0.46107">
        <ele>9.75</ele>
        <time>2016-08-07T12:21:17Z</time>
      </trkpt>
      <trkpt lat="49.33342" lon="-0.46112">
        <ele>9.75</ele>
        <time>2016-08-07T12:21:18Z</time>
      </trkpt>
      <trkpt lat="49.33344" lon="-0.46118">
        <ele>9.75</ele>
        <time>2016-08-07T12:21:19Z</time>
      </trkpt>
      <trkpt lat="49.33354" lon="-0.46141">
        <ele>9.75</ele>
        <time>2016-08-07T12:21:24Z</time>
      </trkpt>
      <trkpt lat="49.33353" lon="-0.46145">
        <ele>9.75</ele>
        <time>2016-08-07T12:21:25Z</time>
      </trkpt>
      <trkpt lat="49.33352" lon="-0.46148">
        <ele>10.23</ele>
        <time>2016-08-07T12:21:26Z</time>
      </trkpt>
      <trkpt lat="49.3335" lon="-0.4615">
        <ele>9.75</ele>
        <time>2016-08-07T12:21:27Z</time>
      </trkpt>
      <trkpt lat="49.33346" lon="-0.46152">
        <ele>9.75</ele>
        <time>2016-08-07T12:21:28Z</time>
      </trkpt>
      <trkpt lat="49.33343" lon="-0.46153">
        <ele>9.27</ele>
        <time>2016-08-07T12:21:29Z</time>
      </trkpt>
      <trkpt lat="49.33306" lon="-0.46181">
        <ele>7.35</ele>
        <time>2016-08-07T12:21:41Z</time>
      </trkpt>
      <trkpt lat="49.33283" lon="-0.46214">
        <ele>8.31</ele>
        <time>2016-08-07T12:21:48Z</time>
      </trkpt>
      <trkpt lat="49.33222" lon="-0.46298">
        <ele>8.31</ele>
        <time>2016-08-07T12:22:02Z</time>
      </trkpt>
      <trkpt lat="49.33163" lon="-0.46387">
        <ele>9.75</ele>
        <time>2016-08-07T12:22:16Z</time>
      </trkpt>
      <trkpt lat="49.33159" lon="-0.46394">
        <ele>9.75</ele>
        <time>2016-08-07T12:22:17Z</time>
      </trkpt>
      <trkpt lat="49.33156" lon="-0.46402">
        <ele>9.75</ele>
        <time>2016-08-07T12:22:18Z</time>
      </trkpt>
      <trkpt lat="49.33154" lon="-0.46411">
        <ele>9.27</ele>
        <time>2016-08-07T12:22:19Z</time>
      </trkpt>
      <trkpt lat="49.33153" lon="-0.46421">
        <ele>9.27</ele>
        <time>2016-08-07T12:22:20Z</time>
      </trkpt>
      <trkpt lat="49.33153" lon="-0.46431">
        <ele>8.79</ele>
        <time>2016-08-07T12:22:21Z</time>
      </trkpt>
      <trkpt lat="49.33154" lon="-0.46441">
        <ele>8.79</ele>
        <time>2016-08-07T12:22:22Z</time>
      </trkpt>
      <trkpt lat="49.33157" lon="-0.4645">
        <ele>8.31</ele>
        <time>2016-08-07T12:22:23Z</time>
      </trkpt>
      <trkpt lat="49.33161" lon="-0.46458">
        <ele>8.79</ele>
        <time>2016-08-07T12:22:24Z</time>
      </trkpt>
      <trkpt lat="49.33165" lon="-0.46465">
        <ele>8.79</ele>
        <time>2016-08-07T12:22:25Z</time>
      </trkpt>
      <trkpt lat="49.33175" lon="-0.46478">
        <ele>8.79</ele>
        <time>2016-08-07T12:22:27Z</time>
      </trkpt>
      <trkpt lat="49.3318" lon="-0.46483">
        <ele>8.79</ele>
        <time>2016-08-07T12:22:28Z</time>
      </trkpt>
      <trkpt lat="49.33186" lon="-0.46485">
        <ele>8.79</ele>
        <time>2016-08-07T12:22:29Z</time>
      </trkpt>
      <trkpt lat="49.33192" lon="-0.46485">
        <ele>8.31</ele>
        <time>2016-08-07T12:22:30Z</time>
      </trkpt>
      <trkpt lat="49.33199" lon="-0.46483">
        <ele>8.31</ele>
        <time>2016-08-07T12:22:31Z</time>
      </trkpt>
      <trkpt lat="49.33205" lon="-0.4648">
        <ele>8.31</ele>
        <time>2016-08-07T12:22:32Z</time>
      </trkpt>
      <trkpt lat="49.3321" lon="-0.46475">
        <ele>8.79</ele>
        <time>2016-08-07T12:22:33Z</time>
      </trkpt>
      <trkpt lat="49.33216" lon="-0.46469">
        <ele>8.31</ele>
        <time>2016-08-07T12:22:34Z</time>
      </trkpt>
      <trkpt lat="49.33221" lon="-0.46462">
        <ele>8.31</ele>
        <time>2016-08-07T12:22:35Z</time>
      </trkpt>
      <trkpt lat="49.333" lon="-0.46352">
        <ele>8.79</ele>
        <time>2016-08-07T12:22:50Z</time>
      </trkpt>
      <trkpt lat="49.3337" lon="-0.46251">
        <ele>7.35</ele>
        <time>2016-08-07T12:23:04Z</time>
      </trkpt>
      <trkpt lat="49.33381" lon="-0.46239">
        <ele>7.83</ele>
        <time>2016-08-07T12:23:08Z</time>
      </trkpt>
      <trkpt lat="49.33391" lon="-0.46225">
        <ele>8.31</ele>
        <time>2016-08-07T12:23:11Z</time>
      </trkpt>
      <trkpt lat="49.33395" lon="-0.46221">
        <ele>8.31</ele>
        <time>2016-08-07T12:23:12Z</time>
      </trkpt>
      <trkpt lat="49.334" lon="-0.46221">
        <ele>8.31</ele>
        <time>2016-08-07T12:23:13Z</time>
      </trkpt>
      <trkpt lat="49.33405" lon="-0.46223">
        <ele>8.31</ele>
        <time>2016-08-07T12:23:14Z</time>
      </trkpt>
      <trkpt lat="49.33411" lon="-0.46227">
        <ele>7.83</ele>
        <time>2016-08-07T12:23:15Z</time>
      </trkpt>
      <trkpt lat="49.33422" lon="-0.46235">
        <ele>7.35</ele>
        <time>2016-08-07T12:23:17Z</time>
      </trkpt>
      <trkpt lat="49.33434" lon="-0.46241">
        <ele>7.35</ele>
        <time>2016-08-07T12:23:19Z</time>
      </trkpt>
      <trkpt lat="49.3344" lon="-0.46245">
        <ele>7.35</ele>
        <time>2016-08-07T12:23:20Z</time>
      </trkpt>
      <trkpt lat="49.33446" lon="-0.4625">
        <ele>7.35</ele>
        <time>2016-08-07T12:23:21Z</time>
      </trkpt>
      <trkpt lat="49.33451" lon="-0.46256">
        <ele>7.83</ele>
        <time>2016-08-07T12:23:22Z</time>
      </trkpt>
      <trkpt lat="49.33456" lon="-0.46263">
        <ele>7.83</ele>
        <time>2016-08-07T12:23:23Z</time>
      </trkpt>
      <trkpt lat="49.3346" lon="-0.4627">
        <ele>7.83</ele>
        <time>2016-08-07T12:23:24Z</time>
      </trkpt>
      <trkpt lat="49.33464" lon="-0.46278">
        <ele>7.83</ele>
        <time>2016-08-07T12:23:25Z</time>
      </trkpt>
      <trkpt lat="49.33467" lon="-0.46287">
        <ele>7.83</ele>
        <time>2016-08-07T12:23:26Z</time>
      </trkpt>
      <trkpt lat="49.33469" lon="-0.46296">
        <ele>7.83</ele>
        <time>2016-08-07T12:23:27Z</time>
      </trkpt>
      <trkpt lat="49.3347" lon="-0.46306">
        <ele>8.31</ele>
        <time>2016-08-07T12:23:28Z</time>
      </trkpt>
      <trkpt lat="49.33471" lon="-0.46316">
        <ele>8.31</ele>
        <time>2016-08-07T12:23:29Z</time>
      </trkpt>
      <trkpt lat="49.33472" lon="-0.46326">
        <ele>8.31</ele>
        <time>2016-08-07T12:23:30Z</time>
      </trkpt>
      <trkpt lat="49.33478" lon="-0.46479">
        <ele>7.35</ele>
        <time>2016-08-07T12:23:45Z</time>
      </trkpt>
      <trkpt lat="49.33478" lon="-0.46488">
        <ele>7.35</ele>
        <time>2016-08-07T12:23:46Z</time>
      </trkpt>
      <trkpt lat="49.3348" lon="-0.46538">
        <ele>7.83</ele>
        <time>2016-08-07T12:23:52Z</time>
      </trkpt>
      <trkpt lat="49.33482" lon="-0.46544">
        <ele>7.83</ele>
        <time>2016-08-07T12:23:53Z</time>
      </trkpt>
      <trkpt lat="49.33485" lon="-0.4655">
        <ele>7.83</ele>
        <time>2016-08-07T12:23:54Z</time>
      </trkpt>
      <trkpt lat="49.33489" lon="-0.46554">
        <ele>7.83</ele>
        <time>2016-08-07T12:23:55Z</time>
      </trkpt>
      <trkpt lat="49.33493" lon="-0.46556">
        <ele>7.83</ele>
        <time>2016-08-07T12:23:56Z</time>
      </trkpt>
      <trkpt lat="49.33498" lon="-0.46557">
        <ele>7.83</ele>
        <time>2016-08-07T12:23:57Z</time>
      </trkpt>
      <trkpt lat="49.33503" lon="-0.46556">
        <ele>7.83</ele>
        <time>2016-08-07T12:23:58Z</time>
      </trkpt>
      <trkpt lat="49.33517" lon="-0.46554">
        <ele>7.83</ele>
        <time>2016-08-07T12:24:01Z</time>
      </trkpt>
      <trkpt lat="49.33522" lon="-0.46553">
        <ele>7.83</ele>
        <time>2016-08-07T12:24:02Z</time>
      </trkpt>
      <trkpt lat="49.33559" lon="-0.46544">
        <ele>7.35</ele>
        <time>2016-08-07T12:24:09Z</time>
      </trkpt>
      <trkpt lat="49.33564" lon="-0.46541">
        <ele>7.35</ele>
        <time>2016-08-07T12:24:10Z</time>
      </trkpt>
      <trkpt lat="49.33569" lon="-0.46536">
        <ele>7.35</ele>
        <time>2016-08-07T12:24:11Z</time>
      </trkpt>
      <trkpt lat="49.33615" lon="-0.46499">
        <ele>7.35</ele>
        <time>2016-08-07T12:24:22Z</time>
      </trkpt>
      <trkpt lat="49.3363" lon="-0.46497">
        <ele>7.83</ele>
        <time>2016-08-07T12:24:28Z</time>
      </trkpt>
      <trkpt lat="49.3367" lon="-0.46485">
        <ele>8.31</ele>
        <time>2016-08-07T12:24:36Z</time>
      </trkpt>
      <trkpt lat="49.33674" lon="-0.46481">
        <ele>8.31</ele>
        <time>2016-08-07T12:24:37Z</time>
      </trkpt>
      <trkpt lat="49.33678" lon="-0.46477">
        <ele>8.79</ele>
        <time>2016-08-07T12:24:38Z</time>
      </trkpt>
      <trkpt lat="49.33681" lon="-0.46472">
        <ele>8.79</ele>
        <time>2016-08-07T12:24:39Z</time>
      </trkpt>
      <trkpt lat="49.33684" lon="-0.46468">
        <ele>8.79</ele>
        <time>2016-08-07T12:24:40Z</time>
      </trkpt>
      <trkpt lat="49.33686" lon="-0.46463">
        <ele>8.79</ele>
        <time>2016-08-07T12:24:41Z</time>
      </trkpt>
      <trkpt lat="49.33688" lon="-0.46457">
        <ele>8.79</ele>
        <time>2016-08-07T12:24:42Z</time>
      </trkpt>
      <trkpt lat="49.33689" lon="-0.46451">
        <ele>8.79</ele>
        <time>2016-08-07T12:24:43Z</time>
      </trkpt>
      <trkpt lat="49.33689" lon="-0.46445">
        <ele>8.79</ele>
        <time>2016-08-07T12:24:44Z</time>
      </trkpt>
      <trkpt lat="49.33688" lon="-0.46438">
        <ele>8.79</ele>
        <time>2016-08-07T12:24:45Z</time>
      </trkpt>
      <trkpt lat="49.33688" lon="-0.46431">
        <ele>8.79</ele>
        <time>2016-08-07T12:24:46Z</time>
      </trkpt>
      <trkpt lat="49.33683" lon="-0.46366">
        <ele>8.31</ele>
        <time>2016-08-07T12:24:55Z</time>
      </trkpt>
      <trkpt lat="49.33681" lon="-0.46359">
        <ele>8.31</ele>
        <time>2016-08-07T12:24:56Z</time>
      </trkpt>
      <trkpt lat="49.3368" lon="-0.46352">
        <ele>8.31</ele>
        <time>2016-08-07T12:24:57Z</time>
      </trkpt>
      <trkpt lat="49.33679" lon="-0.46345">
        <ele>8.79</ele>
        <time>2016-08-07T12:24:58Z</time>
      </trkpt>
      <trkpt lat="49.33678" lon="-0.46338">
        <ele>8.79</ele>
        <time>2016-08-07T12:24:59Z</time>
      </trkpt>
      <trkpt lat="49.33677" lon="-0.46331">
        <ele>9.27</ele>
        <time>2016-08-07T12:25:00Z</time>
      </trkpt>
      <trkpt lat="49.33671" lon="-0.46303">
        <ele>8.79</ele>
        <time>2016-08-07T12:25:04Z</time>
      </trkpt>
      <trkpt lat="49.33668" lon="-0.46297">
        <ele>8.79</ele>
        <time>2016-08-07T12:25:05Z</time>
      </trkpt>
      <trkpt lat="49.33664" lon="-0.46291">
        <ele>8.79</ele>
        <time>2016-08-07T12:25:06Z</time>
      </trkpt>
      <trkpt lat="49.33661" lon="-0.46285">
        <ele>8.79</ele>
        <time>2016-08-07T12:25:07Z</time>
      </trkpt>
      <trkpt lat="49.33656" lon="-0.4628">
        <ele>8.79</ele>
        <time>2016-08-07T12:25:08Z</time>
      </trkpt>
      <trkpt lat="49.33644" lon="-0.46263">
        <ele>8.79</ele>
        <time>2016-08-07T12:25:11Z</time>
      </trkpt>
      <trkpt lat="49.33605" lon="-0.46186">
        <ele>8.79</ele>
        <time>2016-08-07T12:25:23Z</time>
      </trkpt>
      <trkpt lat="49.33601" lon="-0.46181">
        <ele>8.79</ele>
        <time>2016-08-07T12:25:24Z</time>
      </trkpt>
      <trkpt lat="49.33597" lon="-0.46178">
        <ele>8.79</ele>
        <time>2016-08-07T12:25:25Z</time>
      </trkpt>
      <trkpt lat="49.33587" lon="-0.46167">
        <ele>8.79</ele>
        <time>2016-08-07T12:25:28Z</time>
      </trkpt>
      <trkpt lat="49.33587" lon="-0.46162">
        <ele>8.79</ele>
        <time>2016-08-07T12:25:29Z</time>
      </trkpt>
      <trkpt lat="49.33586" lon="-0.46157">
        <ele>8.79</ele>
        <time>2016-08-07T12:25:30Z</time>
      </trkpt>
      <trkpt lat="49.33587" lon="-0.46152">
        <ele>8.79</ele>
        <time>2016-08-07T12:25:31Z</time>
      </trkpt>
      <trkpt lat="49.33588" lon="-0.46146">
        <ele>8.79</ele>
        <time>2016-08-07T12:25:32Z</time>
      </trkpt>
      <trkpt lat="49.33589" lon="-0.4614">
        <ele>8.79</ele>
        <time>2016-08-07T12:25:33Z</time>
      </trkpt>
      <trkpt lat="49.33591" lon="-0.46134">
        <ele>8.79</ele>
        <time>2016-08-07T12:25:34Z</time>
      </trkpt>
      <trkpt lat="49.33593" lon="-0.46128">
        <ele>8.79</ele>
        <time>2016-08-07T12:25:35Z</time>
      </trkpt>
      <trkpt lat="49.33595" lon="-0.46122">
        <ele>8.79</ele>
        <time>2016-08-07T12:25:36Z</time>
      </trkpt>
      <trkpt lat="49.33599" lon="-0.46111">
        <ele>8.79</ele>
        <time>2016-08-07T12:25:38Z</time>
      </trkpt>
      <trkpt lat="49.33607" lon="-0.46097">
        <ele>9.27</ele>
        <time>2016-08-07T12:25:41Z</time>
      </trkpt>
      <trkpt lat="49.3361" lon="-0.46092">
        <ele>9.75</ele>
        <time>2016-08-07T12:25:42Z</time>
      </trkpt>
      <trkpt lat="49.33614" lon="-0.46089">
        <ele>9.75</ele>
        <time>2016-08-07T12:25:43Z</time>
      </trkpt>
      <trkpt lat="49.33617" lon="-0.46085">
        <ele>9.75</ele>
        <time>2016-08-07T12:25:44Z</time>
      </trkpt>
      <trkpt lat="49.33621" lon="-0.46081">
        <ele>9.75</ele>
        <time>2016-08-07T12:25:45Z</time>
      </trkpt>
      <trkpt lat="49.33624" lon="-0.46076">
        <ele>9.75</ele>
        <time>2016-08-07T12:25:46Z</time>
      </trkpt>
      <trkpt lat="49.33626" lon="-0.4607">
        <ele>9.75</ele>
        <time>2016-08-07T12:25:47Z</time>
      </trkpt>
      <trkpt lat="49.33629" lon="-0.46065">
        <ele>9.27</ele>
        <time>2016-08-07T12:25:48Z</time>
      </trkpt>
      <trkpt lat="49.33632" lon="-0.46061">
        <ele>9.27</ele>
        <time>2016-08-07T12:25:49Z</time>
      </trkpt>
      <trkpt lat="49.33636" lon="-0.46058">
        <ele>9.27</ele>
        <time>2016-08-07T12:25:50Z</time>
      </trkpt>
      <trkpt lat="49.33641" lon="-0.46057">
        <ele>9.27</ele>
        <time>2016-08-07T12:25:51Z</time>
      </trkpt>
      <trkpt lat="49.33645" lon="-0.4606">
        <ele>9.27</ele>
        <time>2016-08-07T12:25:52Z</time>
      </trkpt>
      <trkpt lat="49.33649" lon="-0.46064">
        <ele>9.27</ele>
        <time>2016-08-07T12:25:53Z</time>
      </trkpt>
      <trkpt lat="49.3365" lon="-0.4607">
        <ele>9.75</ele>
        <time>2016-08-07T12:25:54Z</time>
      </trkpt>
      <trkpt lat="49.33651" lon="-0.46076">
        <ele>9.27</ele>
        <time>2016-08-07T12:25:55Z</time>
      </trkpt>
      <trkpt lat="49.3365" lon="-0.46082">
        <ele>9.75</ele>
        <time>2016-08-07T12:25:56Z</time>
      </trkpt>
      <trkpt lat="49.33648" lon="-0.46088">
        <ele>9.75</ele>
        <time>2016-08-07T12:25:57Z</time>
      </trkpt>
      <trkpt lat="49.33646" lon="-0.46092">
        <ele>9.75</ele>
        <time>2016-08-07T12:25:58Z</time>
      </trkpt>
      <trkpt lat="49.33642" lon="-0.46095">
        <ele>10.23</ele>
        <time>2016-08-07T12:25:59Z</time>
      </trkpt>
      <trkpt lat="49.33624" lon="-0.46115">
        <ele>10.23</ele>
        <time>2016-08-07T12:26:04Z</time>
      </trkpt>
      <trkpt lat="49.3362" lon="-0.4612">
        <ele>10.23</ele>
        <time>2016-08-07T12:26:05Z</time>
      </trkpt>
      <trkpt lat="49.33605" lon="-0.46155">
        <ele>9.75</ele>
        <time>2016-08-07T12:26:11Z</time>
      </trkpt>
      <trkpt lat="49.33604" lon="-0.46161">
        <ele>9.75</ele>
        <time>2016-08-07T12:26:12Z</time>
      </trkpt>
      <trkpt lat="49.33604" lon="-0.46167">
        <ele>9.75</ele>
        <time>2016-08-07T12:26:13Z</time>
      </trkpt>
      <trkpt lat="49.33605" lon="-0.46173">
        <ele>9.75</ele>
        <time>2016-08-07T12:26:14Z</time>
      </trkpt>
      <trkpt lat="49.33606" lon="-0.46178">
        <ele>10.23</ele>
        <time>2016-08-07T12:26:15Z</time>
      </trkpt>
      <trkpt lat="49.33608" lon="-0.46183">
        <ele>10.23</ele>
        <time>2016-08-07T12:26:16Z</time>
      </trkpt>
      <trkpt lat="49.33611" lon="-0.46187">
        <ele>10.23</ele>
        <time>2016-08-07T12:26:17Z</time>
      </trkpt>
      <trkpt lat="49.33614" lon="-0.46192">
        <ele>9.75</ele>
        <time>2016-08-07T12:26:18Z</time>
      </trkpt>
      <trkpt lat="49.33618" lon="-0.46198">
        <ele>9.75</ele>
        <time>2016-08-07T12:26:19Z</time>
      </trkpt>
      <trkpt lat="49.33623" lon="-0.46205">
        <ele>9.75</ele>
        <time>2016-08-07T12:26:20Z</time>
      </trkpt>
      <trkpt lat="49.33627" lon="-0.46212">
        <ele>9.27</ele>
        <time>2016-08-07T12:26:21Z</time>
      </trkpt>
      <trkpt lat="49.33643" lon="-0.4625">
        <ele>9.75</ele>
        <time>2016-08-07T12:26:26Z</time>
      </trkpt>
      <trkpt lat="49.33647" lon="-0.46257">
        <ele>9.75</ele>
        <time>2016-08-07T12:26:27Z</time>
      </trkpt>
      <trkpt lat="49.33655" lon="-0.4627">
        <ele>10.23</ele>
        <time>2016-08-07T12:26:29Z</time>
      </trkpt>
      <trkpt lat="49.33668" lon="-0.46288">
        <ele>10.23</ele>
        <time>2016-08-07T12:26:32Z</time>
      </trkpt>
      <trkpt lat="49.33671" lon="-0.46296">
        <ele>10.23</ele>
        <time>2016-08-07T12:26:33Z</time>
      </trkpt>
      <trkpt lat="49.3368" lon="-0.46326">
        <ele>9.75</ele>
        <time>2016-08-07T12:26:37Z</time>
      </trkpt>
      <trkpt lat="49.33682" lon="-0.46335">
        <ele>9.27</ele>
        <time>2016-08-07T12:26:38Z</time>
      </trkpt>
      <trkpt lat="49.33692" lon="-0.46431">
        <ele>9.27</ele>
        <time>2016-08-07T12:26:49Z</time>
      </trkpt>
      <trkpt lat="49.33693" lon="-0.46451">
        <ele>9.75</ele>
        <time>2016-08-07T12:26:52Z</time>
      </trkpt>
      <trkpt lat="49.33692" lon="-0.46458">
        <ele>9.75</ele>
        <time>2016-08-07T12:26:53Z</time>
      </trkpt>
      <trkpt lat="49.33691" lon="-0.46465">
        <ele>9.75</ele>
        <time>2016-08-07T12:26:54Z</time>
      </trkpt>
      <trkpt lat="49.3369" lon="-0.4647">
        <ele>9.75</ele>
        <time>2016-08-07T12:26:55Z</time>
      </trkpt>
      <trkpt lat="49.33688" lon="-0.46476">
        <ele>9.75</ele>
        <time>2016-08-07T12:26:56Z</time>
      </trkpt>
      <trkpt lat="49.33687" lon="-0.46487">
        <ele>10.23</ele>
        <time>2016-08-07T12:26:58Z</time>
      </trkpt>
      <trkpt lat="49.33689" lon="-0.46493">
        <ele>10.23</ele>
        <time>2016-08-07T12:26:59Z</time>
      </trkpt>
      <trkpt lat="49.33691" lon="-0.46498">
        <ele>10.71</ele>
        <time>2016-08-07T12:27:00Z</time>
      </trkpt>
      <trkpt lat="49.33703" lon="-0.46525">
        <ele>10.71</ele>
        <time>2016-08-07T12:27:05Z</time>
      </trkpt>
      <trkpt lat="49.33704" lon="-0.46531">
        <ele>10.71</ele>
        <time>2016-08-07T12:27:06Z</time>
      </trkpt>
      <trkpt lat="49.33705" lon="-0.46537">
        <ele>10.71</ele>
        <time>2016-08-07T12:27:07Z</time>
      </trkpt>
      <trkpt lat="49.33707" lon="-0.46544">
        <ele>10.23</ele>
        <time>2016-08-07T12:27:08Z</time>
      </trkpt>
      <trkpt lat="49.33708" lon="-0.4655">
        <ele>10.23</ele>
        <time>2016-08-07T12:27:09Z</time>
      </trkpt>
      <trkpt lat="49.3371" lon="-0.46557">
        <ele>10.23</ele>
        <time>2016-08-07T12:27:10Z</time>
      </trkpt>
      <trkpt lat="49.33723" lon="-0.46644">
        <ele>10.23</ele>
        <time>2016-08-07T12:27:22Z</time>
      </trkpt>
      <trkpt lat="49.33729" lon="-0.46683">
        <ele>10.71</ele>
        <time>2016-08-07T12:27:27Z</time>
      </trkpt>
      <trkpt lat="49.33729" lon="-0.4669">
        <ele>11.19</ele>
        <time>2016-08-07T12:27:28Z</time>
      </trkpt>
      <trkpt lat="49.33728" lon="-0.46696">
        <ele>11.19</ele>
        <time>2016-08-07T12:27:29Z</time>
      </trkpt>
      <trkpt lat="49.33726" lon="-0.46703">
        <ele>10.71</ele>
        <time>2016-08-07T12:27:30Z</time>
      </trkpt>
      <trkpt lat="49.33724" lon="-0.46709">
        <ele>10.71</ele>
        <time>2016-08-07T12:27:31Z</time>
      </trkpt>
      <trkpt lat="49.33709" lon="-0.46754">
        <ele>10.71</ele>
        <time>2016-08-07T12:27:38Z</time>
      </trkpt>
      <trkpt lat="49.33708" lon="-0.4676">
        <ele>11.19</ele>
        <time>2016-08-07T12:27:39Z</time>
      </trkpt>
      <trkpt lat="49.33708" lon="-0.46767">
        <ele>11.19</ele>
        <time>2016-08-07T12:27:40Z</time>
      </trkpt>
      <trkpt lat="49.33709" lon="-0.46786">
        <ele>10.71</ele>
        <time>2016-08-07T12:27:43Z</time>
      </trkpt>
      <trkpt lat="49.33712" lon="-0.46806">
        <ele>10.23</ele>
        <time>2016-08-07T12:27:46Z</time>
      </trkpt>
      <trkpt lat="49.33713" lon="-0.46812">
        <ele>9.75</ele>
        <time>2016-08-07T12:27:47Z</time>
      </trkpt>
      <trkpt lat="49.3372" lon="-0.46851">
        <ele>9.75</ele>
        <time>2016-08-07T12:27:53Z</time>
      </trkpt>
      <trkpt lat="49.3372" lon="-0.46858">
        <ele>9.75</ele>
        <time>2016-08-07T12:27:54Z</time>
      </trkpt>
      <trkpt lat="49.33719" lon="-0.46871">
        <ele>9.27</ele>
        <time>2016-08-07T12:27:56Z</time>
      </trkpt>
      <trkpt lat="49.33719" lon="-0.46878">
        <ele>8.79</ele>
        <time>2016-08-07T12:27:57Z</time>
      </trkpt>
      <trkpt lat="49.33717" lon="-0.46885">
        <ele>8.79</ele>
        <time>2016-08-07T12:27:58Z</time>
      </trkpt>
      <trkpt lat="49.33716" lon="-0.46892">
        <ele>8.31</ele>
        <time>2016-08-07T12:27:59Z</time>
      </trkpt>
      <trkpt lat="49.33714" lon="-0.46899">
        <ele>7.83</ele>
        <time>2016-08-07T12:28:00Z</time>
      </trkpt>
      <trkpt lat="49.33706" lon="-0.46928">
        <ele>7.35</ele>
        <time>2016-08-07T12:28:04Z</time>
      </trkpt>
      <trkpt lat="49.33703" lon="-0.46934">
        <ele>7.35</ele>
        <time>2016-08-07T12:28:05Z</time>
      </trkpt>
      <trkpt lat="49.33698" lon="-0.46939">
        <ele>6.87</ele>
        <time>2016-08-07T12:28:06Z</time>
      </trkpt>
      <trkpt lat="49.33689" lon="-0.46946">
        <ele>6.87</ele>
        <time>2016-08-07T12:28:08Z</time>
      </trkpt>
      <trkpt lat="49.33684" lon="-0.46948">
        <ele>6.87</ele>
        <time>2016-08-07T12:28:09Z</time>
      </trkpt>
      <trkpt lat="49.33679" lon="-0.46951">
        <ele>6.87</ele>
        <time>2016-08-07T12:28:10Z</time>
      </trkpt>
      <trkpt lat="49.33674" lon="-0.46954">
        <ele>6.87</ele>
        <time>2016-08-07T12:28:11Z</time>
      </trkpt>
      <trkpt lat="49.33669" lon="-0.46957">
        <ele>7.35</ele>
        <time>2016-08-07T12:28:12Z</time>
      </trkpt>
      <trkpt lat="49.3366" lon="-0.46963">
        <ele>7.35</ele>
        <time>2016-08-07T12:28:14Z</time>
      </trkpt>
      <trkpt lat="49.33654" lon="-0.46966">
        <ele>7.35</ele>
        <time>2016-08-07T12:28:15Z</time>
      </trkpt>
      <trkpt lat="49.3365" lon="-0.46969">
        <ele>6.87</ele>
        <time>2016-08-07T12:28:16Z</time>
      </trkpt>
      <trkpt lat="49.33581" lon="-0.47013">
        <ele>6.39</ele>
        <time>2016-08-07T12:28:29Z</time>
      </trkpt>
      <trkpt lat="49.33514" lon="-0.47055">
        <ele>6.87</ele>
        <time>2016-08-07T12:28:43Z</time>
      </trkpt>
      <trkpt lat="49.33506" lon="-0.4706">
        <ele>7.83</ele>
        <time>2016-08-07T12:28:53Z</time>
      </trkpt>
      <trkpt lat="49.335" lon="-0.47065">
        <ele>8.31</ele>
        <time>2016-08-07T12:28:58Z</time>
      </trkpt>
      <trkpt lat="49.33499" lon="-0.47071">
        <ele>7.83</ele>
        <time>2016-08-07T12:28:59Z</time>
      </trkpt>
      <trkpt lat="49.33499" lon="-0.47078">
        <ele>7.83</ele>
        <time>2016-08-07T12:29:00Z</time>
      </trkpt>
      <trkpt lat="49.33501" lon="-0.47086">
        <ele>7.35</ele>
        <time>2016-08-07T12:29:01Z</time>
      </trkpt>
      <trkpt lat="49.33503" lon="-0.47095">
        <ele>7.83</ele>
        <time>2016-08-07T12:29:02Z</time>
      </trkpt>
      <trkpt lat="49.33505" lon="-0.47104">
        <ele>7.83</ele>
        <time>2016-08-07T12:29:03Z</time>
      </trkpt>
      <trkpt lat="49.33508" lon="-0.47114">
        <ele>7.35</ele>
        <time>2016-08-07T12:29:04Z</time>
      </trkpt>
      <trkpt lat="49.3355" lon="-0.47257">
        <ele>7.83</ele>
        <time>2016-08-07T12:29:20Z</time>
      </trkpt>
      <trkpt lat="49.33597" lon="-0.47413">
        <ele>6.87</ele>
        <time>2016-08-07T12:29:38Z</time>
      </trkpt>
      <trkpt lat="49.33642" lon="-0.47566">
        <ele>6.87</ele>
        <time>2016-08-07T12:29:56Z</time>
      </trkpt>
      <trkpt lat="49.33674" lon="-0.47674">
        <ele>6.39</ele>
        <time>2016-08-07T12:30:09Z</time>
      </trkpt>
      <trkpt lat="49.33676" lon="-0.47681">
        <ele>6.39</ele>
        <time>2016-08-07T12:30:10Z</time>
      </trkpt>
      <trkpt lat="49.33695" lon="-0.47747">
        <ele>5.91</ele>
        <time>2016-08-07T12:30:23Z</time>
      </trkpt>
      <trkpt lat="49.33697" lon="-0.47753">
        <ele>5.91</ele>
        <time>2016-08-07T12:30:24Z</time>
      </trkpt>
      <trkpt lat="49.33699" lon="-0.4776">
        <ele>5.91</ele>
        <time>2016-08-07T12:30:25Z</time>
      </trkpt>
      <trkpt lat="49.33702" lon="-0.47769">
        <ele>5.91</ele>
        <time>2016-08-07T12:30:26Z</time>
      </trkpt>
      <trkpt lat="49.33704" lon="-0.47778">
        <ele>5.91</ele>
        <time>2016-08-07T12:30:27Z</time>
      </trkpt>
      <trkpt lat="49.33707" lon="-0.47788">
        <ele>5.42</ele>
        <time>2016-08-07T12:30:28Z</time>
      </trkpt>
      <trkpt lat="49.33758" lon="-0.47974">
        <ele>6.39</ele>
        <time>2016-08-07T12:30:47Z</time>
      </trkpt>
      <trkpt lat="49.33805" lon="-0.48141">
        <ele>6.87</ele>
        <time>2016-08-07T12:31:06Z</time>
      </trkpt>
      <trkpt lat="49.33853" lon="-0.48314">
        <ele>6.39</ele>
        <time>2016-08-07T12:31:26Z</time>
      </trkpt>
      <trkpt lat="49.33896" lon="-0.4847">
        <ele>6.39</ele>
        <time>2016-08-07T12:31:44Z</time>
      </trkpt>
      <trkpt lat="49.33939" lon="-0.48641">
        <ele>6.87</ele>
        <time>2016-08-07T12:32:04Z</time>
      </trkpt>
      <trkpt lat="49.33976" lon="-0.48824">
        <ele>7.35</ele>
        <time>2016-08-07T12:32:24Z</time>
      </trkpt>
      <trkpt lat="49.34014" lon="-0.49013">
        <ele>6.87</ele>
        <time>2016-08-07T12:32:45Z</time>
      </trkpt>
      <trkpt lat="49.3405" lon="-0.49184">
        <ele>6.39</ele>
        <time>2016-08-07T12:33:04Z</time>
      </trkpt>
      <trkpt lat="49.34079" lon="-0.49327">
        <ele>6.39</ele>
        <time>2016-08-07T12:33:19Z</time>
      </trkpt>
      <trkpt lat="49.3411" lon="-0.49491">
        <ele>5.91</ele>
        <time>2016-08-07T12:33:36Z</time>
      </trkpt>
      <trkpt lat="49.3413" lon="-0.49627">
        <ele>6.39</ele>
        <time>2016-08-07T12:33:50Z</time>
      </trkpt>
      <trkpt lat="49.34147" lon="-0.49743">
        <ele>6.87</ele>
        <time>2016-08-07T12:34:02Z</time>
      </trkpt>
      <trkpt lat="49.34167" lon="-0.49873">
        <ele>6.39</ele>
        <time>2016-08-07T12:34:16Z</time>
      </trkpt>
      <trkpt lat="49.34188" lon="-0.50013">
        <ele>6.87</ele>
        <time>2016-08-07T12:34:31Z</time>
      </trkpt>
      <trkpt lat="49.34215" lon="-0.50209">
        <ele>7.35</ele>
        <time>2016-08-07T12:34:51Z</time>
      </trkpt>
      <trkpt lat="49.3423" lon="-0.50353">
        <ele>8.31</ele>
        <time>2016-08-07T12:35:06Z</time>
      </trkpt>
      <trkpt lat="49.34243" lon="-0.50515">
        <ele>8.31</ele>
        <time>2016-08-07T12:35:22Z</time>
      </trkpt>
      <trkpt lat="49.34259" lon="-0.50677">
        <ele>6.39</ele>
        <time>2016-08-07T12:35:39Z</time>
      </trkpt>
      <trkpt lat="49.34271" lon="-0.50833">
        <ele>8.79</ele>
        <time>2016-08-07T12:35:55Z</time>
      </trkpt>
      <trkpt lat="49.34283" lon="-0.50992">
        <ele>9.75</ele>
        <time>2016-08-07T12:36:12Z</time>
      </trkpt>
      <trkpt lat="49.34295" lon="-0.51128">
        <ele>9.75</ele>
        <time>2016-08-07T12:36:27Z</time>
      </trkpt>
      <trkpt lat="49.34308" lon="-0.51281">
        <ele>8.31</ele>
        <time>2016-08-07T12:36:44Z</time>
      </trkpt>
      <trkpt lat="49.34317" lon="-0.5138">
        <ele>8.31</ele>
        <time>2016-08-07T12:36:55Z</time>
      </trkpt>
      <trkpt lat="49.34328" lon="-0.51477">
        <ele>7.83</ele>
        <time>2016-08-07T12:37:06Z</time>
      </trkpt>
      <trkpt lat="49.3433" lon="-0.51496">
        <ele>7.83</ele>
        <time>2016-08-07T12:37:08Z</time>
      </trkpt>
      <trkpt lat="49.34334" lon="-0.51512">
        <ele>8.31</ele>
        <time>2016-08-07T12:37:10Z</time>
      </trkpt>
      <trkpt lat="49.34336" lon="-0.5152">
        <ele>8.31</ele>
        <time>2016-08-07T12:37:11Z</time>
      </trkpt>
      <trkpt lat="49.34357" lon="-0.51591">
        <ele>8.31</ele>
        <time>2016-08-07T12:37:23Z</time>
      </trkpt>
      <trkpt lat="49.34361" lon="-0.51591">
        <ele>8.31</ele>
        <time>2016-08-07T12:37:24Z</time>
      </trkpt>
      <trkpt lat="49.34365" lon="-0.5159">
        <ele>8.31</ele>
        <time>2016-08-07T12:37:25Z</time>
      </trkpt>
      <trkpt lat="49.34368" lon="-0.51587">
        <ele>8.31</ele>
        <time>2016-08-07T12:37:26Z</time>
      </trkpt>
      <trkpt lat="49.34372" lon="-0.51584">
        <ele>7.83</ele>
        <time>2016-08-07T12:37:27Z</time>
      </trkpt>
      <trkpt lat="49.34435" lon="-0.51542">
        <ele>7.35</ele>
        <time>2016-08-07T12:37:40Z</time>
      </trkpt>
      <trkpt lat="49.3446" lon="-0.51535">
        <ele>7.35</ele>
        <time>2016-08-07T12:37:45Z</time>
      </trkpt>
      <trkpt lat="49.34465" lon="-0.51534">
        <ele>7.35</ele>
        <time>2016-08-07T12:37:46Z</time>
      </trkpt>
      <trkpt lat="49.34469" lon="-0.51533">
        <ele>7.35</ele>
        <time>2016-08-07T12:37:47Z</time>
      </trkpt>
      <trkpt lat="49.34495" lon="-0.51543">
        <ele>8.31</ele>
        <time>2016-08-07T12:37:55Z</time>
      </trkpt>
      <trkpt lat="49.34497" lon="-0.51549">
        <ele>8.31</ele>
        <time>2016-08-07T12:37:56Z</time>
      </trkpt>
      <trkpt lat="49.34499" lon="-0.51556">
        <ele>8.31</ele>
        <time>2016-08-07T12:37:57Z</time>
      </trkpt>
      <trkpt lat="49.34509" lon="-0.51671">
        <ele>8.31</ele>
        <time>2016-08-07T12:38:11Z</time>
      </trkpt>
      <trkpt lat="49.3451" lon="-0.51687">
        <ele>8.31</ele>
        <time>2016-08-07T12:38:13Z</time>
      </trkpt>
      <trkpt lat="49.34513" lon="-0.51759">
        <ele>8.31</ele>
        <time>2016-08-07T12:38:23Z</time>
      </trkpt>
      <trkpt lat="49.34512" lon="-0.51761">
        <ele>8.31</ele>
        <time>2016-08-07T12:38:24Z</time>
      </trkpt>
      <trkpt lat="49.34511" lon="-0.51763">
        <ele>8.31</ele>
        <time>2016-08-07T12:38:25Z</time>
      </trkpt>
      <trkpt lat="49.3451" lon="-0.51765">
        <ele>8.31</ele>
        <time>2016-08-07T12:38:28Z</time>
      </trkpt>
      <trkpt lat="49.34509" lon="-0.51764">
        <ele>8.31</ele>
        <time>2016-08-07T12:38:29Z</time>
      </trkpt>
      <trkpt lat="49.34507" lon="-0.51762">
        <ele>8.31</ele>
        <time>2016-08-07T12:38:30Z</time>
      </trkpt>
      <trkpt lat="49.34504" lon="-0.51762">
        <ele>8.31</ele>
        <time>2016-08-07T12:38:31Z</time>
      </trkpt>
      <trkpt lat="49.345" lon="-0.51763">
        <ele>8.31</ele>
        <time>2016-08-07T12:38:32Z</time>
      </trkpt>
      <trkpt lat="49.34495" lon="-0.51764">
        <ele>8.31</ele>
        <time>2016-08-07T12:38:33Z</time>
      </trkpt>
      <trkpt lat="49.3449" lon="-0.51766">
        <ele>8.31</ele>
        <time>2016-08-07T12:38:34Z</time>
      </trkpt>
      <trkpt lat="49.34484" lon="-0.51766">
        <ele>8.31</ele>
        <time>2016-08-07T12:38:35Z</time>
      </trkpt>
      <trkpt lat="49.34479" lon="-0.51768">
        <ele>8.31</ele>
        <time>2016-08-07T12:38:36Z</time>
      </trkpt>
      <trkpt lat="49.34474" lon="-0.5177">
        <ele>7.83</ele>
        <time>2016-08-07T12:38:37Z</time>
      </trkpt>
      <trkpt lat="49.34469" lon="-0.51772">
        <ele>7.83</ele>
        <time>2016-08-07T12:38:38Z</time>
      </trkpt>
      <trkpt lat="49.34454" lon="-0.51776">
        <ele>7.83</ele>
        <time>2016-08-07T12:38:41Z</time>
      </trkpt>
      <trkpt lat="49.34444" lon="-0.5178">
        <ele>7.83</ele>
        <time>2016-08-07T12:38:43Z</time>
      </trkpt>
      <trkpt lat="49.3444" lon="-0.51781">
        <ele>7.35</ele>
        <time>2016-08-07T12:38:44Z</time>
      </trkpt>
      <trkpt lat="49.34413" lon="-0.51786">
        <ele>7.35</ele>
        <time>2016-08-07T12:38:50Z</time>
      </trkpt>
      <trkpt lat="49.34409" lon="-0.51787">
        <ele>7.83</ele>
        <time>2016-08-07T12:38:51Z</time>
      </trkpt>
      <trkpt lat="49.34407" lon="-0.5179">
        <ele>8.31</ele>
        <time>2016-08-07T12:38:52Z</time>
      </trkpt>
      <trkpt lat="49.34406" lon="-0.51795">
        <ele>8.31</ele>
        <time>2016-08-07T12:38:53Z</time>
      </trkpt>
      <trkpt lat="49.34407" lon="-0.51801">
        <ele>8.31</ele>
        <time>2016-08-07T12:38:54Z</time>
      </trkpt>
      <trkpt lat="49.34408" lon="-0.51807">
        <ele>8.31</ele>
        <time>2016-08-07T12:38:55Z</time>
      </trkpt>
      <trkpt lat="49.34409" lon="-0.51813">
        <ele>8.31</ele>
        <time>2016-08-07T12:38:56Z</time>
      </trkpt>
      <trkpt lat="49.34415" lon="-0.51861">
        <ele>7.83</ele>
        <time>2016-08-07T12:39:04Z</time>
      </trkpt>
      <trkpt lat="49.34417" lon="-0.51867">
        <ele>7.83</ele>
        <time>2016-08-07T12:39:05Z</time>
      </trkpt>
      <trkpt lat="49.34418" lon="-0.51874">
        <ele>7.83</ele>
        <time>2016-08-07T12:39:06Z</time>
      </trkpt>
      <trkpt lat="49.3442" lon="-0.51889">
        <ele>7.83</ele>
        <time>2016-08-07T12:39:08Z</time>
      </trkpt>
      <trkpt lat="49.34422" lon="-0.51903">
        <ele>7.35</ele>
        <time>2016-08-07T12:39:10Z</time>
      </trkpt>
      <trkpt lat="49.34424" lon="-0.51924">
        <ele>7.35</ele>
        <time>2016-08-07T12:39:13Z</time>
      </trkpt>
      <trkpt lat="49.34433" lon="-0.51996">
        <ele>7.83</ele>
        <time>2016-08-07T12:39:22Z</time>
      </trkpt>
      <trkpt lat="49.34434" lon="-0.52004">
        <ele>7.83</ele>
        <time>2016-08-07T12:39:23Z</time>
      </trkpt>
      <trkpt lat="49.34452" lon="-0.52139">
        <ele>7.35</ele>
        <time>2016-08-07T12:39:39Z</time>
      </trkpt>
      <trkpt lat="49.34464" lon="-0.52224">
        <ele>6.87</ele>
        <time>2016-08-07T12:39:49Z</time>
      </trkpt>
      <trkpt lat="49.34465" lon="-0.52232">
        <ele>6.87</ele>
        <time>2016-08-07T12:39:50Z</time>
      </trkpt>
      <trkpt lat="49.34484" lon="-0.52374">
        <ele>6.87</ele>
        <time>2016-08-07T12:40:07Z</time>
      </trkpt>
      <trkpt lat="49.34497" lon="-0.52497">
        <ele>6.87</ele>
        <time>2016-08-07T12:40:22Z</time>
      </trkpt>
      <trkpt lat="49.34502" lon="-0.52546">
        <ele>6.87</ele>
        <time>2016-08-07T12:40:28Z</time>
      </trkpt>
      <trkpt lat="49.34502" lon="-0.52554">
        <ele>6.87</ele>
        <time>2016-08-07T12:40:29Z</time>
      </trkpt>
      <trkpt lat="49.34505" lon="-0.52587">
        <ele>6.87</ele>
        <time>2016-08-07T12:40:33Z</time>
      </trkpt>
      <trkpt lat="49.34516" lon="-0.527">
        <ele>7.83</ele>
        <time>2016-08-07T12:40:47Z</time>
      </trkpt>
      <trkpt lat="49.34522" lon="-0.52766">
        <ele>6.87</ele>
        <time>2016-08-07T12:40:56Z</time>
      </trkpt>
      <trkpt lat="49.34523" lon="-0.52772">
        <ele>6.87</ele>
        <time>2016-08-07T12:40:57Z</time>
      </trkpt>
      <trkpt lat="49.34521" lon="-0.52801">
        <ele>7.35</ele>
        <time>2016-08-07T12:41:02Z</time>
      </trkpt>
      <trkpt lat="49.34519" lon="-0.52805">
        <ele>6.87</ele>
        <time>2016-08-07T12:41:03Z</time>
      </trkpt>
      <trkpt lat="49.34516" lon="-0.52807">
        <ele>7.35</ele>
        <time>2016-08-07T12:41:04Z</time>
      </trkpt>
      <trkpt lat="49.34513" lon="-0.52807">
        <ele>7.35</ele>
        <time>2016-08-07T12:41:05Z</time>
      </trkpt>
      <trkpt lat="49.3451" lon="-0.52807">
        <ele>7.35</ele>
        <time>2016-08-07T12:41:06Z</time>
      </trkpt>
      <trkpt lat="49.34506" lon="-0.52807">
        <ele>6.87</ele>
        <time>2016-08-07T12:41:07Z</time>
      </trkpt>
      <trkpt lat="49.34495" lon="-0.52807">
        <ele>6.87</ele>
        <time>2016-08-07T12:41:10Z</time>
      </trkpt>
      <trkpt lat="49.34482" lon="-0.52808">
        <ele>6.87</ele>
        <time>2016-08-07T12:41:13Z</time>
      </trkpt>
      <trkpt lat="49.34468" lon="-0.52806">
        <ele>6.87</ele>
        <time>2016-08-07T12:41:16Z</time>
      </trkpt>
      <trkpt lat="49.34463" lon="-0.52805">
        <ele>6.87</ele>
        <time>2016-08-07T12:41:17Z</time>
      </trkpt>
      <trkpt lat="49.34457" lon="-0.52804">
        <ele>6.87</ele>
        <time>2016-08-07T12:41:18Z</time>
      </trkpt>
      <trkpt lat="49.34378" lon="-0.52788">
        <ele>7.35</ele>
        <time>2016-08-07T12:41:33Z</time>
      </trkpt>
      <trkpt lat="49.34313" lon="-0.52776">
        <ele>8.79</ele>
        <time>2016-08-07T12:41:45Z</time>
      </trkpt>
      <trkpt lat="49.34308" lon="-0.52775">
        <ele>8.79</ele>
        <time>2016-08-07T12:41:46Z</time>
      </trkpt>
      <trkpt lat="49.34303" lon="-0.52775">
        <ele>8.79</ele>
        <time>2016-08-07T12:41:47Z</time>
      </trkpt>
      <trkpt lat="49.34272" lon="-0.52771">
        <ele>10.71</ele>
        <time>2016-08-07T12:41:54Z</time>
      </trkpt>
      <trkpt lat="49.34264" lon="-0.52769">
        <ele>11.19</ele>
        <time>2016-08-07T12:41:56Z</time>
      </trkpt>
      <trkpt lat="49.3426" lon="-0.52769">
        <ele>11.19</ele>
        <time>2016-08-07T12:41:57Z</time>
      </trkpt>
      <trkpt lat="49.34256" lon="-0.52768">
        <ele>11.67</ele>
        <time>2016-08-07T12:41:58Z</time>
      </trkpt>
      <trkpt lat="49.34237" lon="-0.52767">
        <ele>13.12</ele>
        <time>2016-08-07T12:42:03Z</time>
      </trkpt>
      <trkpt lat="49.34228" lon="-0.52764">
        <ele>13.6</ele>
        <time>2016-08-07T12:42:05Z</time>
      </trkpt>
      <trkpt lat="49.34224" lon="-0.52764">
        <ele>14.08</ele>
        <time>2016-08-07T12:42:06Z</time>
      </trkpt>
      <trkpt lat="49.34219" lon="-0.52763">
        <ele>14.08</ele>
        <time>2016-08-07T12:42:07Z</time>
      </trkpt>
      <trkpt lat="49.3418" lon="-0.52756">
        <ele>18.88</ele>
        <time>2016-08-07T12:42:19Z</time>
      </trkpt>
      <trkpt lat="49.34177" lon="-0.52755">
        <ele>18.88</ele>
        <time>2016-08-07T12:42:21Z</time>
      </trkpt>
      <trkpt lat="49.34176" lon="-0.52754">
        <ele>19.36</ele>
        <time>2016-08-07T12:42:22Z</time>
      </trkpt>
      <trkpt lat="49.34172" lon="-0.52754">
        <ele>19.84</ele>
        <time>2016-08-07T12:42:24Z</time>
      </trkpt>
      <trkpt lat="49.34169" lon="-0.52756">
        <ele>20.32</ele>
        <time>2016-08-07T12:42:25Z</time>
      </trkpt>
      <trkpt lat="49.34168" lon="-0.5276">
        <ele>20.81</ele>
        <time>2016-08-07T12:42:26Z</time>
      </trkpt>
      <trkpt lat="49.34167" lon="-0.52765">
        <ele>21.29</ele>
        <time>2016-08-07T12:42:27Z</time>
      </trkpt>
      <trkpt lat="49.34165" lon="-0.52772">
        <ele>21.77</ele>
        <time>2016-08-07T12:42:28Z</time>
      </trkpt>
      <trkpt lat="49.34147" lon="-0.52876">
        <ele>22.25</ele>
        <time>2016-08-07T12:42:44Z</time>
      </trkpt>
      <trkpt lat="49.3413" lon="-0.52971">
        <ele>22.73</ele>
        <time>2016-08-07T12:42:58Z</time>
      </trkpt>
      <trkpt lat="49.34112" lon="-0.5308">
        <ele>23.69</ele>
        <time>2016-08-07T12:43:14Z</time>
      </trkpt>
      <trkpt lat="49.34098" lon="-0.53184">
        <ele>23.69</ele>
        <time>2016-08-07T12:43:29Z</time>
      </trkpt>
      <trkpt lat="49.34085" lon="-0.53304">
        <ele>24.65</ele>
        <time>2016-08-07T12:43:46Z</time>
      </trkpt>
      <trkpt lat="49.34068" lon="-0.53461">
        <ele>24.17</ele>
        <time>2016-08-07T12:44:07Z</time>
      </trkpt>
      <trkpt lat="49.34051" lon="-0.53616">
        <ele>24.17</ele>
        <time>2016-08-07T12:44:25Z</time>
      </trkpt>
      <trkpt lat="49.3403" lon="-0.53804">
        <ele>24.17</ele>
        <time>2016-08-07T12:44:46Z</time>
      </trkpt>
      <trkpt lat="49.34011" lon="-0.5398">
        <ele>23.21</ele>
        <time>2016-08-07T12:45:04Z</time>
      </trkpt>
      <trkpt lat="49.33993" lon="-0.54144">
        <ele>21.77</ele>
        <time>2016-08-07T12:45:21Z</time>
      </trkpt>
      <trkpt lat="49.33977" lon="-0.54295">
        <ele>21.29</ele>
        <time>2016-08-07T12:45:37Z</time>
      </trkpt>
      <trkpt lat="49.33958" lon="-0.54459">
        <ele>20.81</ele>
        <time>2016-08-07T12:45:54Z</time>
      </trkpt>
      <trkpt lat="49.33943" lon="-0.54603">
        <ele>19.84</ele>
        <time>2016-08-07T12:46:10Z</time>
      </trkpt>
      <trkpt lat="49.33924" lon="-0.54775">
        <ele>18.4</ele>
        <time>2016-08-07T12:46:29Z</time>
      </trkpt>
      <trkpt lat="49.33907" lon="-0.54928">
        <ele>18.4</ele>
        <time>2016-08-07T12:46:46Z</time>
      </trkpt>
      <trkpt lat="49.33888" lon="-0.55097">
        <ele>17.44</ele>
        <time>2016-08-07T12:47:05Z</time>
      </trkpt>
      <trkpt lat="49.3387" lon="-0.55265">
        <ele>16</ele>
        <time>2016-08-07T12:47:24Z</time>
      </trkpt>
      <trkpt lat="49.33853" lon="-0.55412">
        <ele>16.48</ele>
        <time>2016-08-07T12:47:41Z</time>
      </trkpt>
      <trkpt lat="49.33838" lon="-0.55547">
        <ele>15.04</ele>
        <time>2016-08-07T12:47:57Z</time>
      </trkpt>
      <trkpt lat="49.33819" lon="-0.55719">
        <ele>14.08</ele>
        <time>2016-08-07T12:48:17Z</time>
      </trkpt>
      <trkpt lat="49.33802" lon="-0.55882">
        <ele>11.67</ele>
        <time>2016-08-07T12:48:35Z</time>
      </trkpt>
      <trkpt lat="49.33791" lon="-0.56046">
        <ele>10.71</ele>
        <time>2016-08-07T12:48:52Z</time>
      </trkpt>
      <trkpt lat="49.33784" lon="-0.56199">
        <ele>9.27</ele>
        <time>2016-08-07T12:49:08Z</time>
      </trkpt>
      <trkpt lat="49.33785" lon="-0.56257">
        <ele>9.27</ele>
        <time>2016-08-07T12:49:15Z</time>
      </trkpt>
      <trkpt lat="49.33784" lon="-0.56319">
        <ele>10.23</ele>
        <time>2016-08-07T12:49:22Z</time>
      </trkpt>
      <trkpt lat="49.33784" lon="-0.56327">
        <ele>10.23</ele>
        <time>2016-08-07T12:49:23Z</time>
      </trkpt>
      <trkpt lat="49.33785" lon="-0.56462">
        <ele>10.23</ele>
        <time>2016-08-07T12:49:37Z</time>
      </trkpt>
      <trkpt lat="49.3379" lon="-0.56596">
        <ele>9.75</ele>
        <time>2016-08-07T12:49:52Z</time>
      </trkpt>
      <trkpt lat="49.33799" lon="-0.56746">
        <ele>10.23</ele>
        <time>2016-08-07T12:50:09Z</time>
      </trkpt>
      <trkpt lat="49.33807" lon="-0.56833">
        <ele>9.27</ele>
        <time>2016-08-07T12:50:19Z</time>
      </trkpt>
      <trkpt lat="49.33819" lon="-0.56957">
        <ele>8.79</ele>
        <time>2016-08-07T12:50:34Z</time>
      </trkpt>
      <trkpt lat="49.33821" lon="-0.56964">
        <ele>8.79</ele>
        <time>2016-08-07T12:50:35Z</time>
      </trkpt>
      <trkpt lat="49.33824" lon="-0.5697">
        <ele>8.31</ele>
        <time>2016-08-07T12:50:36Z</time>
      </trkpt>
      <trkpt lat="49.33828" lon="-0.56973">
        <ele>8.31</ele>
        <time>2016-08-07T12:50:37Z</time>
      </trkpt>
      <trkpt lat="49.33833" lon="-0.56972">
        <ele>7.83</ele>
        <time>2016-08-07T12:50:38Z</time>
      </trkpt>
      <trkpt lat="49.33838" lon="-0.5697">
        <ele>7.83</ele>
        <time>2016-08-07T12:50:39Z</time>
      </trkpt>
      <trkpt lat="49.33844" lon="-0.56969">
        <ele>7.35</ele>
        <time>2016-08-07T12:50:40Z</time>
      </trkpt>
      <trkpt lat="49.33849" lon="-0.56968">
        <ele>7.35</ele>
        <time>2016-08-07T12:50:41Z</time>
      </trkpt>
      <trkpt lat="49.33919" lon="-0.5696">
        <ele>5.91</ele>
        <time>2016-08-07T12:50:54Z</time>
      </trkpt>
      <trkpt lat="49.33989" lon="-0.56965">
        <ele>3.98</ele>
        <time>2016-08-07T12:51:07Z</time>
      </trkpt>
      <trkpt lat="49.34" lon="-0.56964">
        <ele>4.46</ele>
        <time>2016-08-07T12:51:09Z</time>
      </trkpt>
      <trkpt lat="49.34006" lon="-0.56964">
        <ele>4.46</ele>
        <time>2016-08-07T12:51:10Z</time>
      </trkpt>
      <trkpt lat="49.34011" lon="-0.56964">
        <ele>4.46</ele>
        <time>2016-08-07T12:51:11Z</time>
      </trkpt>
      <trkpt lat="49.34017" lon="-0.56964">
        <ele>4.46</ele>
        <time>2016-08-07T12:51:12Z</time>
      </trkpt>
      <trkpt lat="49.34022" lon="-0.56964">
        <ele>3.98</ele>
        <time>2016-08-07T12:51:13Z</time>
      </trkpt>
      <trkpt lat="49.34041" lon="-0.56966">
        <ele>3.5</ele>
        <time>2016-08-07T12:51:16Z</time>
      </trkpt>
      <trkpt lat="49.34065" lon="-0.56976">
        <ele>3.98</ele>
        <time>2016-08-07T12:51:20Z</time>
      </trkpt>
      <trkpt lat="49.34082" lon="-0.56985">
        <ele>4.46</ele>
        <time>2016-08-07T12:51:23Z</time>
      </trkpt>
      <trkpt lat="49.34114" lon="-0.57013">
        <ele>4.46</ele>
        <time>2016-08-07T12:51:29Z</time>
      </trkpt>
      <trkpt lat="49.34131" lon="-0.57039">
        <ele>5.42</ele>
        <time>2016-08-07T12:51:33Z</time>
      </trkpt>
      <trkpt lat="49.34143" lon="-0.57068">
        <ele>5.42</ele>
        <time>2016-08-07T12:51:37Z</time>
      </trkpt>
      <trkpt lat="49.34156" lon="-0.57134">
        <ele>6.39</ele>
        <time>2016-08-07T12:51:45Z</time>
      </trkpt>
      <trkpt lat="49.34171" lon="-0.57224">
        <ele>6.87</ele>
        <time>2016-08-07T12:51:56Z</time>
      </trkpt>
      <trkpt lat="49.34174" lon="-0.57231">
        <ele>6.87</ele>
        <time>2016-08-07T12:51:57Z</time>
      </trkpt>
      <trkpt lat="49.34177" lon="-0.57238">
        <ele>7.35</ele>
        <time>2016-08-07T12:51:58Z</time>
      </trkpt>
      <trkpt lat="49.34181" lon="-0.57243">
        <ele>6.87</ele>
        <time>2016-08-07T12:51:59Z</time>
      </trkpt>
      <trkpt lat="49.34186" lon="-0.57247">
        <ele>6.87</ele>
        <time>2016-08-07T12:52:00Z</time>
      </trkpt>
      <trkpt lat="49.34192" lon="-0.57249">
        <ele>6.87</ele>
        <time>2016-08-07T12:52:01Z</time>
      </trkpt>
      <trkpt lat="49.34198" lon="-0.5725">
        <ele>6.39</ele>
        <time>2016-08-07T12:52:02Z</time>
      </trkpt>
      <trkpt lat="49.34203" lon="-0.5725">
        <ele>6.39</ele>
        <time>2016-08-07T12:52:03Z</time>
      </trkpt>
      <trkpt lat="49.34241" lon="-0.57251">
        <ele>6.39</ele>
        <time>2016-08-07T12:52:10Z</time>
      </trkpt>
      <trkpt lat="49.34287" lon="-0.57252">
        <ele>6.87</ele>
        <time>2016-08-07T12:52:19Z</time>
      </trkpt>
      <trkpt lat="49.34314" lon="-0.57258">
        <ele>7.35</ele>
        <time>2016-08-07T12:52:26Z</time>
      </trkpt>
      <trkpt lat="49.34317" lon="-0.57263">
        <ele>7.35</ele>
        <time>2016-08-07T12:52:27Z</time>
      </trkpt>
      <trkpt lat="49.34318" lon="-0.57269">
        <ele>7.35</ele>
        <time>2016-08-07T12:52:28Z</time>
      </trkpt>
      <trkpt lat="49.34319" lon="-0.57276">
        <ele>7.35</ele>
        <time>2016-08-07T12:52:29Z</time>
      </trkpt>
      <trkpt lat="49.34319" lon="-0.57283">
        <ele>7.83</ele>
        <time>2016-08-07T12:52:30Z</time>
      </trkpt>
      <trkpt lat="49.34318" lon="-0.5729">
        <ele>7.83</ele>
        <time>2016-08-07T12:52:31Z</time>
      </trkpt>
      <trkpt lat="49.34317" lon="-0.57296">
        <ele>7.35</ele>
        <time>2016-08-07T12:52:32Z</time>
      </trkpt>
      <trkpt lat="49.34316" lon="-0.57303">
        <ele>7.35</ele>
        <time>2016-08-07T12:52:33Z</time>
      </trkpt>
      <trkpt lat="49.34315" lon="-0.57311">
        <ele>7.35</ele>
        <time>2016-08-07T12:52:34Z</time>
      </trkpt>
      <trkpt lat="49.34314" lon="-0.57318">
        <ele>7.35</ele>
        <time>2016-08-07T12:52:35Z</time>
      </trkpt>
      <trkpt lat="49.34313" lon="-0.57325">
        <ele>7.35</ele>
        <time>2016-08-07T12:52:36Z</time>
      </trkpt>
      <trkpt lat="49.343" lon="-0.57375">
        <ele>7.83</ele>
        <time>2016-08-07T12:52:43Z</time>
      </trkpt>
      <trkpt lat="49.34288" lon="-0.5741">
        <ele>6.87</ele>
        <time>2016-08-07T12:52:48Z</time>
      </trkpt>
      <trkpt lat="49.34287" lon="-0.57418">
        <ele>6.87</ele>
        <time>2016-08-07T12:52:49Z</time>
      </trkpt>
      <trkpt lat="49.34285" lon="-0.57426">
        <ele>6.87</ele>
        <time>2016-08-07T12:52:50Z</time>
      </trkpt>
      <trkpt lat="49.34284" lon="-0.57434">
        <ele>6.87</ele>
        <time>2016-08-07T12:52:51Z</time>
      </trkpt>
      <trkpt lat="49.34283" lon="-0.57442">
        <ele>6.87</ele>
        <time>2016-08-07T12:52:52Z</time>
      </trkpt>
      <trkpt lat="49.34282" lon="-0.5745">
        <ele>7.35</ele>
        <time>2016-08-07T12:52:53Z</time>
      </trkpt>
      <trkpt lat="49.34281" lon="-0.57466">
        <ele>7.35</ele>
        <time>2016-08-07T12:52:55Z</time>
      </trkpt>
      <trkpt lat="49.34279" lon="-0.57473">
        <ele>6.87</ele>
        <time>2016-08-07T12:52:56Z</time>
      </trkpt>
      <trkpt lat="49.34277" lon="-0.5748">
        <ele>6.39</ele>
        <time>2016-08-07T12:52:57Z</time>
      </trkpt>
      <trkpt lat="49.34274" lon="-0.57486">
        <ele>6.39</ele>
        <time>2016-08-07T12:52:58Z</time>
      </trkpt>
      <trkpt lat="49.3427" lon="-0.57491">
        <ele>6.39</ele>
        <time>2016-08-07T12:52:59Z</time>
      </trkpt>
      <trkpt lat="49.34265" lon="-0.57494">
        <ele>6.39</ele>
        <time>2016-08-07T12:53:00Z</time>
      </trkpt>
      <trkpt lat="49.3426" lon="-0.57497">
        <ele>6.39</ele>
        <time>2016-08-07T12:53:01Z</time>
      </trkpt>
      <trkpt lat="49.34251" lon="-0.57503">
        <ele>5.91</ele>
        <time>2016-08-07T12:53:03Z</time>
      </trkpt>
      <trkpt lat="49.34245" lon="-0.57504">
        <ele>5.91</ele>
        <time>2016-08-07T12:53:04Z</time>
      </trkpt>
      <trkpt lat="49.3424" lon="-0.57505">
        <ele>5.91</ele>
        <time>2016-08-07T12:53:05Z</time>
      </trkpt>
      <trkpt lat="49.34235" lon="-0.57505">
        <ele>5.42</ele>
        <time>2016-08-07T12:53:06Z</time>
      </trkpt>
      <trkpt lat="49.3423" lon="-0.57505">
        <ele>5.42</ele>
        <time>2016-08-07T12:53:07Z</time>
      </trkpt>
      <trkpt lat="49.3422" lon="-0.57505">
        <ele>5.42</ele>
        <time>2016-08-07T12:53:09Z</time>
      </trkpt>
      <trkpt lat="49.34215" lon="-0.57506">
        <ele>5.42</ele>
        <time>2016-08-07T12:53:10Z</time>
      </trkpt>
      <trkpt lat="49.34201" lon="-0.57511">
        <ele>5.42</ele>
        <time>2016-08-07T12:53:13Z</time>
      </trkpt>
      <trkpt lat="49.34197" lon="-0.57513">
        <ele>5.42</ele>
        <time>2016-08-07T12:53:14Z</time>
      </trkpt>
      <trkpt lat="49.34194" lon="-0.57516">
        <ele>5.42</ele>
        <time>2016-08-07T12:53:15Z</time>
      </trkpt>
      <trkpt lat="49.34191" lon="-0.57521">
        <ele>5.91</ele>
        <time>2016-08-07T12:53:16Z</time>
      </trkpt>
      <trkpt lat="49.34189" lon="-0.57528">
        <ele>5.91</ele>
        <time>2016-08-07T12:53:17Z</time>
      </trkpt>
      <trkpt lat="49.34188" lon="-0.57534">
        <ele>5.91</ele>
        <time>2016-08-07T12:53:18Z</time>
      </trkpt>
      <trkpt lat="49.34166" lon="-0.57634">
        <ele>6.39</ele>
        <time>2016-08-07T12:53:31Z</time>
      </trkpt>
      <trkpt lat="49.34143" lon="-0.57752">
        <ele>5.42</ele>
        <time>2016-08-07T12:53:46Z</time>
      </trkpt>
      <trkpt lat="49.34139" lon="-0.57768">
        <ele>5.42</ele>
        <time>2016-08-07T12:53:48Z</time>
      </trkpt>
      <trkpt lat="49.34127" lon="-0.57835">
        <ele>5.91</ele>
        <time>2016-08-07T12:53:59Z</time>
      </trkpt>
      <trkpt lat="49.34121" lon="-0.57857">
        <ele>5.42</ele>
        <time>2016-08-07T12:54:03Z</time>
      </trkpt>
      <trkpt lat="49.34119" lon="-0.57864">
        <ele>4.94</ele>
        <time>2016-08-07T12:54:04Z</time>
      </trkpt>
      <trkpt lat="49.34117" lon="-0.57871">
        <ele>4.94</ele>
        <time>2016-08-07T12:54:05Z</time>
      </trkpt>
      <trkpt lat="49.34096" lon="-0.57981">
        <ele>4.94</ele>
        <time>2016-08-07T12:54:19Z</time>
      </trkpt>
      <trkpt lat="49.34091" lon="-0.58005">
        <ele>5.42</ele>
        <time>2016-08-07T12:54:22Z</time>
      </trkpt>
      <trkpt lat="49.34089" lon="-0.58013">
        <ele>5.42</ele>
        <time>2016-08-07T12:54:23Z</time>
      </trkpt>
      <trkpt lat="49.34069" lon="-0.58116">
        <ele>5.91</ele>
        <time>2016-08-07T12:54:36Z</time>
      </trkpt>
      <trkpt lat="49.34048" lon="-0.58225">
        <ele>4.94</ele>
        <time>2016-08-07T12:54:50Z</time>
      </trkpt>
      <trkpt lat="49.34034" lon="-0.58297">
        <ele>5.42</ele>
        <time>2016-08-07T12:55:03Z</time>
      </trkpt>
      <trkpt lat="49.34035" lon="-0.58299">
        <ele>5.42</ele>
        <time>2016-08-07T12:55:04Z</time>
      </trkpt>
      <trkpt lat="49.34037" lon="-0.58301">
        <ele>5.42</ele>
        <time>2016-08-07T12:55:05Z</time>
      </trkpt>
      <trkpt lat="49.3404" lon="-0.58303">
        <ele>5.42</ele>
        <time>2016-08-07T12:55:06Z</time>
      </trkpt>
      <trkpt lat="49.34044" lon="-0.58304">
        <ele>5.91</ele>
        <time>2016-08-07T12:55:07Z</time>
      </trkpt>
      <trkpt lat="49.34049" lon="-0.58305">
        <ele>5.91</ele>
        <time>2016-08-07T12:55:08Z</time>
      </trkpt>
      <trkpt lat="49.34056" lon="-0.58306">
        <ele>5.91</ele>
        <time>2016-08-07T12:55:09Z</time>
      </trkpt>
      <trkpt lat="49.34062" lon="-0.58308">
        <ele>5.91</ele>
        <time>2016-08-07T12:55:10Z</time>
      </trkpt>
      <trkpt lat="49.34068" lon="-0.58309">
        <ele>5.91</ele>
        <time>2016-08-07T12:55:11Z</time>
      </trkpt>
      <trkpt lat="49.34074" lon="-0.5831">
        <ele>5.91</ele>
        <time>2016-08-07T12:55:12Z</time>
      </trkpt>
      <trkpt lat="49.3408" lon="-0.5831">
        <ele>5.91</ele>
        <time>2016-08-07T12:55:13Z</time>
      </trkpt>
      <trkpt lat="49.34086" lon="-0.58311">
        <ele>5.91</ele>
        <time>2016-08-07T12:55:14Z</time>
      </trkpt>
      <trkpt lat="49.34122" lon="-0.58319">
        <ele>6.39</ele>
        <time>2016-08-07T12:55:20Z</time>
      </trkpt>
      <trkpt lat="49.34128" lon="-0.5832">
        <ele>6.39</ele>
        <time>2016-08-07T12:55:21Z</time>
      </trkpt>
      <trkpt lat="49.34133" lon="-0.58323">
        <ele>6.39</ele>
        <time>2016-08-07T12:55:22Z</time>
      </trkpt>
      <trkpt lat="49.34138" lon="-0.58327">
        <ele>6.39</ele>
        <time>2016-08-07T12:55:23Z</time>
      </trkpt>
      <trkpt lat="49.34142" lon="-0.58332">
        <ele>5.91</ele>
        <time>2016-08-07T12:55:24Z</time>
      </trkpt>
      <trkpt lat="49.34146" lon="-0.58338">
        <ele>5.91</ele>
        <time>2016-08-07T12:55:25Z</time>
      </trkpt>
      <trkpt lat="49.34149" lon="-0.58345">
        <ele>6.39</ele>
        <time>2016-08-07T12:55:26Z</time>
      </trkpt>
      <trkpt lat="49.34151" lon="-0.58352">
        <ele>6.39</ele>
        <time>2016-08-07T12:55:27Z</time>
      </trkpt>
      <trkpt lat="49.34153" lon="-0.5836">
        <ele>6.39</ele>
        <time>2016-08-07T12:55:28Z</time>
      </trkpt>
      <trkpt lat="49.34153" lon="-0.58368">
        <ele>6.39</ele>
        <time>2016-08-07T12:55:29Z</time>
      </trkpt>
      <trkpt lat="49.34154" lon="-0.58375">
        <ele>6.39</ele>
        <time>2016-08-07T12:55:30Z</time>
      </trkpt>
      <trkpt lat="49.34154" lon="-0.58382">
        <ele>6.39</ele>
        <time>2016-08-07T12:55:31Z</time>
      </trkpt>
      <trkpt lat="49.34153" lon="-0.58388">
        <ele>6.87</ele>
        <time>2016-08-07T12:55:32Z</time>
      </trkpt>
      <trkpt lat="49.34152" lon="-0.58394">
        <ele>6.87</ele>
        <time>2016-08-07T12:55:33Z</time>
      </trkpt>
      <trkpt lat="49.34152" lon="-0.584">
        <ele>6.87</ele>
        <time>2016-08-07T12:55:34Z</time>
      </trkpt>
      <trkpt lat="49.34154" lon="-0.58405">
        <ele>6.87</ele>
        <time>2016-08-07T12:55:35Z</time>
      </trkpt>
      <trkpt lat="49.34157" lon="-0.58409">
        <ele>6.87</ele>
        <time>2016-08-07T12:55:36Z</time>
      </trkpt>
      <trkpt lat="49.3416" lon="-0.58411">
        <ele>7.35</ele>
        <time>2016-08-07T12:55:37Z</time>
      </trkpt>
      <trkpt lat="49.34163" lon="-0.58413">
        <ele>7.35</ele>
        <time>2016-08-07T12:55:38Z</time>
      </trkpt>
      <trkpt lat="49.34166" lon="-0.58415">
        <ele>7.35</ele>
        <time>2016-08-07T12:55:39Z</time>
      </trkpt>
      <trkpt lat="49.34169" lon="-0.58417">
        <ele>7.83</ele>
        <time>2016-08-07T12:55:40Z</time>
      </trkpt>
      <trkpt lat="49.34173" lon="-0.58419">
        <ele>7.83</ele>
        <time>2016-08-07T12:55:41Z</time>
      </trkpt>
      <trkpt lat="49.34175" lon="-0.5842">
        <ele>7.83</ele>
        <time>2016-08-07T12:55:42Z</time>
      </trkpt>
      <trkpt lat="49.34205" lon="-0.58437">
        <ele>7.83</ele>
        <time>2016-08-07T12:55:54Z</time>
      </trkpt>
      <trkpt lat="49.34214" lon="-0.58471">
        <ele>7.83</ele>
        <time>2016-08-07T12:56:03Z</time>
      </trkpt>
      <trkpt lat="49.34214" lon="-0.58475">
        <ele>7.35</ele>
        <time>2016-08-07T12:56:04Z</time>
      </trkpt>
      <trkpt lat="49.34213" lon="-0.5848">
        <ele>7.35</ele>
        <time>2016-08-07T12:56:05Z</time>
      </trkpt>
      <trkpt lat="49.34208" lon="-0.58506">
        <ele>7.35</ele>
        <time>2016-08-07T12:56:10Z</time>
      </trkpt>
      <trkpt lat="49.34207" lon="-0.58512">
        <ele>7.35</ele>
        <time>2016-08-07T12:56:11Z</time>
      </trkpt>
      <trkpt lat="49.34208" lon="-0.58519">
        <ele>6.87</ele>
        <time>2016-08-07T12:56:12Z</time>
      </trkpt>
      <trkpt lat="49.34209" lon="-0.5854">
        <ele>6.87</ele>
        <time>2016-08-07T12:56:15Z</time>
      </trkpt>
      <trkpt lat="49.34191" lon="-0.58658">
        <ele>7.83</ele>
        <time>2016-08-07T12:56:31Z</time>
      </trkpt>
      <trkpt lat="49.3418" lon="-0.58711">
        <ele>7.35</ele>
        <time>2016-08-07T12:56:38Z</time>
      </trkpt>
      <trkpt lat="49.3418" lon="-0.58718">
        <ele>7.35</ele>
        <time>2016-08-07T12:56:39Z</time>
      </trkpt>
      <trkpt lat="49.34179" lon="-0.58726">
        <ele>7.35</ele>
        <time>2016-08-07T12:56:40Z</time>
      </trkpt>
      <trkpt lat="49.34178" lon="-0.58734">
        <ele>7.35</ele>
        <time>2016-08-07T12:56:41Z</time>
      </trkpt>
      <trkpt lat="49.34176" lon="-0.58742">
        <ele>7.35</ele>
        <time>2016-08-07T12:56:42Z</time>
      </trkpt>
      <trkpt lat="49.34146" lon="-0.58883">
        <ele>6.39</ele>
        <time>2016-08-07T12:57:01Z</time>
      </trkpt>
      <trkpt lat="49.34127" lon="-0.58969">
        <ele>6.87</ele>
        <time>2016-08-07T12:57:17Z</time>
      </trkpt>
      <trkpt lat="49.34113" lon="-0.59056">
        <ele>6.87</ele>
        <time>2016-08-07T12:57:32Z</time>
      </trkpt>
      <trkpt lat="49.34105" lon="-0.59089">
        <ele>6.39</ele>
        <time>2016-08-07T12:57:39Z</time>
      </trkpt>
      <trkpt lat="49.34103" lon="-0.59093">
        <ele>6.39</ele>
        <time>2016-08-07T12:57:40Z</time>
      </trkpt>
      <trkpt lat="49.34102" lon="-0.59099">
        <ele>6.39</ele>
        <time>2016-08-07T12:57:41Z</time>
      </trkpt>
      <trkpt lat="49.34092" lon="-0.5917">
        <ele>6.39</ele>
        <time>2016-08-07T12:57:54Z</time>
      </trkpt>
      <trkpt lat="49.3409" lon="-0.59174">
        <ele>6.39</ele>
        <time>2016-08-07T12:57:55Z</time>
      </trkpt>
      <trkpt lat="49.34089" lon="-0.59178">
        <ele>6.39</ele>
        <time>2016-08-07T12:57:56Z</time>
      </trkpt>
      <trkpt lat="49.34088" lon="-0.59184">
        <ele>6.39</ele>
        <time>2016-08-07T12:57:57Z</time>
      </trkpt>
      <trkpt lat="49.34088" lon="-0.5919">
        <ele>6.39</ele>
        <time>2016-08-07T12:57:58Z</time>
      </trkpt>
      <trkpt lat="49.34087" lon="-0.59195">
        <ele>5.91</ele>
        <time>2016-08-07T12:57:59Z</time>
      </trkpt>
      <trkpt lat="49.3408" lon="-0.59253">
        <ele>6.39</ele>
        <time>2016-08-07T12:58:12Z</time>
      </trkpt>
      <trkpt lat="49.34079" lon="-0.59267">
        <ele>6.87</ele>
        <time>2016-08-07T12:58:23Z</time>
      </trkpt>
      <trkpt lat="49.34077" lon="-0.59278">
        <ele>7.35</ele>
        <time>2016-08-07T12:58:26Z</time>
      </trkpt>
      <trkpt lat="49.34065" lon="-0.59354">
        <ele>7.83</ele>
        <time>2016-08-07T12:58:38Z</time>
      </trkpt>
      <trkpt lat="49.34064" lon="-0.5936">
        <ele>7.83</ele>
        <time>2016-08-07T12:58:39Z</time>
      </trkpt>
      <trkpt lat="49.34063" lon="-0.59366">
        <ele>7.83</ele>
        <time>2016-08-07T12:58:40Z</time>
      </trkpt>
      <trkpt lat="49.34062" lon="-0.59372">
        <ele>7.83</ele>
        <time>2016-08-07T12:58:41Z</time>
      </trkpt>
      <trkpt lat="49.34061" lon="-0.59379">
        <ele>7.83</ele>
        <time>2016-08-07T12:58:42Z</time>
      </trkpt>
      <trkpt lat="49.3405" lon="-0.59469">
        <ele>7.83</ele>
        <time>2016-08-07T12:58:57Z</time>
      </trkpt>
      <trkpt lat="49.34038" lon="-0.59546">
        <ele>7.35</ele>
        <time>2016-08-07T12:59:13Z</time>
      </trkpt>
      <trkpt lat="49.34035" lon="-0.59553">
        <ele>6.87</ele>
        <time>2016-08-07T12:59:15Z</time>
      </trkpt>
      <trkpt lat="49.34032" lon="-0.59555">
        <ele>6.87</ele>
        <time>2016-08-07T12:59:16Z</time>
      </trkpt>
      <trkpt lat="49.34005" lon="-0.59574">
        <ele>6.39</ele>
        <time>2016-08-07T12:59:26Z</time>
      </trkpt>
      <trkpt lat="49.34002" lon="-0.59578">
        <ele>6.39</ele>
        <time>2016-08-07T12:59:27Z</time>
      </trkpt>
      <trkpt lat="49.33957" lon="-0.59607">
        <ele>8.31</ele>
        <time>2016-08-07T12:59:40Z</time>
      </trkpt>
      <trkpt lat="49.3395" lon="-0.59615">
        <ele>8.79</ele>
        <time>2016-08-07T12:59:42Z</time>
      </trkpt>
      <trkpt lat="49.33947" lon="-0.5962">
        <ele>8.79</ele>
        <time>2016-08-07T12:59:43Z</time>
      </trkpt>
      <trkpt lat="49.33944" lon="-0.59626">
        <ele>8.79</ele>
        <time>2016-08-07T12:59:44Z</time>
      </trkpt>
      <trkpt lat="49.33939" lon="-0.59638">
        <ele>8.31</ele>
        <time>2016-08-07T12:59:46Z</time>
      </trkpt>
      <trkpt lat="49.33931" lon="-0.59655">
        <ele>8.31</ele>
        <time>2016-08-07T12:59:49Z</time>
      </trkpt>
      <trkpt lat="49.33881" lon="-0.59758">
        <ele>8.31</ele>
        <time>2016-08-07T13:00:05Z</time>
      </trkpt>
      <trkpt lat="49.33864" lon="-0.59794">
        <ele>8.31</ele>
        <time>2016-08-07T13:00:11Z</time>
      </trkpt>
      <trkpt lat="49.33861" lon="-0.59799">
        <ele>8.31</ele>
        <time>2016-08-07T13:00:12Z</time>
      </trkpt>
      <trkpt lat="49.33853" lon="-0.59809">
        <ele>8.31</ele>
        <time>2016-08-07T13:00:14Z</time>
      </trkpt>
      <trkpt lat="49.3385" lon="-0.59815">
        <ele>8.31</ele>
        <time>2016-08-07T13:00:15Z</time>
      </trkpt>
      <trkpt lat="49.33806" lon="-0.5994">
        <ele>7.83</ele>
        <time>2016-08-07T13:00:32Z</time>
      </trkpt>
      <trkpt lat="49.33777" lon="-0.60102">
        <ele>8.79</ele>
        <time>2016-08-07T13:00:52Z</time>
      </trkpt>
      <trkpt lat="49.33773" lon="-0.60161">
        <ele>9.27</ele>
        <time>2016-08-07T13:00:59Z</time>
      </trkpt>
      <trkpt lat="49.33775" lon="-0.60277">
        <ele>11.19</ele>
        <time>2016-08-07T13:01:14Z</time>
      </trkpt>
      <trkpt lat="49.33775" lon="-0.60285">
        <ele>11.19</ele>
        <time>2016-08-07T13:01:15Z</time>
      </trkpt>
      <trkpt lat="49.3378" lon="-0.60333">
        <ele>12.63</ele>
        <time>2016-08-07T13:01:22Z</time>
      </trkpt>
      <trkpt lat="49.33781" lon="-0.6034">
        <ele>12.63</ele>
        <time>2016-08-07T13:01:23Z</time>
      </trkpt>
      <trkpt lat="49.33796" lon="-0.60407">
        <ele>15.52</ele>
        <time>2016-08-07T13:01:35Z</time>
      </trkpt>
      <trkpt lat="49.33806" lon="-0.60447">
        <ele>18.88</ele>
        <time>2016-08-07T13:01:44Z</time>
      </trkpt>
      <trkpt lat="49.33809" lon="-0.60448">
        <ele>19.36</ele>
        <time>2016-08-07T13:01:45Z</time>
      </trkpt>
      <trkpt lat="49.33812" lon="-0.60448">
        <ele>19.36</ele>
        <time>2016-08-07T13:01:46Z</time>
      </trkpt>
      <trkpt lat="49.33815" lon="-0.60447">
        <ele>19.36</ele>
        <time>2016-08-07T13:01:47Z</time>
      </trkpt>
      <trkpt lat="49.33818" lon="-0.60446">
        <ele>19.36</ele>
        <time>2016-08-07T13:01:48Z</time>
      </trkpt>
      <trkpt lat="49.33837" lon="-0.60444">
        <ele>19.84</ele>
        <time>2016-08-07T13:01:54Z</time>
      </trkpt>
      <trkpt lat="49.33838" lon="-0.60442">
        <ele>19.84</ele>
        <time>2016-08-07T13:01:55Z</time>
      </trkpt>
      <trkpt lat="49.3384" lon="-0.60441">
        <ele>20.32</ele>
        <time>2016-08-07T13:01:56Z</time>
      </trkpt>
      <trkpt lat="49.33842" lon="-0.60441">
        <ele>19.84</ele>
        <time>2016-08-07T13:01:57Z</time>
      </trkpt>
      <trkpt lat="49.33843" lon="-0.60443">
        <ele>19.36</ele>
        <time>2016-08-07T13:01:58Z</time>
      </trkpt>
      <trkpt lat="49.33843" lon="-0.60445">
        <ele>19.36</ele>
        <time>2016-08-07T13:01:59Z</time>
      </trkpt>
      <trkpt lat="49.33841" lon="-0.60447">
        <ele>19.36</ele>
        <time>2016-08-07T13:02:00Z</time>
      </trkpt>
      <trkpt lat="49.33838" lon="-0.60447">
        <ele>19.36</ele>
        <time>2016-08-07T13:02:01Z</time>
      </trkpt>
      <trkpt lat="49.33836" lon="-0.60448">
        <ele>19.36</ele>
        <time>2016-08-07T13:02:02Z</time>
      </trkpt>
      <trkpt lat="49.33834" lon="-0.60448">
        <ele>19.36</ele>
        <time>2016-08-07T13:02:03Z</time>
      </trkpt>
      <trkpt lat="49.33811" lon="-0.60456">
        <ele>18.4</ele>
        <time>2016-08-07T13:02:13Z</time>
      </trkpt>
      <trkpt lat="49.3381" lon="-0.60459">
        <ele>18.4</ele>
        <time>2016-08-07T13:02:14Z</time>
      </trkpt>
      <trkpt lat="49.3381" lon="-0.60463">
        <ele>18.4</ele>
        <time>2016-08-07T13:02:15Z</time>
      </trkpt>
      <trkpt lat="49.33811" lon="-0.60467">
        <ele>18.4</ele>
        <time>2016-08-07T13:02:16Z</time>
      </trkpt>
      <trkpt lat="49.33812" lon="-0.60472">
        <ele>18.88</ele>
        <time>2016-08-07T13:02:17Z</time>
      </trkpt>
      <trkpt lat="49.33813" lon="-0.60477">
        <ele>19.36</ele>
        <time>2016-08-07T13:02:18Z</time>
      </trkpt>
      <trkpt lat="49.33814" lon="-0.60482">
        <ele>19.84</ele>
        <time>2016-08-07T13:02:19Z</time>
      </trkpt>
      <trkpt lat="49.33815" lon="-0.60487">
        <ele>20.32</ele>
        <time>2016-08-07T13:02:20Z</time>
      </trkpt>
      <trkpt lat="49.33817" lon="-0.60492">
        <ele>20.32</ele>
        <time>2016-08-07T13:02:21Z</time>
      </trkpt>
      <trkpt lat="49.3383" lon="-0.60535">
        <ele>23.21</ele>
        <time>2016-08-07T13:02:32Z</time>
      </trkpt>
      <trkpt lat="49.33849" lon="-0.60589">
        <ele>27.05</ele>
        <time>2016-08-07T13:02:44Z</time>
      </trkpt>
      <trkpt lat="49.33873" lon="-0.60667">
        <ele>32.82</ele>
        <time>2016-08-07T13:03:01Z</time>
      </trkpt>
      <trkpt lat="49.33888" lon="-0.60719">
        <ele>36.19</ele>
        <time>2016-08-07T13:03:14Z</time>
      </trkpt>
      <trkpt lat="49.33894" lon="-0.60766">
        <ele>38.59</ele>
        <time>2016-08-07T13:03:26Z</time>
      </trkpt>
      <trkpt lat="49.33898" lon="-0.60816">
        <ele>42.92</ele>
        <time>2016-08-07T13:03:40Z</time>
      </trkpt>
      <trkpt lat="49.33897" lon="-0.60866">
        <ele>45.8</ele>
        <time>2016-08-07T13:03:53Z</time>
      </trkpt>
      <trkpt lat="49.33895" lon="-0.60885">
        <ele>46.76</ele>
        <time>2016-08-07T13:04:03Z</time>
      </trkpt>
      <trkpt lat="49.33891" lon="-0.60894">
        <ele>46.28</ele>
        <time>2016-08-07T13:04:12Z</time>
      </trkpt>
      <trkpt lat="49.33891" lon="-0.60897">
        <ele>46.28</ele>
        <time>2016-08-07T13:04:13Z</time>
      </trkpt>
      <trkpt lat="49.33891" lon="-0.609">
        <ele>46.28</ele>
        <time>2016-08-07T13:04:14Z</time>
      </trkpt>
      <trkpt lat="49.3389" lon="-0.60903">
        <ele>46.28</ele>
        <time>2016-08-07T13:04:15Z</time>
      </trkpt>
      <trkpt lat="49.3389" lon="-0.60906">
        <ele>46.28</ele>
        <time>2016-08-07T13:04:16Z</time>
      </trkpt>
      <trkpt lat="49.3389" lon="-0.6091">
        <ele>46.76</ele>
        <time>2016-08-07T13:04:17Z</time>
      </trkpt>
      <trkpt lat="49.33885" lon="-0.60971">
        <ele>48.68</ele>
        <time>2016-08-07T13:04:33Z</time>
      </trkpt>
      <trkpt lat="49.33879" lon="-0.61045">
        <ele>50.13</ele>
        <time>2016-08-07T13:04:51Z</time>
      </trkpt>
      <trkpt lat="49.33876" lon="-0.61123">
        <ele>51.09</ele>
        <time>2016-08-07T13:05:07Z</time>
      </trkpt>
      <trkpt lat="49.33878" lon="-0.61215">
        <ele>51.09</ele>
        <time>2016-08-07T13:05:24Z</time>
      </trkpt>
      <trkpt lat="49.33885" lon="-0.61307">
        <ele>51.57</ele>
        <time>2016-08-07T13:05:39Z</time>
      </trkpt>
      <trkpt lat="49.33895" lon="-0.61429">
        <ele>53.97</ele>
        <time>2016-08-07T13:05:58Z</time>
      </trkpt>
      <trkpt lat="49.33908" lon="-0.61518">
        <ele>53.49</ele>
        <time>2016-08-07T13:06:14Z</time>
      </trkpt>
      <trkpt lat="49.33922" lon="-0.61579">
        <ele>53.01</ele>
        <time>2016-08-07T13:06:27Z</time>
      </trkpt>
      <trkpt lat="49.33931" lon="-0.61634">
        <ele>53.01</ele>
        <time>2016-08-07T13:06:39Z</time>
      </trkpt>
      <trkpt lat="49.33923" lon="-0.61685">
        <ele>53.01</ele>
        <time>2016-08-07T13:06:50Z</time>
      </trkpt>
      <trkpt lat="49.33907" lon="-0.61721">
        <ele>53.01</ele>
        <time>2016-08-07T13:07:00Z</time>
      </trkpt>
      <trkpt lat="49.33907" lon="-0.61724">
        <ele>53.01</ele>
        <time>2016-08-07T13:07:01Z</time>
      </trkpt>
      <trkpt lat="49.33907" lon="-0.61727">
        <ele>53.01</ele>
        <time>2016-08-07T13:07:13Z</time>
      </trkpt>
      <trkpt lat="49.33906" lon="-0.61729">
        <ele>53.01</ele>
        <time>2016-08-07T13:07:14Z</time>
      </trkpt>
      <trkpt lat="49.33905" lon="-0.61732">
        <ele>53.01</ele>
        <time>2016-08-07T13:07:15Z</time>
      </trkpt>
      <trkpt lat="49.33906" lon="-0.61735">
        <ele>52.53</ele>
        <time>2016-08-07T13:07:16Z</time>
      </trkpt>
      <trkpt lat="49.33906" lon="-0.61737">
        <ele>52.53</ele>
        <time>2016-08-07T13:07:17Z</time>
      </trkpt>
      <trkpt lat="49.33906" lon="-0.6174">
        <ele>52.53</ele>
        <time>2016-08-07T13:07:18Z</time>
      </trkpt>
      <trkpt lat="49.33904" lon="-0.61759">
        <ele>51.09</ele>
        <time>2016-08-07T13:07:24Z</time>
      </trkpt>
      <trkpt lat="49.33902" lon="-0.61761">
        <ele>51.09</ele>
        <time>2016-08-07T13:07:25Z</time>
      </trkpt>
      <trkpt lat="49.33901" lon="-0.61762">
        <ele>50.61</ele>
        <time>2016-08-07T13:07:26Z</time>
      </trkpt>
      <trkpt lat="49.339" lon="-0.61763">
        <ele>50.61</ele>
        <time>2016-08-07T13:07:27Z</time>
      </trkpt>
      <trkpt lat="49.33899" lon="-0.61763">
        <ele>50.61</ele>
        <time>2016-08-07T13:07:28Z</time>
      </trkpt>
      <trkpt lat="49.33897" lon="-0.61764">
        <ele>50.61</ele>
        <time>2016-08-07T13:07:29Z</time>
      </trkpt>
      <trkpt lat="49.33896" lon="-0.61765">
        <ele>50.61</ele>
        <time>2016-08-07T13:07:30Z</time>
      </trkpt>
      <trkpt lat="49.33895" lon="-0.61766">
        <ele>50.61</ele>
        <time>2016-08-07T13:07:31Z</time>
      </trkpt>
      <trkpt lat="49.33893" lon="-0.61766">
        <ele>50.13</ele>
        <time>2016-08-07T13:07:32Z</time>
      </trkpt>
      <trkpt lat="49.33892" lon="-0.61767">
        <ele>50.13</ele>
        <time>2016-08-07T13:07:33Z</time>
      </trkpt>
      <trkpt lat="49.33886" lon="-0.61771">
        <ele>50.13</ele>
        <time>2016-08-07T13:07:47Z</time>
      </trkpt>
      <trkpt lat="49.33886" lon="-0.61771">
        <ele>50.61</ele>
        <time>2016-08-07T13:08:04Z</time>
      </trkpt>
      <trkpt lat="49.33885" lon="-0.61769">
        <ele>51.57</ele>
        <time>2016-08-07T13:08:28Z</time>
      </trkpt>
      <trkpt lat="49.33884" lon="-0.61768">
        <ele>52.53</ele>
        <time>2016-08-07T13:09:06Z</time>
      </trkpt>
      <trkpt lat="49.33886" lon="-0.61767">
        <ele>53.97</ele>
        <time>2016-08-07T13:09:23Z</time>
      </trkpt>
      <trkpt lat="49.33888" lon="-0.61766">
        <ele>53.97</ele>
        <time>2016-08-07T13:09:24Z</time>
      </trkpt>
      <trkpt lat="49.33889" lon="-0.61765">
        <ele>54.45</ele>
        <time>2016-08-07T13:09:25Z</time>
      </trkpt>
      <trkpt lat="49.33891" lon="-0.61764">
        <ele>54.45</ele>
        <time>2016-08-07T13:09:26Z</time>
      </trkpt>
      <trkpt lat="49.33894" lon="-0.61763">
        <ele>54.45</ele>
        <time>2016-08-07T13:09:27Z</time>
      </trkpt>
      <trkpt lat="49.33904" lon="-0.61756">
        <ele>54.93</ele>
        <time>2016-08-07T13:09:31Z</time>
      </trkpt>
      <trkpt lat="49.33904" lon="-0.61752">
        <ele>54.93</ele>
        <time>2016-08-07T13:09:32Z</time>
      </trkpt>
      <trkpt lat="49.33904" lon="-0.61747">
        <ele>55.41</ele>
        <time>2016-08-07T13:09:33Z</time>
      </trkpt>
      <trkpt lat="49.33904" lon="-0.61743">
        <ele>55.41</ele>
        <time>2016-08-07T13:09:34Z</time>
      </trkpt>
      <trkpt lat="49.33904" lon="-0.61738">
        <ele>55.41</ele>
        <time>2016-08-07T13:09:35Z</time>
      </trkpt>
      <trkpt lat="49.33904" lon="-0.61734">
        <ele>55.89</ele>
        <time>2016-08-07T13:09:36Z</time>
      </trkpt>
      <trkpt lat="49.33918" lon="-0.61693">
        <ele>56.37</ele>
        <time>2016-08-07T13:09:46Z</time>
      </trkpt>
      <trkpt lat="49.33934" lon="-0.61644">
        <ele>55.89</ele>
        <time>2016-08-07T13:09:56Z</time>
      </trkpt>
      <trkpt lat="49.33939" lon="-0.61638">
        <ele>55.89</ele>
        <time>2016-08-07T13:10:05Z</time>
      </trkpt>
      <trkpt lat="49.3394" lon="-0.6164">
        <ele>55.41</ele>
        <time>2016-08-07T13:10:07Z</time>
      </trkpt>
      <trkpt lat="49.33941" lon="-0.61642">
        <ele>55.41</ele>
        <time>2016-08-07T13:10:08Z</time>
      </trkpt>
      <trkpt lat="49.33942" lon="-0.61643">
        <ele>54.93</ele>
        <time>2016-08-07T13:10:09Z</time>
      </trkpt>
      <trkpt lat="49.33942" lon="-0.61645">
        <ele>54.93</ele>
        <time>2016-08-07T13:10:10Z</time>
      </trkpt>
      <trkpt lat="49.33943" lon="-0.61647">
        <ele>54.93</ele>
        <time>2016-08-07T13:10:11Z</time>
      </trkpt>
      <trkpt lat="49.33943" lon="-0.61648">
        <ele>54.45</ele>
        <time>2016-08-07T13:10:12Z</time>
      </trkpt>
      <trkpt lat="49.33944" lon="-0.61649">
        <ele>53.97</ele>
        <time>2016-08-07T13:10:13Z</time>
      </trkpt>
      <trkpt lat="49.33945" lon="-0.61651">
        <ele>53.97</ele>
        <time>2016-08-07T13:10:14Z</time>
      </trkpt>
      <trkpt lat="49.33945" lon="-0.61652">
        <ele>53.97</ele>
        <time>2016-08-07T13:10:15Z</time>
      </trkpt>
      <trkpt lat="49.33946" lon="-0.61654">
        <ele>53.49</ele>
        <time>2016-08-07T13:10:16Z</time>
      </trkpt>
      <trkpt lat="49.33949" lon="-0.61661">
        <ele>53.49</ele>
        <time>2016-08-07T13:10:21Z</time>
      </trkpt>
      <trkpt lat="49.33952" lon="-0.61665">
        <ele>53.49</ele>
        <time>2016-08-07T13:10:25Z</time>
      </trkpt>
      <trkpt lat="49.33952" lon="-0.61667">
        <ele>53.49</ele>
        <time>2016-08-07T13:10:26Z</time>
      </trkpt>
      <trkpt lat="49.33966" lon="-0.61687">
        <ele>51.09</ele>
        <time>2016-08-07T13:10:45Z</time>
      </trkpt>
      <trkpt lat="49.33973" lon="-0.61702">
        <ele>49.65</ele>
        <time>2016-08-07T13:11:00Z</time>
      </trkpt>
      <trkpt lat="49.33975" lon="-0.6171">
        <ele>48.68</ele>
        <time>2016-08-07T13:11:13Z</time>
      </trkpt>
      <trkpt lat="49.33976" lon="-0.6171">
        <ele>48.68</ele>
        <time>2016-08-07T13:11:41Z</time>
      </trkpt>
      <trkpt lat="49.33974" lon="-0.61707">
        <ele>49.16</ele>
        <time>2016-08-07T13:12:13Z</time>
      </trkpt>
      <trkpt lat="49.33971" lon="-0.61702">
        <ele>49.65</ele>
        <time>2016-08-07T13:12:17Z</time>
      </trkpt>
      <trkpt lat="49.33969" lon="-0.61697">
        <ele>50.13</ele>
        <time>2016-08-07T13:12:31Z</time>
      </trkpt>
      <trkpt lat="49.33961" lon="-0.6168">
        <ele>51.57</ele>
        <time>2016-08-07T13:12:46Z</time>
      </trkpt>
      <trkpt lat="49.33951" lon="-0.61662">
        <ele>52.53</ele>
        <time>2016-08-07T13:13:04Z</time>
      </trkpt>
      <trkpt lat="49.3394" lon="-0.61641">
        <ele>52.53</ele>
        <time>2016-08-07T13:13:21Z</time>
      </trkpt>
      <trkpt lat="49.33939" lon="-0.61637">
        <ele>53.01</ele>
        <time>2016-08-07T13:13:28Z</time>
      </trkpt>
      <trkpt lat="49.33939" lon="-0.61634">
        <ele>53.01</ele>
        <time>2016-08-07T13:13:29Z</time>
      </trkpt>
      <trkpt lat="49.3394" lon="-0.61631">
        <ele>53.01</ele>
        <time>2016-08-07T13:13:30Z</time>
      </trkpt>
      <trkpt lat="49.33939" lon="-0.61584">
        <ele>53.01</ele>
        <time>2016-08-07T13:13:39Z</time>
      </trkpt>
      <trkpt lat="49.33934" lon="-0.61577">
        <ele>53.01</ele>
        <time>2016-08-07T13:13:41Z</time>
      </trkpt>
      <trkpt lat="49.33911" lon="-0.61544">
        <ele>53.49</ele>
        <time>2016-08-07T13:13:51Z</time>
      </trkpt>
      <trkpt lat="49.33909" lon="-0.61535">
        <ele>53.49</ele>
        <time>2016-08-07T13:13:53Z</time>
      </trkpt>
      <trkpt lat="49.33907" lon="-0.61534">
        <ele>53.49</ele>
        <time>2016-08-07T13:13:54Z</time>
      </trkpt>
      <trkpt lat="49.33905" lon="-0.61535">
        <ele>53.97</ele>
        <time>2016-08-07T13:13:55Z</time>
      </trkpt>
      <trkpt lat="49.33904" lon="-0.61539">
        <ele>53.97</ele>
        <time>2016-08-07T13:13:56Z</time>
      </trkpt>
      <trkpt lat="49.33904" lon="-0.61544">
        <ele>53.97</ele>
        <time>2016-08-07T13:13:57Z</time>
      </trkpt>
      <trkpt lat="49.33905" lon="-0.61549">
        <ele>54.45</ele>
        <time>2016-08-07T13:13:58Z</time>
      </trkpt>
      <trkpt lat="49.33906" lon="-0.61556">
        <ele>54.45</ele>
        <time>2016-08-07T13:13:59Z</time>
      </trkpt>
      <trkpt lat="49.33906" lon="-0.61563">
        <ele>54.45</ele>
        <time>2016-08-07T13:14:00Z</time>
      </trkpt>
      <trkpt lat="49.33907" lon="-0.61571">
        <ele>54.45</ele>
        <time>2016-08-07T13:14:01Z</time>
      </trkpt>
      <trkpt lat="49.33907" lon="-0.61578">
        <ele>54.45</ele>
        <time>2016-08-07T13:14:02Z</time>
      </trkpt>
      <trkpt lat="49.33907" lon="-0.61593">
        <ele>54.45</ele>
        <time>2016-08-07T13:14:04Z</time>
      </trkpt>
      <trkpt lat="49.33879" lon="-0.61706">
        <ele>53.97</ele>
        <time>2016-08-07T13:14:21Z</time>
      </trkpt>
      <trkpt lat="49.33873" lon="-0.61717">
        <ele>54.45</ele>
        <time>2016-08-07T13:14:23Z</time>
      </trkpt>
      <trkpt lat="49.3386" lon="-0.61737">
        <ele>54.45</ele>
        <time>2016-08-07T13:14:27Z</time>
      </trkpt>
      <trkpt lat="49.33801" lon="-0.61785">
        <ele>54.45</ele>
        <time>2016-08-07T13:14:42Z</time>
      </trkpt>
      <trkpt lat="49.33775" lon="-0.61791">
        <ele>54.45</ele>
        <time>2016-08-07T13:14:48Z</time>
      </trkpt>
      <trkpt lat="49.33771" lon="-0.61792">
        <ele>54.45</ele>
        <time>2016-08-07T13:14:49Z</time>
      </trkpt>
      <trkpt lat="49.33766" lon="-0.61793">
        <ele>54.45</ele>
        <time>2016-08-07T13:14:50Z</time>
      </trkpt>
      <trkpt lat="49.33757" lon="-0.61795">
        <ele>54.45</ele>
        <time>2016-08-07T13:14:52Z</time>
      </trkpt>
      <trkpt lat="49.33752" lon="-0.61796">
        <ele>54.45</ele>
        <time>2016-08-07T13:14:53Z</time>
      </trkpt>
      <trkpt lat="49.3372" lon="-0.61802">
        <ele>53.49</ele>
        <time>2016-08-07T13:15:00Z</time>
      </trkpt>
      <trkpt lat="49.33715" lon="-0.61804">
        <ele>53.01</ele>
        <time>2016-08-07T13:15:01Z</time>
      </trkpt>
      <trkpt lat="49.3371" lon="-0.61805">
        <ele>52.53</ele>
        <time>2016-08-07T13:15:02Z</time>
      </trkpt>
      <trkpt lat="49.33624" lon="-0.61827">
        <ele>48.68</ele>
        <time>2016-08-07T13:15:16Z</time>
      </trkpt>
      <trkpt lat="49.33585" lon="-0.61848">
        <ele>46.76</ele>
        <time>2016-08-07T13:15:21Z</time>
      </trkpt>
      <trkpt lat="49.33577" lon="-0.61856">
        <ele>46.28</ele>
        <time>2016-08-07T13:15:22Z</time>
      </trkpt>
      <trkpt lat="49.3357" lon="-0.61866">
        <ele>45.8</ele>
        <time>2016-08-07T13:15:23Z</time>
      </trkpt>
      <trkpt lat="49.33564" lon="-0.61876">
        <ele>45.8</ele>
        <time>2016-08-07T13:15:24Z</time>
      </trkpt>
      <trkpt lat="49.33559" lon="-0.61888">
        <ele>45.32</ele>
        <time>2016-08-07T13:15:25Z</time>
      </trkpt>
      <trkpt lat="49.33555" lon="-0.619">
        <ele>45.32</ele>
        <time>2016-08-07T13:15:26Z</time>
      </trkpt>
      <trkpt lat="49.33553" lon="-0.61912">
        <ele>45.32</ele>
        <time>2016-08-07T13:15:27Z</time>
      </trkpt>
      <trkpt lat="49.33551" lon="-0.61924">
        <ele>44.84</ele>
        <time>2016-08-07T13:15:28Z</time>
      </trkpt>
      <trkpt lat="49.3355" lon="-0.61935">
        <ele>44.36</ele>
        <time>2016-08-07T13:15:29Z</time>
      </trkpt>
      <trkpt lat="49.33549" lon="-0.61945">
        <ele>44.36</ele>
        <time>2016-08-07T13:15:30Z</time>
      </trkpt>
      <trkpt lat="49.33547" lon="-0.61952">
        <ele>43.4</ele>
        <time>2016-08-07T13:15:31Z</time>
      </trkpt>
      <trkpt lat="49.33542" lon="-0.61957">
        <ele>42.92</ele>
        <time>2016-08-07T13:15:32Z</time>
      </trkpt>
      <trkpt lat="49.33537" lon="-0.61958">
        <ele>42.92</ele>
        <time>2016-08-07T13:15:33Z</time>
      </trkpt>
      <trkpt lat="49.33532" lon="-0.61957">
        <ele>42.44</ele>
        <time>2016-08-07T13:15:34Z</time>
      </trkpt>
      <trkpt lat="49.33528" lon="-0.61955">
        <ele>42.44</ele>
        <time>2016-08-07T13:15:35Z</time>
      </trkpt>
      <trkpt lat="49.3352" lon="-0.6195">
        <ele>42.92</ele>
        <time>2016-08-07T13:15:37Z</time>
      </trkpt>
      <trkpt lat="49.33516" lon="-0.61946">
        <ele>43.4</ele>
        <time>2016-08-07T13:15:38Z</time>
      </trkpt>
      <trkpt lat="49.33512" lon="-0.61942">
        <ele>43.4</ele>
        <time>2016-08-07T13:15:39Z</time>
      </trkpt>
      <trkpt lat="49.33505" lon="-0.61934">
        <ele>43.4</ele>
        <time>2016-08-07T13:15:41Z</time>
      </trkpt>
      <trkpt lat="49.33503" lon="-0.61929">
        <ele>43.4</ele>
        <time>2016-08-07T13:15:42Z</time>
      </trkpt>
      <trkpt lat="49.335" lon="-0.61924">
        <ele>44.36</ele>
        <time>2016-08-07T13:15:43Z</time>
      </trkpt>
      <trkpt lat="49.33474" lon="-0.61846">
        <ele>48.68</ele>
        <time>2016-08-07T13:15:57Z</time>
      </trkpt>
      <trkpt lat="49.33452" lon="-0.61751">
        <ele>52.53</ele>
        <time>2016-08-07T13:16:13Z</time>
      </trkpt>
      <trkpt lat="49.33432" lon="-0.61684">
        <ele>53.97</ele>
        <time>2016-08-07T13:16:24Z</time>
      </trkpt>
      <trkpt lat="49.33416" lon="-0.61628">
        <ele>54.93</ele>
        <time>2016-08-07T13:16:34Z</time>
      </trkpt>
      <trkpt lat="49.33417" lon="-0.61622">
        <ele>54.93</ele>
        <time>2016-08-07T13:16:35Z</time>
      </trkpt>
      <trkpt lat="49.3342" lon="-0.61617">
        <ele>55.41</ele>
        <time>2016-08-07T13:16:36Z</time>
      </trkpt>
      <trkpt lat="49.33423" lon="-0.61613">
        <ele>55.41</ele>
        <time>2016-08-07T13:16:37Z</time>
      </trkpt>
      <trkpt lat="49.33428" lon="-0.61611">
        <ele>55.41</ele>
        <time>2016-08-07T13:16:38Z</time>
      </trkpt>
      <trkpt lat="49.33432" lon="-0.61609">
        <ele>55.41</ele>
        <time>2016-08-07T13:16:39Z</time>
      </trkpt>
      <trkpt lat="49.33437" lon="-0.61607">
        <ele>54.93</ele>
        <time>2016-08-07T13:16:40Z</time>
      </trkpt>
      <trkpt lat="49.33442" lon="-0.61604">
        <ele>54.93</ele>
        <time>2016-08-07T13:16:41Z</time>
      </trkpt>
      <trkpt lat="49.33526" lon="-0.61561">
        <ele>56.86</ele>
        <time>2016-08-07T13:16:58Z</time>
      </trkpt>
      <trkpt lat="49.33603" lon="-0.61519">
        <ele>57.82</ele>
        <time>2016-08-07T13:17:13Z</time>
      </trkpt>
      <trkpt lat="49.33648" lon="-0.61494">
        <ele>57.34</ele>
        <time>2016-08-07T13:17:21Z</time>
      </trkpt>
      <trkpt lat="49.33736" lon="-0.61435">
        <ele>56.86</ele>
        <time>2016-08-07T13:17:36Z</time>
      </trkpt>
      <trkpt lat="49.33824" lon="-0.61361">
        <ele>56.37</ele>
        <time>2016-08-07T13:17:51Z</time>
      </trkpt>
      <trkpt lat="49.33848" lon="-0.61339">
        <ele>55.89</ele>
        <time>2016-08-07T13:17:55Z</time>
      </trkpt>
      <trkpt lat="49.33876" lon="-0.61324">
        <ele>54.93</ele>
        <time>2016-08-07T13:18:03Z</time>
      </trkpt>
      <trkpt lat="49.33878" lon="-0.61322">
        <ele>54.93</ele>
        <time>2016-08-07T13:18:08Z</time>
      </trkpt>
      <trkpt lat="49.33879" lon="-0.6132">
        <ele>54.93</ele>
        <time>2016-08-07T13:18:09Z</time>
      </trkpt>
      <trkpt lat="49.3388" lon="-0.61316">
        <ele>54.93</ele>
        <time>2016-08-07T13:18:10Z</time>
      </trkpt>
      <trkpt lat="49.33881" lon="-0.61311">
        <ele>54.93</ele>
        <time>2016-08-07T13:18:11Z</time>
      </trkpt>
      <trkpt lat="49.3388" lon="-0.61305">
        <ele>54.93</ele>
        <time>2016-08-07T13:18:12Z</time>
      </trkpt>
      <trkpt lat="49.33879" lon="-0.61299">
        <ele>54.93</ele>
        <time>2016-08-07T13:18:13Z</time>
      </trkpt>
      <trkpt lat="49.33877" lon="-0.61284">
        <ele>54.45</ele>
        <time>2016-08-07T13:18:15Z</time>
      </trkpt>
      <trkpt lat="49.33871" lon="-0.61191">
        <ele>52.53</ele>
        <time>2016-08-07T13:18:24Z</time>
      </trkpt>
      <trkpt lat="49.33873" lon="-0.61083">
        <ele>51.57</ele>
        <time>2016-08-07T13:18:34Z</time>
      </trkpt>
      <trkpt lat="49.33878" lon="-0.61044">
        <ele>51.09</ele>
        <time>2016-08-07T13:18:38Z</time>
      </trkpt>
      <trkpt lat="49.3388" lon="-0.61038">
        <ele>51.09</ele>
        <time>2016-08-07T13:18:39Z</time>
      </trkpt>
      <trkpt lat="49.33885" lon="-0.61025">
        <ele>50.61</ele>
        <time>2016-08-07T13:18:43Z</time>
      </trkpt>
      <trkpt lat="49.33885" lon="-0.61021">
        <ele>50.61</ele>
        <time>2016-08-07T13:18:50Z</time>
      </trkpt>
      <trkpt lat="49.33888" lon="-0.61016">
        <ele>51.09</ele>
        <time>2016-08-07T13:19:05Z</time>
      </trkpt>
      <trkpt lat="49.33887" lon="-0.61016">
        <ele>51.57</ele>
        <time>2016-08-07T13:19:45Z</time>
      </trkpt>
      <trkpt lat="49.33887" lon="-0.61016">
        <ele>51.09</ele>
        <time>2016-08-07T13:20:13Z</time>
      </trkpt>
      <trkpt lat="49.33885" lon="-0.61019">
        <ele>52.05</ele>
        <time>2016-08-07T13:20:23Z</time>
      </trkpt>
      <trkpt lat="49.33884" lon="-0.61018">
        <ele>52.05</ele>
        <time>2016-08-07T13:20:24Z</time>
      </trkpt>
      <trkpt lat="49.33883" lon="-0.61015">
        <ele>52.05</ele>
        <time>2016-08-07T13:20:25Z</time>
      </trkpt>
      <trkpt lat="49.33882" lon="-0.61012">
        <ele>52.05</ele>
        <time>2016-08-07T13:20:26Z</time>
      </trkpt>
      <trkpt lat="49.33881" lon="-0.61008">
        <ele>52.05</ele>
        <time>2016-08-07T13:20:27Z</time>
      </trkpt>
      <trkpt lat="49.3388" lon="-0.61002">
        <ele>52.05</ele>
        <time>2016-08-07T13:20:28Z</time>
      </trkpt>
      <trkpt lat="49.3388" lon="-0.60995">
        <ele>52.05</ele>
        <time>2016-08-07T13:20:29Z</time>
      </trkpt>
      <trkpt lat="49.33881" lon="-0.60988">
        <ele>51.57</ele>
        <time>2016-08-07T13:20:30Z</time>
      </trkpt>
      <trkpt lat="49.33882" lon="-0.60981">
        <ele>51.57</ele>
        <time>2016-08-07T13:20:31Z</time>
      </trkpt>
      <trkpt lat="49.33883" lon="-0.60972">
        <ele>51.57</ele>
        <time>2016-08-07T13:20:32Z</time>
      </trkpt>
      <trkpt lat="49.33883" lon="-0.60964">
        <ele>51.09</ele>
        <time>2016-08-07T13:20:33Z</time>
      </trkpt>
      <trkpt lat="49.33891" lon="-0.60836">
        <ele>46.28</ele>
        <time>2016-08-07T13:20:43Z</time>
      </trkpt>
      <trkpt lat="49.3387" lon="-0.6068">
        <ele>38.59</ele>
        <time>2016-08-07T13:20:51Z</time>
      </trkpt>
      <trkpt lat="49.33808" lon="-0.6048">
        <ele>26.57</ele>
        <time>2016-08-07T13:21:01Z</time>
      </trkpt>
      <trkpt lat="49.33787" lon="-0.60399">
        <ele>20.81</ele>
        <time>2016-08-07T13:21:08Z</time>
      </trkpt>
      <trkpt lat="49.33768" lon="-0.60217">
        <ele>12.63</ele>
        <time>2016-08-07T13:21:19Z</time>
      </trkpt>
      <trkpt lat="49.33784" lon="-0.60015">
        <ele>8.79</ele>
        <time>2016-08-07T13:21:31Z</time>
      </trkpt>
      <trkpt lat="49.3384" lon="-0.59823">
        <ele>8.31</ele>
        <time>2016-08-07T13:21:44Z</time>
      </trkpt>
      <trkpt lat="49.33923" lon="-0.59654">
        <ele>9.75</ele>
        <time>2016-08-07T13:21:58Z</time>
      </trkpt>
      <trkpt lat="49.33967" lon="-0.5954">
        <ele>9.75</ele>
        <time>2016-08-07T13:22:09Z</time>
      </trkpt>
      <trkpt lat="49.33969" lon="-0.59529">
        <ele>10.23</ele>
        <time>2016-08-07T13:22:10Z</time>
      </trkpt>
      <trkpt lat="49.33985" lon="-0.5934">
        <ele>9.75</ele>
        <time>2016-08-07T13:22:25Z</time>
      </trkpt>
      <trkpt lat="49.33987" lon="-0.5929">
        <ele>9.27</ele>
        <time>2016-08-07T13:22:29Z</time>
      </trkpt>
      <trkpt lat="49.33984" lon="-0.59108">
        <ele>10.23</ele>
        <time>2016-08-07T13:22:43Z</time>
      </trkpt>
      <trkpt lat="49.33981" lon="-0.58935">
        <ele>11.19</ele>
        <time>2016-08-07T13:22:57Z</time>
      </trkpt>
      <trkpt lat="49.33979" lon="-0.58824">
        <ele>9.27</ele>
        <time>2016-08-07T13:23:09Z</time>
      </trkpt>
      <trkpt lat="49.33978" lon="-0.58754">
        <ele>8.79</ele>
        <time>2016-08-07T13:23:20Z</time>
      </trkpt>
      <trkpt lat="49.33978" lon="-0.58655">
        <ele>8.31</ele>
        <time>2016-08-07T13:23:32Z</time>
      </trkpt>
      <trkpt lat="49.33977" lon="-0.58646">
        <ele>8.31</ele>
        <time>2016-08-07T13:23:33Z</time>
      </trkpt>
      <trkpt lat="49.33975" lon="-0.58619">
        <ele>8.31</ele>
        <time>2016-08-07T13:23:36Z</time>
      </trkpt>
      <trkpt lat="49.33961" lon="-0.5848">
        <ele>7.83</ele>
        <time>2016-08-07T13:23:50Z</time>
      </trkpt>
      <trkpt lat="49.33943" lon="-0.58302">
        <ele>7.35</ele>
        <time>2016-08-07T13:24:06Z</time>
      </trkpt>
      <trkpt lat="49.33925" lon="-0.58121">
        <ele>6.39</ele>
        <time>2016-08-07T13:24:22Z</time>
      </trkpt>
      <trkpt lat="49.33903" lon="-0.57894">
        <ele>5.91</ele>
        <time>2016-08-07T13:24:42Z</time>
      </trkpt>
      <trkpt lat="49.33902" lon="-0.57884">
        <ele>5.91</ele>
        <time>2016-08-07T13:24:43Z</time>
      </trkpt>
      <trkpt lat="49.33886" lon="-0.57704">
        <ele>5.42</ele>
        <time>2016-08-07T13:24:59Z</time>
      </trkpt>
      <trkpt lat="49.33869" lon="-0.57518">
        <ele>6.39</ele>
        <time>2016-08-07T13:25:16Z</time>
      </trkpt>
      <trkpt lat="49.3385" lon="-0.57318">
        <ele>7.83</ele>
        <time>2016-08-07T13:25:34Z</time>
      </trkpt>
      <trkpt lat="49.33827" lon="-0.57091">
        <ele>6.87</ele>
        <time>2016-08-07T13:25:54Z</time>
      </trkpt>
      <trkpt lat="49.33806" lon="-0.56867">
        <ele>6.39</ele>
        <time>2016-08-07T13:26:13Z</time>
      </trkpt>
      <trkpt lat="49.33789" lon="-0.5665">
        <ele>9.27</ele>
        <time>2016-08-07T13:26:32Z</time>
      </trkpt>
      <trkpt lat="49.3378" lon="-0.5646">
        <ele>9.75</ele>
        <time>2016-08-07T13:26:49Z</time>
      </trkpt>
      <trkpt lat="49.33779" lon="-0.5625">
        <ele>9.75</ele>
        <time>2016-08-07T13:27:07Z</time>
      </trkpt>
      <trkpt lat="49.33784" lon="-0.56096">
        <ele>12.63</ele>
        <time>2016-08-07T13:27:20Z</time>
      </trkpt>
      <trkpt lat="49.33798" lon="-0.55877">
        <ele>12.15</ele>
        <time>2016-08-07T13:27:40Z</time>
      </trkpt>
      <trkpt lat="49.33821" lon="-0.55653">
        <ele>12.63</ele>
        <time>2016-08-07T13:28:01Z</time>
      </trkpt>
      <trkpt lat="49.33844" lon="-0.55454">
        <ele>14.56</ele>
        <time>2016-08-07T13:28:19Z</time>
      </trkpt>
      <trkpt lat="49.33869" lon="-0.55223">
        <ele>15.52</ele>
        <time>2016-08-07T13:28:39Z</time>
      </trkpt>
      <trkpt lat="49.3389" lon="-0.55034">
        <ele>16.48</ele>
        <time>2016-08-07T13:28:55Z</time>
      </trkpt>
      <trkpt lat="49.33915" lon="-0.54807">
        <ele>19.36</ele>
        <time>2016-08-07T13:29:14Z</time>
      </trkpt>
      <trkpt lat="49.33936" lon="-0.54619">
        <ele>20.32</ele>
        <time>2016-08-07T13:29:30Z</time>
      </trkpt>
      <trkpt lat="49.33963" lon="-0.54372">
        <ele>20.81</ele>
        <time>2016-08-07T13:29:51Z</time>
      </trkpt>
      <trkpt lat="49.33987" lon="-0.54159">
        <ele>21.29</ele>
        <time>2016-08-07T13:30:09Z</time>
      </trkpt>
      <trkpt lat="49.34008" lon="-0.53959">
        <ele>21.77</ele>
        <time>2016-08-07T13:30:26Z</time>
      </trkpt>
      <trkpt lat="49.34033" lon="-0.53733">
        <ele>23.69</ele>
        <time>2016-08-07T13:30:46Z</time>
      </trkpt>
      <trkpt lat="49.34055" lon="-0.53526">
        <ele>25.13</ele>
        <time>2016-08-07T13:31:04Z</time>
      </trkpt>
      <trkpt lat="49.34081" lon="-0.53291">
        <ele>24.65</ele>
        <time>2016-08-07T13:31:24Z</time>
      </trkpt>
      <trkpt lat="49.34107" lon="-0.53085">
        <ele>22.73</ele>
        <time>2016-08-07T13:31:40Z</time>
      </trkpt>
      <trkpt lat="49.34143" lon="-0.52869">
        <ele>20.32</ele>
        <time>2016-08-07T13:31:55Z</time>
      </trkpt>
      <trkpt lat="49.34195" lon="-0.52573">
        <ele>16</ele>
        <time>2016-08-07T13:32:13Z</time>
      </trkpt>
      <trkpt lat="49.34243" lon="-0.52302">
        <ele>11.19</ele>
        <time>2016-08-07T13:32:28Z</time>
      </trkpt>
      <trkpt lat="49.34296" lon="-0.52002">
        <ele>8.31</ele>
        <time>2016-08-07T13:32:45Z</time>
      </trkpt>
      <trkpt lat="49.34321" lon="-0.51859">
        <ele>6.87</ele>
        <time>2016-08-07T13:32:57Z</time>
      </trkpt>
      <trkpt lat="49.34347" lon="-0.5165">
        <ele>6.39</ele>
        <time>2016-08-07T13:33:13Z</time>
      </trkpt>
      <trkpt lat="49.34346" lon="-0.51599">
        <ele>5.91</ele>
        <time>2016-08-07T13:33:17Z</time>
      </trkpt>
      <trkpt lat="49.34344" lon="-0.51586">
        <ele>5.91</ele>
        <time>2016-08-07T13:33:18Z</time>
      </trkpt>
      <trkpt lat="49.34341" lon="-0.51574">
        <ele>5.91</ele>
        <time>2016-08-07T13:33:19Z</time>
      </trkpt>
      <trkpt lat="49.34323" lon="-0.51487">
        <ele>6.39</ele>
        <time>2016-08-07T13:33:26Z</time>
      </trkpt>
      <trkpt lat="49.34309" lon="-0.51346">
        <ele>7.83</ele>
        <time>2016-08-07T13:33:37Z</time>
      </trkpt>
      <trkpt lat="49.34302" lon="-0.5126">
        <ele>7.83</ele>
        <time>2016-08-07T13:33:44Z</time>
      </trkpt>
      <trkpt lat="49.34287" lon="-0.51091">
        <ele>4.94</ele>
        <time>2016-08-07T13:33:59Z</time>
      </trkpt>
      <trkpt lat="49.34273" lon="-0.50937">
        <ele>2.54</ele>
        <time>2016-08-07T13:34:13Z</time>
      </trkpt>
      <trkpt lat="49.34259" lon="-0.50756">
        <ele>1.1</ele>
        <time>2016-08-07T13:34:30Z</time>
      </trkpt>
      <trkpt lat="49.34255" lon="-0.50716">
        <ele>1.58</ele>
        <time>2016-08-07T13:34:34Z</time>
      </trkpt>
      <trkpt lat="49.34254" lon="-0.50706">
        <ele>1.58</ele>
        <time>2016-08-07T13:34:35Z</time>
      </trkpt>
      <trkpt lat="49.34241" lon="-0.50558">
        <ele>1.1</ele>
        <time>2016-08-07T13:34:48Z</time>
      </trkpt>
      <trkpt lat="49.34221" lon="-0.5032">
        <ele>0.14</ele>
        <time>2016-08-07T13:35:08Z</time>
      </trkpt>
      <trkpt lat="49.34195" lon="-0.50098">
        <ele>-0.34</ele>
        <time>2016-08-07T13:35:27Z</time>
      </trkpt>
      <trkpt lat="49.34154" lon="-0.49823">
        <ele>0.62</ele>
        <time>2016-08-07T13:35:50Z</time>
      </trkpt>
      <trkpt lat="49.34125" lon="-0.49629">
        <ele>0.62</ele>
        <time>2016-08-07T13:36:06Z</time>
      </trkpt>
      <trkpt lat="49.34091" lon="-0.49421">
        <ele>1.1</ele>
        <time>2016-08-07T13:36:24Z</time>
      </trkpt>
      <trkpt lat="49.34051" lon="-0.49221">
        <ele>0.62</ele>
        <time>2016-08-07T13:36:42Z</time>
      </trkpt>
      <trkpt lat="49.34005" lon="-0.48993">
        <ele>0.62</ele>
        <time>2016-08-07T13:37:02Z</time>
      </trkpt>
      <trkpt lat="49.33957" lon="-0.48761">
        <ele>0.14</ele>
        <time>2016-08-07T13:37:22Z</time>
      </trkpt>
      <trkpt lat="49.33915" lon="-0.48563">
        <ele>1.1</ele>
        <time>2016-08-07T13:37:39Z</time>
      </trkpt>
      <trkpt lat="49.33854" lon="-0.48335">
        <ele>2.54</ele>
        <time>2016-08-07T13:37:59Z</time>
      </trkpt>
      <trkpt lat="49.33805" lon="-0.48163">
        <ele>3.5</ele>
        <time>2016-08-07T13:38:15Z</time>
      </trkpt>
      <trkpt lat="49.33752" lon="-0.47972">
        <ele>3.02</ele>
        <time>2016-08-07T13:38:33Z</time>
      </trkpt>
      <trkpt lat="49.33728" lon="-0.47879">
        <ele>3.02</ele>
        <time>2016-08-07T13:38:43Z</time>
      </trkpt>
      <trkpt lat="49.33706" lon="-0.47802">
        <ele>3.98</ele>
        <time>2016-08-07T13:38:55Z</time>
      </trkpt>
      <trkpt lat="49.33706" lon="-0.47799">
        <ele>3.98</ele>
        <time>2016-08-07T13:38:56Z</time>
      </trkpt>
      <trkpt lat="49.33708" lon="-0.47796">
        <ele>3.98</ele>
        <time>2016-08-07T13:38:57Z</time>
      </trkpt>
      <trkpt lat="49.33711" lon="-0.47794">
        <ele>3.98</ele>
        <time>2016-08-07T13:38:58Z</time>
      </trkpt>
      <trkpt lat="49.33729" lon="-0.47793">
        <ele>3.98</ele>
        <time>2016-08-07T13:39:02Z</time>
      </trkpt>
      <trkpt lat="49.33733" lon="-0.47791">
        <ele>3.98</ele>
        <time>2016-08-07T13:39:03Z</time>
      </trkpt>
      <trkpt lat="49.3379" lon="-0.47753">
        <ele>5.42</ele>
        <time>2016-08-07T13:39:18Z</time>
      </trkpt>
      <trkpt lat="49.33817" lon="-0.47738">
        <ele>5.42</ele>
        <time>2016-08-07T13:39:28Z</time>
      </trkpt>
      <trkpt lat="49.33818" lon="-0.4774">
        <ele>5.42</ele>
        <time>2016-08-07T13:39:29Z</time>
      </trkpt>
      <trkpt lat="49.33818" lon="-0.47743">
        <ele>5.42</ele>
        <time>2016-08-07T13:39:30Z</time>
      </trkpt>
      <trkpt lat="49.33816" lon="-0.47744">
        <ele>5.42</ele>
        <time>2016-08-07T13:39:31Z</time>
      </trkpt>
      <trkpt lat="49.33813" lon="-0.47744">
        <ele>5.42</ele>
        <time>2016-08-07T13:39:32Z</time>
      </trkpt>
      <trkpt lat="49.33811" lon="-0.47744">
        <ele>5.42</ele>
        <time>2016-08-07T13:39:33Z</time>
      </trkpt>
      <trkpt lat="49.33808" lon="-0.47746">
        <ele>5.42</ele>
        <time>2016-08-07T13:39:34Z</time>
      </trkpt>
      <trkpt lat="49.33804" lon="-0.47749">
        <ele>5.91</ele>
        <time>2016-08-07T13:39:35Z</time>
      </trkpt>
      <trkpt lat="49.33799" lon="-0.47752">
        <ele>5.91</ele>
        <time>2016-08-07T13:39:36Z</time>
      </trkpt>
      <trkpt lat="49.33764" lon="-0.47772">
        <ele>5.42</ele>
        <time>2016-08-07T13:39:44Z</time>
      </trkpt>
      <trkpt lat="49.3376" lon="-0.47775">
        <ele>5.42</ele>
        <time>2016-08-07T13:39:45Z</time>
      </trkpt>
      <trkpt lat="49.33727" lon="-0.47798">
        <ele>4.94</ele>
        <time>2016-08-07T13:39:56Z</time>
      </trkpt>
      <trkpt lat="49.33717" lon="-0.47801">
        <ele>4.46</ele>
        <time>2016-08-07T13:39:58Z</time>
      </trkpt>
      <trkpt lat="49.33712" lon="-0.47799">
        <ele>4.46</ele>
        <time>2016-08-07T13:39:59Z</time>
      </trkpt>
      <trkpt lat="49.33707" lon="-0.47795">
        <ele>4.46</ele>
        <time>2016-08-07T13:40:00Z</time>
      </trkpt>
      <trkpt lat="49.33702" lon="-0.47789">
        <ele>4.94</ele>
        <time>2016-08-07T13:40:01Z</time>
      </trkpt>
      <trkpt lat="49.33699" lon="-0.47781">
        <ele>4.94</ele>
        <time>2016-08-07T13:40:02Z</time>
      </trkpt>
      <trkpt lat="49.33696" lon="-0.47772">
        <ele>4.94</ele>
        <time>2016-08-07T13:40:03Z</time>
      </trkpt>
      <trkpt lat="49.33693" lon="-0.47763">
        <ele>5.42</ele>
        <time>2016-08-07T13:40:04Z</time>
      </trkpt>
      <trkpt lat="49.3369" lon="-0.47753">
        <ele>5.42</ele>
        <time>2016-08-07T13:40:05Z</time>
      </trkpt>
      <trkpt lat="49.33637" lon="-0.47568">
        <ele>4.94</ele>
        <time>2016-08-07T13:40:23Z</time>
      </trkpt>
      <trkpt lat="49.33575" lon="-0.47355">
        <ele>4.46</ele>
        <time>2016-08-07T13:40:44Z</time>
      </trkpt>
      <trkpt lat="49.33522" lon="-0.47177">
        <ele>4.46</ele>
        <time>2016-08-07T13:41:02Z</time>
      </trkpt>
      <trkpt lat="49.335" lon="-0.47098">
        <ele>7.35</ele>
        <time>2016-08-07T13:41:13Z</time>
      </trkpt>
      <trkpt lat="49.33492" lon="-0.47077">
        <ele>7.35</ele>
        <time>2016-08-07T13:41:21Z</time>
      </trkpt>
      <trkpt lat="49.33491" lon="-0.47074">
        <ele>7.35</ele>
        <time>2016-08-07T13:41:22Z</time>
      </trkpt>
      <trkpt lat="49.33491" lon="-0.47069">
        <ele>7.35</ele>
        <time>2016-08-07T13:41:23Z</time>
      </trkpt>
      <trkpt lat="49.33493" lon="-0.47064">
        <ele>7.35</ele>
        <time>2016-08-07T13:41:24Z</time>
      </trkpt>
      <trkpt lat="49.33497" lon="-0.47061">
        <ele>6.87</ele>
        <time>2016-08-07T13:41:25Z</time>
      </trkpt>
      <trkpt lat="49.33501" lon="-0.47058">
        <ele>6.87</ele>
        <time>2016-08-07T13:41:26Z</time>
      </trkpt>
      <trkpt lat="49.33507" lon="-0.47056">
        <ele>6.87</ele>
        <time>2016-08-07T13:41:27Z</time>
      </trkpt>
      <trkpt lat="49.33512" lon="-0.47054">
        <ele>6.87</ele>
        <time>2016-08-07T13:41:28Z</time>
      </trkpt>
      <trkpt lat="49.33518" lon="-0.47051">
        <ele>6.87</ele>
        <time>2016-08-07T13:41:29Z</time>
      </trkpt>
      <trkpt lat="49.33525" lon="-0.47048">
        <ele>6.87</ele>
        <time>2016-08-07T13:41:30Z</time>
      </trkpt>
      <trkpt lat="49.33531" lon="-0.47043">
        <ele>6.87</ele>
        <time>2016-08-07T13:41:31Z</time>
      </trkpt>
      <trkpt lat="49.33642" lon="-0.46972">
        <ele>5.91</ele>
        <time>2016-08-07T13:41:48Z</time>
      </trkpt>
      <trkpt lat="49.33688" lon="-0.46942">
        <ele>6.87</ele>
        <time>2016-08-07T13:41:57Z</time>
      </trkpt>
      <trkpt lat="49.33692" lon="-0.4694">
        <ele>6.87</ele>
        <time>2016-08-07T13:41:58Z</time>
      </trkpt>
      <trkpt lat="49.33699" lon="-0.46934">
        <ele>6.87</ele>
        <time>2016-08-07T13:42:00Z</time>
      </trkpt>
      <trkpt lat="49.33703" lon="-0.46929">
        <ele>6.87</ele>
        <time>2016-08-07T13:42:01Z</time>
      </trkpt>
      <trkpt lat="49.33705" lon="-0.46925">
        <ele>7.35</ele>
        <time>2016-08-07T13:42:02Z</time>
      </trkpt>
      <trkpt lat="49.33707" lon="-0.4692">
        <ele>6.87</ele>
        <time>2016-08-07T13:42:03Z</time>
      </trkpt>
      <trkpt lat="49.33708" lon="-0.46915">
        <ele>6.87</ele>
        <time>2016-08-07T13:42:04Z</time>
      </trkpt>
      <trkpt lat="49.33709" lon="-0.4691">
        <ele>6.87</ele>
        <time>2016-08-07T13:42:05Z</time>
      </trkpt>
      <trkpt lat="49.3371" lon="-0.46902">
        <ele>6.87</ele>
        <time>2016-08-07T13:42:13Z</time>
      </trkpt>
      <trkpt lat="49.3371" lon="-0.46902">
        <ele>6.87</ele>
        <time>2016-08-07T13:42:25Z</time>
      </trkpt>
      <trkpt lat="49.33711" lon="-0.46901">
        <ele>6.87</ele>
        <time>2016-08-07T13:42:26Z</time>
      </trkpt>
      <trkpt lat="49.33712" lon="-0.46898">
        <ele>6.39</ele>
        <time>2016-08-07T13:42:27Z</time>
      </trkpt>
      <trkpt lat="49.33712" lon="-0.46894">
        <ele>6.39</ele>
        <time>2016-08-07T13:42:28Z</time>
      </trkpt>
      <trkpt lat="49.33713" lon="-0.4689">
        <ele>6.39</ele>
        <time>2016-08-07T13:42:29Z</time>
      </trkpt>
      <trkpt lat="49.33714" lon="-0.46885">
        <ele>6.87</ele>
        <time>2016-08-07T13:42:30Z</time>
      </trkpt>
      <trkpt lat="49.33715" lon="-0.46879">
        <ele>6.87</ele>
        <time>2016-08-07T13:42:31Z</time>
      </trkpt>
      <trkpt lat="49.33719" lon="-0.46865">
        <ele>7.35</ele>
        <time>2016-08-07T13:42:33Z</time>
      </trkpt>
      <trkpt lat="49.33719" lon="-0.46858">
        <ele>7.83</ele>
        <time>2016-08-07T13:42:34Z</time>
      </trkpt>
      <trkpt lat="49.33719" lon="-0.46851">
        <ele>7.83</ele>
        <time>2016-08-07T13:42:35Z</time>
      </trkpt>
      <trkpt lat="49.33708" lon="-0.46758">
        <ele>9.27</ele>
        <time>2016-08-07T13:42:50Z</time>
      </trkpt>
      <trkpt lat="49.33722" lon="-0.46713">
        <ele>9.75</ele>
        <time>2016-08-07T13:42:59Z</time>
      </trkpt>
      <trkpt lat="49.33726" lon="-0.46701">
        <ele>9.75</ele>
        <time>2016-08-07T13:43:01Z</time>
      </trkpt>
      <trkpt lat="49.33727" lon="-0.46695">
        <ele>10.23</ele>
        <time>2016-08-07T13:43:02Z</time>
      </trkpt>
      <trkpt lat="49.33728" lon="-0.4669">
        <ele>10.23</ele>
        <time>2016-08-07T13:43:03Z</time>
      </trkpt>
      <trkpt lat="49.3372" lon="-0.46628">
        <ele>9.75</ele>
        <time>2016-08-07T13:43:14Z</time>
      </trkpt>
      <trkpt lat="49.33717" lon="-0.46615">
        <ele>9.27</ele>
        <time>2016-08-07T13:43:16Z</time>
      </trkpt>
      <trkpt lat="49.33717" lon="-0.46608">
        <ele>9.27</ele>
        <time>2016-08-07T13:43:17Z</time>
      </trkpt>
      <trkpt lat="49.33716" lon="-0.46601">
        <ele>9.27</ele>
        <time>2016-08-07T13:43:18Z</time>
      </trkpt>
      <trkpt lat="49.33708" lon="-0.46555">
        <ele>8.31</ele>
        <time>2016-08-07T13:43:24Z</time>
      </trkpt>
      <trkpt lat="49.33706" lon="-0.46548">
        <ele>7.83</ele>
        <time>2016-08-07T13:43:25Z</time>
      </trkpt>
      <trkpt lat="49.33702" lon="-0.46533">
        <ele>7.83</ele>
        <time>2016-08-07T13:43:27Z</time>
      </trkpt>
      <trkpt lat="49.337" lon="-0.46525">
        <ele>7.35</ele>
        <time>2016-08-07T13:43:28Z</time>
      </trkpt>
      <trkpt lat="49.33685" lon="-0.46488">
        <ele>6.87</ele>
        <time>2016-08-07T13:43:37Z</time>
      </trkpt>
      <trkpt lat="49.33682" lon="-0.46488">
        <ele>6.87</ele>
        <time>2016-08-07T13:43:38Z</time>
      </trkpt>
      <trkpt lat="49.33679" lon="-0.46488">
        <ele>6.87</ele>
        <time>2016-08-07T13:43:39Z</time>
      </trkpt>
      <trkpt lat="49.33658" lon="-0.46494">
        <ele>7.35</ele>
        <time>2016-08-07T13:43:44Z</time>
      </trkpt>
      <trkpt lat="49.33618" lon="-0.46502">
        <ele>7.35</ele>
        <time>2016-08-07T13:43:52Z</time>
      </trkpt>
      <trkpt lat="49.33613" lon="-0.46504">
        <ele>7.35</ele>
        <time>2016-08-07T13:43:53Z</time>
      </trkpt>
      <trkpt lat="49.33608" lon="-0.46508">
        <ele>7.35</ele>
        <time>2016-08-07T13:43:54Z</time>
      </trkpt>
      <trkpt lat="49.33558" lon="-0.46546">
        <ele>6.39</ele>
        <time>2016-08-07T13:44:03Z</time>
      </trkpt>
      <trkpt lat="49.33552" lon="-0.46548">
        <ele>6.39</ele>
        <time>2016-08-07T13:44:04Z</time>
      </trkpt>
      <trkpt lat="49.33504" lon="-0.46559">
        <ele>6.87</ele>
        <time>2016-08-07T13:44:15Z</time>
      </trkpt>
      <trkpt lat="49.33491" lon="-0.46562">
        <ele>7.83</ele>
        <time>2016-08-07T13:44:23Z</time>
      </trkpt>
      <trkpt lat="49.33482" lon="-0.46566">
        <ele>8.31</ele>
        <time>2016-08-07T13:44:35Z</time>
      </trkpt>
      <trkpt lat="49.33481" lon="-0.46568">
        <ele>7.83</ele>
        <time>2016-08-07T13:44:52Z</time>
      </trkpt>
      <trkpt lat="49.33478" lon="-0.46572">
        <ele>7.35</ele>
        <time>2016-08-07T13:45:03Z</time>
      </trkpt>
      <trkpt lat="49.33477" lon="-0.46571">
        <ele>7.35</ele>
        <time>2016-08-07T13:45:08Z</time>
      </trkpt>
      <trkpt lat="49.33474" lon="-0.46569">
        <ele>7.35</ele>
        <time>2016-08-07T13:45:09Z</time>
      </trkpt>
      <trkpt lat="49.33472" lon="-0.46565">
        <ele>6.87</ele>
        <time>2016-08-07T13:45:10Z</time>
      </trkpt>
      <trkpt lat="49.33471" lon="-0.4656">
        <ele>6.39</ele>
        <time>2016-08-07T13:45:11Z</time>
      </trkpt>
      <trkpt lat="49.3347" lon="-0.46555">
        <ele>5.91</ele>
        <time>2016-08-07T13:45:12Z</time>
      </trkpt>
      <trkpt lat="49.3347" lon="-0.4655">
        <ele>5.42</ele>
        <time>2016-08-07T13:45:13Z</time>
      </trkpt>
      <trkpt lat="49.3347" lon="-0.46544">
        <ele>4.94</ele>
        <time>2016-08-07T13:45:14Z</time>
      </trkpt>
      <trkpt lat="49.3347" lon="-0.46538">
        <ele>4.46</ele>
        <time>2016-08-07T13:45:15Z</time>
      </trkpt>
      <trkpt lat="49.33469" lon="-0.4645">
        <ele>4.46</ele>
        <time>2016-08-07T13:45:27Z</time>
      </trkpt>
      <trkpt lat="49.33468" lon="-0.46418">
        <ele>4.94</ele>
        <time>2016-08-07T13:45:31Z</time>
      </trkpt>
      <trkpt lat="49.33464" lon="-0.46302">
        <ele>3.98</ele>
        <time>2016-08-07T13:45:44Z</time>
      </trkpt>
      <trkpt lat="49.33463" lon="-0.46294">
        <ele>3.98</ele>
        <time>2016-08-07T13:45:45Z</time>
      </trkpt>
      <trkpt lat="49.3346" lon="-0.46286">
        <ele>4.46</ele>
        <time>2016-08-07T13:45:46Z</time>
      </trkpt>
      <trkpt lat="49.33457" lon="-0.46278">
        <ele>4.46</ele>
        <time>2016-08-07T13:45:47Z</time>
      </trkpt>
      <trkpt lat="49.33453" lon="-0.4627">
        <ele>4.46</ele>
        <time>2016-08-07T13:45:48Z</time>
      </trkpt>
      <trkpt lat="49.33448" lon="-0.46264">
        <ele>4.46</ele>
        <time>2016-08-07T13:45:49Z</time>
      </trkpt>
      <trkpt lat="49.33443" lon="-0.46258">
        <ele>4.46</ele>
        <time>2016-08-07T13:45:50Z</time>
      </trkpt>
      <trkpt lat="49.33438" lon="-0.46253">
        <ele>4.46</ele>
        <time>2016-08-07T13:45:51Z</time>
      </trkpt>
      <trkpt lat="49.33433" lon="-0.46249">
        <ele>4.46</ele>
        <time>2016-08-07T13:45:52Z</time>
      </trkpt>
      <trkpt lat="49.33427" lon="-0.46245">
        <ele>4.46</ele>
        <time>2016-08-07T13:45:53Z</time>
      </trkpt>
      <trkpt lat="49.33422" lon="-0.46243">
        <ele>4.46</ele>
        <time>2016-08-07T13:45:54Z</time>
      </trkpt>
      <trkpt lat="49.33395" lon="-0.46231">
        <ele>4.94</ele>
        <time>2016-08-07T13:45:59Z</time>
      </trkpt>
      <trkpt lat="49.33389" lon="-0.46233">
        <ele>4.94</ele>
        <time>2016-08-07T13:46:00Z</time>
      </trkpt>
      <trkpt lat="49.33384" lon="-0.46237">
        <ele>4.94</ele>
        <time>2016-08-07T13:46:01Z</time>
      </trkpt>
      <trkpt lat="49.3338" lon="-0.46243">
        <ele>4.46</ele>
        <time>2016-08-07T13:46:02Z</time>
      </trkpt>
      <trkpt lat="49.33376" lon="-0.4625">
        <ele>4.46</ele>
        <time>2016-08-07T13:46:03Z</time>
      </trkpt>
      <trkpt lat="49.33351" lon="-0.46286">
        <ele>3.98</ele>
        <time>2016-08-07T13:46:09Z</time>
      </trkpt>
      <trkpt lat="49.33321" lon="-0.46332">
        <ele>4.94</ele>
        <time>2016-08-07T13:46:17Z</time>
      </trkpt>
      <trkpt lat="49.33317" lon="-0.46339">
        <ele>4.94</ele>
        <time>2016-08-07T13:46:18Z</time>
      </trkpt>
      <trkpt lat="49.33312" lon="-0.46344">
        <ele>5.42</ele>
        <time>2016-08-07T13:46:19Z</time>
      </trkpt>
      <trkpt lat="49.33252" lon="-0.46429">
        <ele>6.39</ele>
        <time>2016-08-07T13:46:34Z</time>
      </trkpt>
      <trkpt lat="49.33212" lon="-0.46484">
        <ele>8.79</ele>
        <time>2016-08-07T13:46:43Z</time>
      </trkpt>
      <trkpt lat="49.33206" lon="-0.46489">
        <ele>8.79</ele>
        <time>2016-08-07T13:46:44Z</time>
      </trkpt>
      <trkpt lat="49.33199" lon="-0.46492">
        <ele>8.79</ele>
        <time>2016-08-07T13:46:45Z</time>
      </trkpt>
      <trkpt lat="49.33193" lon="-0.46493">
        <ele>8.79</ele>
        <time>2016-08-07T13:46:46Z</time>
      </trkpt>
      <trkpt lat="49.33186" lon="-0.46491">
        <ele>8.79</ele>
        <time>2016-08-07T13:46:47Z</time>
      </trkpt>
      <trkpt lat="49.33181" lon="-0.46487">
        <ele>8.79</ele>
        <time>2016-08-07T13:46:48Z</time>
      </trkpt>
      <trkpt lat="49.33176" lon="-0.46482">
        <ele>8.31</ele>
        <time>2016-08-07T13:46:49Z</time>
      </trkpt>
      <trkpt lat="49.33172" lon="-0.46477">
        <ele>8.31</ele>
        <time>2016-08-07T13:46:50Z</time>
      </trkpt>
      <trkpt lat="49.33169" lon="-0.46471">
        <ele>8.31</ele>
        <time>2016-08-07T13:46:51Z</time>
      </trkpt>
      <trkpt lat="49.33156" lon="-0.46453">
        <ele>8.31</ele>
        <time>2016-08-07T13:46:55Z</time>
      </trkpt>
      <trkpt lat="49.33153" lon="-0.46447">
        <ele>7.83</ele>
        <time>2016-08-07T13:46:56Z</time>
      </trkpt>
      <trkpt lat="49.33151" lon="-0.46441">
        <ele>8.31</ele>
        <time>2016-08-07T13:46:57Z</time>
      </trkpt>
      <trkpt lat="49.33149" lon="-0.46435">
        <ele>8.31</ele>
        <time>2016-08-07T13:46:58Z</time>
      </trkpt>
      <trkpt lat="49.33148" lon="-0.46427">
        <ele>8.31</ele>
        <time>2016-08-07T13:46:59Z</time>
      </trkpt>
      <trkpt lat="49.33147" lon="-0.4642">
        <ele>8.31</ele>
        <time>2016-08-07T13:47:00Z</time>
      </trkpt>
      <trkpt lat="49.33148" lon="-0.46412">
        <ele>8.31</ele>
        <time>2016-08-07T13:47:01Z</time>
      </trkpt>
      <trkpt lat="49.33149" lon="-0.46404">
        <ele>8.31</ele>
        <time>2016-08-07T13:47:02Z</time>
      </trkpt>
      <trkpt lat="49.33151" lon="-0.46397">
        <ele>8.31</ele>
        <time>2016-08-07T13:47:03Z</time>
      </trkpt>
      <trkpt lat="49.33153" lon="-0.4639">
        <ele>8.31</ele>
        <time>2016-08-07T13:47:04Z</time>
      </trkpt>
      <trkpt lat="49.33156" lon="-0.46384">
        <ele>8.31</ele>
        <time>2016-08-07T13:47:05Z</time>
      </trkpt>
      <trkpt lat="49.3316" lon="-0.46378">
        <ele>8.31</ele>
        <time>2016-08-07T13:47:06Z</time>
      </trkpt>
      <trkpt lat="49.33164" lon="-0.46374">
        <ele>7.83</ele>
        <time>2016-08-07T13:47:07Z</time>
      </trkpt>
      <trkpt lat="49.33168" lon="-0.46368">
        <ele>7.83</ele>
        <time>2016-08-07T13:47:08Z</time>
      </trkpt>
      <trkpt lat="49.33184" lon="-0.46346">
        <ele>7.83</ele>
        <time>2016-08-07T13:47:17Z</time>
      </trkpt>
      <trkpt lat="49.33185" lon="-0.46346">
        <ele>7.83</ele>
        <time>2016-08-07T13:47:32Z</time>
      </trkpt>
      <trkpt lat="49.33213" lon="-0.46307">
        <ele>6.87</ele>
        <time>2016-08-07T13:47:40Z</time>
      </trkpt>
      <trkpt lat="49.33239" lon="-0.46268">
        <ele>6.87</ele>
        <time>2016-08-07T13:47:46Z</time>
      </trkpt>
      <trkpt lat="49.33246" lon="-0.46255">
        <ele>6.39</ele>
        <time>2016-08-07T13:47:48Z</time>
      </trkpt>
      <trkpt lat="49.33256" lon="-0.46242">
        <ele>5.91</ele>
        <time>2016-08-07T13:47:51Z</time>
      </trkpt>
      <trkpt lat="49.3326" lon="-0.46237">
        <ele>5.42</ele>
        <time>2016-08-07T13:47:52Z</time>
      </trkpt>
      <trkpt lat="49.33265" lon="-0.46233">
        <ele>5.42</ele>
        <time>2016-08-07T13:47:53Z</time>
      </trkpt>
      <trkpt lat="49.33269" lon="-0.46228">
        <ele>4.94</ele>
        <time>2016-08-07T13:47:54Z</time>
      </trkpt>
      <trkpt lat="49.33273" lon="-0.46222">
        <ele>4.94</ele>
        <time>2016-08-07T13:47:55Z</time>
      </trkpt>
      <trkpt lat="49.33277" lon="-0.46216">
        <ele>4.94</ele>
        <time>2016-08-07T13:47:56Z</time>
      </trkpt>
      <trkpt lat="49.33301" lon="-0.4618">
        <ele>5.42</ele>
        <time>2016-08-07T13:48:02Z</time>
      </trkpt>
      <trkpt lat="49.33304" lon="-0.46174">
        <ele>5.42</ele>
        <time>2016-08-07T13:48:03Z</time>
      </trkpt>
      <trkpt lat="49.33323" lon="-0.46147">
        <ele>5.42</ele>
        <time>2016-08-07T13:48:08Z</time>
      </trkpt>
      <trkpt lat="49.33327" lon="-0.46143">
        <ele>5.42</ele>
        <time>2016-08-07T13:48:09Z</time>
      </trkpt>
      <trkpt lat="49.33355" lon="-0.46127">
        <ele>6.87</ele>
        <time>2016-08-07T13:48:19Z</time>
      </trkpt>
      <trkpt lat="49.33359" lon="-0.46125">
        <ele>6.87</ele>
        <time>2016-08-07T13:48:20Z</time>
      </trkpt>
      <trkpt lat="49.33362" lon="-0.46121">
        <ele>6.87</ele>
        <time>2016-08-07T13:48:21Z</time>
      </trkpt>
      <trkpt lat="49.3338" lon="-0.46099">
        <ele>6.39</ele>
        <time>2016-08-07T13:48:26Z</time>
      </trkpt>
      <trkpt lat="49.33383" lon="-0.46094">
        <ele>6.87</ele>
        <time>2016-08-07T13:48:27Z</time>
      </trkpt>
      <trkpt lat="49.33386" lon="-0.4609">
        <ele>6.87</ele>
        <time>2016-08-07T13:48:28Z</time>
      </trkpt>
      <trkpt lat="49.33406" lon="-0.46063">
        <ele>6.87</ele>
        <time>2016-08-07T13:48:35Z</time>
      </trkpt>
      <trkpt lat="49.33409" lon="-0.46058">
        <ele>6.87</ele>
        <time>2016-08-07T13:48:36Z</time>
      </trkpt>
      <trkpt lat="49.33419" lon="-0.46044">
        <ele>6.87</ele>
        <time>2016-08-07T13:48:39Z</time>
      </trkpt>
      <trkpt lat="49.33437" lon="-0.46021">
        <ele>5.42</ele>
        <time>2016-08-07T13:48:48Z</time>
      </trkpt>
      <trkpt lat="49.33451" lon="-0.45996">
        <ele>3.02</ele>
        <time>2016-08-07T13:48:53Z</time>
      </trkpt>
      <trkpt lat="49.33488" lon="-0.45945">
        <ele>2.06</ele>
        <time>2016-08-07T13:49:03Z</time>
      </trkpt>
      <trkpt lat="49.3349" lon="-0.45943">
        <ele>3.02</ele>
        <time>2016-08-07T13:49:09Z</time>
      </trkpt>
      <trkpt lat="49.33491" lon="-0.45942">
        <ele>3.02</ele>
        <time>2016-08-07T13:49:10Z</time>
      </trkpt>
      <trkpt lat="49.33492" lon="-0.4594">
        <ele>3.02</ele>
        <time>2016-08-07T13:49:11Z</time>
      </trkpt>
      <trkpt lat="49.33494" lon="-0.45938">
        <ele>3.02</ele>
        <time>2016-08-07T13:49:12Z</time>
      </trkpt>
      <trkpt lat="49.33495" lon="-0.45935">
        <ele>3.02</ele>
        <time>2016-08-07T13:49:13Z</time>
      </trkpt>
      <trkpt lat="49.33497" lon="-0.45932">
        <ele>3.02</ele>
        <time>2016-08-07T13:49:14Z</time>
      </trkpt>
      <trkpt lat="49.33536" lon="-0.45879">
        <ele>3.02</ele>
        <time>2016-08-07T13:49:29Z</time>
      </trkpt>
      <trkpt lat="49.33554" lon="-0.45852">
        <ele>3.98</ele>
        <time>2016-08-07T13:49:35Z</time>
      </trkpt>
      <trkpt lat="49.33557" lon="-0.45846">
        <ele>3.98</ele>
        <time>2016-08-07T13:49:36Z</time>
      </trkpt>
      <trkpt lat="49.3356" lon="-0.4584">
        <ele>3.98</ele>
        <time>2016-08-07T13:49:37Z</time>
      </trkpt>
      <trkpt lat="49.33566" lon="-0.45826">
        <ele>3.98</ele>
        <time>2016-08-07T13:49:39Z</time>
      </trkpt>
      <trkpt lat="49.33568" lon="-0.45819">
        <ele>3.98</ele>
        <time>2016-08-07T13:49:40Z</time>
      </trkpt>
      <trkpt lat="49.33569" lon="-0.45812">
        <ele>3.98</ele>
        <time>2016-08-07T13:49:41Z</time>
      </trkpt>
      <trkpt lat="49.33569" lon="-0.45807">
        <ele>3.98</ele>
        <time>2016-08-07T13:49:42Z</time>
      </trkpt>
      <trkpt lat="49.33569" lon="-0.45802">
        <ele>3.98</ele>
        <time>2016-08-07T13:49:43Z</time>
      </trkpt>
      <trkpt lat="49.33569" lon="-0.45793">
        <ele>5.42</ele>
        <time>2016-08-07T13:49:52Z</time>
      </trkpt>
      <trkpt lat="49.33566" lon="-0.45757">
        <ele>5.42</ele>
        <time>2016-08-07T13:50:02Z</time>
      </trkpt>
      <trkpt lat="49.33561" lon="-0.45723">
        <ele>5.91</ele>
        <time>2016-08-07T13:50:07Z</time>
      </trkpt>
      <trkpt lat="49.3356" lon="-0.45717">
        <ele>5.91</ele>
        <time>2016-08-07T13:50:08Z</time>
      </trkpt>
      <trkpt lat="49.33556" lon="-0.45669">
        <ele>6.39</ele>
        <time>2016-08-07T13:50:15Z</time>
      </trkpt>
      <trkpt lat="49.33549" lon="-0.45612">
        <ele>5.42</ele>
        <time>2016-08-07T13:50:27Z</time>
      </trkpt>
      <trkpt lat="49.33545" lon="-0.45576">
        <ele>3.98</ele>
        <time>2016-08-07T13:50:39Z</time>
      </trkpt>
      <trkpt lat="49.33542" lon="-0.45545">
        <ele>3.02</ele>
        <time>2016-08-07T13:50:52Z</time>
      </trkpt>
      <trkpt lat="49.33535" lon="-0.45485">
        <ele>3.02</ele>
        <time>2016-08-07T13:51:04Z</time>
      </trkpt>
      <trkpt lat="49.3352" lon="-0.45359">
        <ele>3.02</ele>
        <time>2016-08-07T13:51:22Z</time>
      </trkpt>
      <trkpt lat="49.3351" lon="-0.45268">
        <ele>3.02</ele>
        <time>2016-08-07T13:51:35Z</time>
      </trkpt>
      <trkpt lat="49.33506" lon="-0.45244">
        <ele>1.1</ele>
        <time>2016-08-07T13:51:41Z</time>
      </trkpt>
      <trkpt lat="49.33505" lon="-0.45237">
        <ele>0.62</ele>
        <time>2016-08-07T13:51:42Z</time>
      </trkpt>
      <trkpt lat="49.33503" lon="-0.45194">
        <ele>0.62</ele>
        <time>2016-08-07T13:51:50Z</time>
      </trkpt>
      <trkpt lat="49.33483" lon="-0.45078">
        <ele>1.58</ele>
        <time>2016-08-07T13:52:02Z</time>
      </trkpt>
      <trkpt lat="49.33454" lon="-0.44897">
        <ele>2.06</ele>
        <time>2016-08-07T13:52:18Z</time>
      </trkpt>
      <trkpt lat="49.33438" lon="-0.44785">
        <ele>2.06</ele>
        <time>2016-08-07T13:52:30Z</time>
      </trkpt>
      <trkpt lat="49.33434" lon="-0.44766">
        <ele>2.54</ele>
        <time>2016-08-07T13:52:32Z</time>
      </trkpt>
      <trkpt lat="49.33432" lon="-0.44757">
        <ele>2.54</ele>
        <time>2016-08-07T13:52:33Z</time>
      </trkpt>
      <trkpt lat="49.33417" lon="-0.44666">
        <ele>2.54</ele>
        <time>2016-08-07T13:52:42Z</time>
      </trkpt>
      <trkpt lat="49.33402" lon="-0.4458">
        <ele>2.54</ele>
        <time>2016-08-07T13:52:53Z</time>
      </trkpt>
      <trkpt lat="49.33398" lon="-0.44578">
        <ele>2.54</ele>
        <time>2016-08-07T13:52:54Z</time>
      </trkpt>
      <trkpt lat="49.33389" lon="-0.44578">
        <ele>2.54</ele>
        <time>2016-08-07T13:52:56Z</time>
      </trkpt>
      <trkpt lat="49.33383" lon="-0.44579">
        <ele>2.54</ele>
        <time>2016-08-07T13:52:57Z</time>
      </trkpt>
      <trkpt lat="49.33288" lon="-0.44604">
        <ele>3.5</ele>
        <time>2016-08-07T13:53:12Z</time>
      </trkpt>
      <trkpt lat="49.33193" lon="-0.44628">
        <ele>2.54</ele>
        <time>2016-08-07T13:53:29Z</time>
      </trkpt>
      <trkpt lat="49.33188" lon="-0.44628">
        <ele>3.98</ele>
        <time>2016-08-07T13:53:36Z</time>
      </trkpt>
      <trkpt lat="49.33187" lon="-0.44625">
        <ele>4.46</ele>
        <time>2016-08-07T13:53:37Z</time>
      </trkpt>
      <trkpt lat="49.33187" lon="-0.44621">
        <ele>4.46</ele>
        <time>2016-08-07T13:53:38Z</time>
      </trkpt>
      <trkpt lat="49.33186" lon="-0.44617">
        <ele>4.46</ele>
        <time>2016-08-07T13:53:39Z</time>
      </trkpt>
      <trkpt lat="49.33186" lon="-0.44612">
        <ele>3.98</ele>
        <time>2016-08-07T13:53:40Z</time>
      </trkpt>
      <trkpt lat="49.33186" lon="-0.44608">
        <ele>3.98</ele>
        <time>2016-08-07T13:53:41Z</time>
      </trkpt>
      <trkpt lat="49.33185" lon="-0.44602">
        <ele>3.98</ele>
        <time>2016-08-07T13:53:42Z</time>
      </trkpt>
      <trkpt lat="49.33185" lon="-0.44595">
        <ele>3.5</ele>
        <time>2016-08-07T13:53:43Z</time>
      </trkpt>
      <trkpt lat="49.33184" lon="-0.44587">
        <ele>3.5</ele>
        <time>2016-08-07T13:53:44Z</time>
      </trkpt>
      <trkpt lat="49.33171" lon="-0.44476">
        <ele>2.06</ele>
        <time>2016-08-07T13:53:58Z</time>
      </trkpt>
      <trkpt lat="49.33168" lon="-0.44453">
        <ele>2.06</ele>
        <time>2016-08-07T13:54:01Z</time>
      </trkpt>
      <trkpt lat="49.33168" lon="-0.44445">
        <ele>2.06</ele>
        <time>2016-08-07T13:54:02Z</time>
      </trkpt>
      <trkpt lat="49.33166" lon="-0.44438">
        <ele>2.06</ele>
        <time>2016-08-07T13:54:03Z</time>
      </trkpt>
      <trkpt lat="49.33165" lon="-0.44431">
        <ele>2.06</ele>
        <time>2016-08-07T13:54:04Z</time>
      </trkpt>
      <trkpt lat="49.33164" lon="-0.44424">
        <ele>2.54</ele>
        <time>2016-08-07T13:54:05Z</time>
      </trkpt>
      <trkpt lat="49.33154" lon="-0.44341">
        <ele>3.02</ele>
        <time>2016-08-07T13:54:16Z</time>
      </trkpt>
      <trkpt lat="49.33152" lon="-0.44333">
        <ele>3.02</ele>
        <time>2016-08-07T13:54:17Z</time>
      </trkpt>
      <trkpt lat="49.33149" lon="-0.44326">
        <ele>3.02</ele>
        <time>2016-08-07T13:54:18Z</time>
      </trkpt>
      <trkpt lat="49.33145" lon="-0.44319">
        <ele>2.54</ele>
        <time>2016-08-07T13:54:19Z</time>
      </trkpt>
      <trkpt lat="49.33141" lon="-0.44313">
        <ele>2.54</ele>
        <time>2016-08-07T13:54:20Z</time>
      </trkpt>
      <trkpt lat="49.33137" lon="-0.44307">
        <ele>2.54</ele>
        <time>2016-08-07T13:54:21Z</time>
      </trkpt>
      <trkpt lat="49.33107" lon="-0.4427">
        <ele>3.02</ele>
        <time>2016-08-07T13:54:28Z</time>
      </trkpt>
      <trkpt lat="49.33104" lon="-0.44263">
        <ele>3.02</ele>
        <time>2016-08-07T13:54:29Z</time>
      </trkpt>
      <trkpt lat="49.33098" lon="-0.44251">
        <ele>3.98</ele>
        <time>2016-08-07T13:54:31Z</time>
      </trkpt>
      <trkpt lat="49.33082" lon="-0.44227">
        <ele>5.91</ele>
        <time>2016-08-07T13:54:36Z</time>
      </trkpt>
      <trkpt lat="49.33078" lon="-0.44224">
        <ele>5.91</ele>
        <time>2016-08-07T13:54:37Z</time>
      </trkpt>
      <trkpt lat="49.33074" lon="-0.44222">
        <ele>6.39</ele>
        <time>2016-08-07T13:54:38Z</time>
      </trkpt>
      <trkpt lat="49.33058" lon="-0.44223">
        <ele>6.39</ele>
        <time>2016-08-07T13:54:41Z</time>
      </trkpt>
      <trkpt lat="49.33005" lon="-0.44233">
        <ele>8.31</ele>
        <time>2016-08-07T13:54:55Z</time>
      </trkpt>
      <trkpt lat="49.32999" lon="-0.44235">
        <ele>8.79</ele>
        <time>2016-08-07T13:54:58Z</time>
      </trkpt>
      <trkpt lat="49.32994" lon="-0.44235">
        <ele>9.27</ele>
        <time>2016-08-07T13:55:07Z</time>
      </trkpt>
      <trkpt lat="49.32992" lon="-0.44236">
        <ele>9.27</ele>
        <time>2016-08-07T13:55:08Z</time>
      </trkpt>
      <trkpt lat="49.3299" lon="-0.44236">
        <ele>9.75</ele>
        <time>2016-08-07T13:55:09Z</time>
      </trkpt>
      <trkpt lat="49.32989" lon="-0.44234">
        <ele>9.27</ele>
        <time>2016-08-07T13:55:10Z</time>
      </trkpt>
      <trkpt lat="49.32988" lon="-0.44231">
        <ele>9.27</ele>
        <time>2016-08-07T13:55:11Z</time>
      </trkpt>
      <trkpt lat="49.32988" lon="-0.44227">
        <ele>9.27</ele>
        <time>2016-08-07T13:55:12Z</time>
      </trkpt>
      <trkpt lat="49.32986" lon="-0.44192">
        <ele>9.27</ele>
        <time>2016-08-07T13:55:18Z</time>
      </trkpt>
      <trkpt lat="49.32977" lon="-0.44051">
        <ele>10.23</ele>
        <time>2016-08-07T13:55:34Z</time>
      </trkpt>
      <trkpt lat="49.32968" lon="-0.43904">
        <ele>11.19</ele>
        <time>2016-08-07T13:55:49Z</time>
      </trkpt>
      <trkpt lat="49.32964" lon="-0.43842">
        <ele>11.19</ele>
        <time>2016-08-07T13:55:56Z</time>
      </trkpt>
      <trkpt lat="49.32958" lon="-0.43724">
        <ele>10.71</ele>
        <time>2016-08-07T13:56:07Z</time>
      </trkpt>
      <trkpt lat="49.32942" lon="-0.43478">
        <ele>10.71</ele>
        <time>2016-08-07T13:56:28Z</time>
      </trkpt>
      <trkpt lat="49.3296" lon="-0.43351">
        <ele>10.23</ele>
        <time>2016-08-07T13:56:39Z</time>
      </trkpt>
      <trkpt lat="49.33021" lon="-0.43239">
        <ele>8.31</ele>
        <time>2016-08-07T13:56:50Z</time>
      </trkpt>
      <trkpt lat="49.33123" lon="-0.43153">
        <ele>6.39</ele>
        <time>2016-08-07T13:57:02Z</time>
      </trkpt>
      <trkpt lat="49.3318" lon="-0.43051">
        <ele>5.91</ele>
        <time>2016-08-07T13:57:11Z</time>
      </trkpt>
      <trkpt lat="49.33227" lon="-0.42892">
        <ele>4.94</ele>
        <time>2016-08-07T13:57:23Z</time>
      </trkpt>
      <trkpt lat="49.33252" lon="-0.42836">
        <ele>4.94</ele>
        <time>2016-08-07T13:57:28Z</time>
      </trkpt>
      <trkpt lat="49.33346" lon="-0.42733">
        <ele>5.42</ele>
        <time>2016-08-07T13:57:41Z</time>
      </trkpt>
      <trkpt lat="49.33451" lon="-0.42635">
        <ele>6.39</ele>
        <time>2016-08-07T13:57:57Z</time>
      </trkpt>
      <trkpt lat="49.33461" lon="-0.4262">
        <ele>6.39</ele>
        <time>2016-08-07T13:57:59Z</time>
      </trkpt>
      <trkpt lat="49.3348" lon="-0.42572">
        <ele>6.39</ele>
        <time>2016-08-07T13:58:04Z</time>
      </trkpt>
      <trkpt lat="49.33483" lon="-0.42562">
        <ele>6.39</ele>
        <time>2016-08-07T13:58:05Z</time>
      </trkpt>
      <trkpt lat="49.33485" lon="-0.42551">
        <ele>6.39</ele>
        <time>2016-08-07T13:58:06Z</time>
      </trkpt>
      <trkpt lat="49.33491" lon="-0.42473">
        <ele>6.87</ele>
        <time>2016-08-07T13:58:16Z</time>
      </trkpt>
      <trkpt lat="49.33486" lon="-0.42406">
        <ele>6.39</ele>
        <time>2016-08-07T13:58:25Z</time>
      </trkpt>
      <trkpt lat="49.33477" lon="-0.42218">
        <ele>5.91</ele>
        <time>2016-08-07T13:58:42Z</time>
      </trkpt>
      <trkpt lat="49.33473" lon="-0.42052">
        <ele>5.42</ele>
        <time>2016-08-07T13:58:58Z</time>
      </trkpt>
      <trkpt lat="49.33467" lon="-0.4192">
        <ele>5.91</ele>
        <time>2016-08-07T13:59:13Z</time>
      </trkpt>
      <trkpt lat="49.33468" lon="-0.41847">
        <ele>6.87</ele>
        <time>2016-08-07T13:59:23Z</time>
      </trkpt>
      <trkpt lat="49.33469" lon="-0.41832">
        <ele>6.87</ele>
        <time>2016-08-07T13:59:36Z</time>
      </trkpt>
      <trkpt lat="49.33469" lon="-0.41803">
        <ele>6.87</ele>
        <time>2016-08-07T13:59:49Z</time>
      </trkpt>
      <trkpt lat="49.33467" lon="-0.41761">
        <ele>6.39</ele>
        <time>2016-08-07T13:59:53Z</time>
      </trkpt>
      <trkpt lat="49.33466" lon="-0.41559">
        <ele>5.42</ele>
        <time>2016-08-07T14:00:08Z</time>
      </trkpt>
      <trkpt lat="49.33456" lon="-0.41368">
        <ele>5.91</ele>
        <time>2016-08-07T14:00:22Z</time>
      </trkpt>
      <trkpt lat="49.33446" lon="-0.41168">
        <ele>3.98</ele>
        <time>2016-08-07T14:00:37Z</time>
      </trkpt>
      <trkpt lat="49.33422" lon="-0.40964">
        <ele>4.94</ele>
        <time>2016-08-07T14:00:52Z</time>
      </trkpt>
      <trkpt lat="49.33361" lon="-0.40779">
        <ele>4.94</ele>
        <time>2016-08-07T14:01:08Z</time>
      </trkpt>
      <trkpt lat="49.33339" lon="-0.40732">
        <ele>5.42</ele>
        <time>2016-08-07T14:01:13Z</time>
      </trkpt>
      <trkpt lat="49.33338" lon="-0.40723">
        <ele>5.42</ele>
        <time>2016-08-07T14:01:14Z</time>
      </trkpt>
      <trkpt lat="49.33338" lon="-0.40713">
        <ele>5.91</ele>
        <time>2016-08-07T14:01:15Z</time>
      </trkpt>
      <trkpt lat="49.3334" lon="-0.40703">
        <ele>5.91</ele>
        <time>2016-08-07T14:01:16Z</time>
      </trkpt>
      <trkpt lat="49.33342" lon="-0.40694">
        <ele>5.91</ele>
        <time>2016-08-07T14:01:17Z</time>
      </trkpt>
      <trkpt lat="49.33343" lon="-0.40684">
        <ele>5.91</ele>
        <time>2016-08-07T14:01:18Z</time>
      </trkpt>
      <trkpt lat="49.33343" lon="-0.40674">
        <ele>5.91</ele>
        <time>2016-08-07T14:01:19Z</time>
      </trkpt>
      <trkpt lat="49.33343" lon="-0.40664">
        <ele>5.91</ele>
        <time>2016-08-07T14:01:20Z</time>
      </trkpt>
      <trkpt lat="49.33342" lon="-0.40653">
        <ele>5.91</ele>
        <time>2016-08-07T14:01:21Z</time>
      </trkpt>
      <trkpt lat="49.33341" lon="-0.40643">
        <ele>5.91</ele>
        <time>2016-08-07T14:01:22Z</time>
      </trkpt>
      <trkpt lat="49.33341" lon="-0.40633">
        <ele>5.91</ele>
        <time>2016-08-07T14:01:23Z</time>
      </trkpt>
      <trkpt lat="49.33337" lon="-0.40547">
        <ele>6.39</ele>
        <time>2016-08-07T14:01:31Z</time>
      </trkpt>
      <trkpt lat="49.33336" lon="-0.40535">
        <ele>6.39</ele>
        <time>2016-08-07T14:01:32Z</time>
      </trkpt>
      <trkpt lat="49.3332" lon="-0.40368">
        <ele>7.35</ele>
        <time>2016-08-07T14:01:47Z</time>
      </trkpt>
      <trkpt lat="49.33311" lon="-0.40223">
        <ele>8.31</ele>
        <time>2016-08-07T14:02:01Z</time>
      </trkpt>
      <trkpt lat="49.33303" lon="-0.40111">
        <ele>9.27</ele>
        <time>2016-08-07T14:02:14Z</time>
      </trkpt>
      <trkpt lat="49.33292" lon="-0.39998">
        <ele>10.23</ele>
        <time>2016-08-07T14:02:27Z</time>
      </trkpt>
      <trkpt lat="49.33275" lon="-0.39822">
        <ele>8.79</ele>
        <time>2016-08-07T14:02:42Z</time>
      </trkpt>
      <trkpt lat="49.33259" lon="-0.39659">
        <ele>8.31</ele>
        <time>2016-08-07T14:02:55Z</time>
      </trkpt>
      <trkpt lat="49.33236" lon="-0.39464">
        <ele>8.31</ele>
        <time>2016-08-07T14:03:11Z</time>
      </trkpt>
      <trkpt lat="49.33224" lon="-0.39423">
        <ele>7.83</ele>
        <time>2016-08-07T14:03:15Z</time>
      </trkpt>
      <trkpt lat="49.33219" lon="-0.39419">
        <ele>7.83</ele>
        <time>2016-08-07T14:03:16Z</time>
      </trkpt>
      <trkpt lat="49.33214" lon="-0.39418">
        <ele>7.83</ele>
        <time>2016-08-07T14:03:17Z</time>
      </trkpt>
      <trkpt lat="49.33208" lon="-0.3942">
        <ele>7.83</ele>
        <time>2016-08-07T14:03:18Z</time>
      </trkpt>
      <trkpt lat="49.33202" lon="-0.39422">
        <ele>7.83</ele>
        <time>2016-08-07T14:03:19Z</time>
      </trkpt>
      <trkpt lat="49.33133" lon="-0.39471">
        <ele>6.39</ele>
        <time>2016-08-07T14:03:30Z</time>
      </trkpt>
      <trkpt lat="49.33108" lon="-0.39496">
        <ele>5.91</ele>
        <time>2016-08-07T14:03:34Z</time>
      </trkpt>
      <trkpt lat="49.33102" lon="-0.39503">
        <ele>5.91</ele>
        <time>2016-08-07T14:03:35Z</time>
      </trkpt>
      <trkpt lat="49.33089" lon="-0.39515">
        <ele>5.91</ele>
        <time>2016-08-07T14:03:37Z</time>
      </trkpt>
      <trkpt lat="49.33071" lon="-0.39529">
        <ele>6.39</ele>
        <time>2016-08-07T14:03:40Z</time>
      </trkpt>
      <trkpt lat="49.33066" lon="-0.3953">
        <ele>6.39</ele>
        <time>2016-08-07T14:03:41Z</time>
      </trkpt>
      <trkpt lat="49.33062" lon="-0.39528">
        <ele>6.87</ele>
        <time>2016-08-07T14:03:42Z</time>
      </trkpt>
      <trkpt lat="49.33059" lon="-0.39524">
        <ele>6.87</ele>
        <time>2016-08-07T14:03:43Z</time>
      </trkpt>
      <trkpt lat="49.33055" lon="-0.39518">
        <ele>6.87</ele>
        <time>2016-08-07T14:03:44Z</time>
      </trkpt>
      <trkpt lat="49.33052" lon="-0.39511">
        <ele>6.87</ele>
        <time>2016-08-07T14:03:45Z</time>
      </trkpt>
      <trkpt lat="49.3305" lon="-0.39503">
        <ele>6.39</ele>
        <time>2016-08-07T14:03:46Z</time>
      </trkpt>
      <trkpt lat="49.33048" lon="-0.39495">
        <ele>6.39</ele>
        <time>2016-08-07T14:03:47Z</time>
      </trkpt>
      <trkpt lat="49.33045" lon="-0.39487">
        <ele>6.39</ele>
        <time>2016-08-07T14:03:48Z</time>
      </trkpt>
      <trkpt lat="49.33042" lon="-0.39478">
        <ele>6.87</ele>
        <time>2016-08-07T14:03:49Z</time>
      </trkpt>
      <trkpt lat="49.32996" lon="-0.39339">
        <ele>8.79</ele>
        <time>2016-08-07T14:04:04Z</time>
      </trkpt>
      <trkpt lat="49.32978" lon="-0.3929">
        <ele>9.75</ele>
        <time>2016-08-07T14:04:10Z</time>
      </trkpt>
      <trkpt lat="49.32975" lon="-0.39282">
        <ele>9.75</ele>
        <time>2016-08-07T14:04:11Z</time>
      </trkpt>
      <trkpt lat="49.3296" lon="-0.39244">
        <ele>11.19</ele>
        <time>2016-08-07T14:04:16Z</time>
      </trkpt>
      <trkpt lat="49.32957" lon="-0.39237">
        <ele>11.67</ele>
        <time>2016-08-07T14:04:17Z</time>
      </trkpt>
      <trkpt lat="49.32945" lon="-0.39202">
        <ele>11.67</ele>
        <time>2016-08-07T14:04:21Z</time>
      </trkpt>
      <trkpt lat="49.32943" lon="-0.39194">
        <ele>12.15</ele>
        <time>2016-08-07T14:04:22Z</time>
      </trkpt>
      <trkpt lat="49.32926" lon="-0.39155">
        <ele>13.12</ele>
        <time>2016-08-07T14:04:31Z</time>
      </trkpt>
      <trkpt lat="49.32924" lon="-0.3915">
        <ele>13.6</ele>
        <time>2016-08-07T14:04:32Z</time>
      </trkpt>
      <trkpt lat="49.32922" lon="-0.39143">
        <ele>13.6</ele>
        <time>2016-08-07T14:04:33Z</time>
      </trkpt>
      <trkpt lat="49.32903" lon="-0.39098">
        <ele>15.52</ele>
        <time>2016-08-07T14:04:40Z</time>
      </trkpt>
      <trkpt lat="49.32899" lon="-0.39091">
        <ele>15.52</ele>
        <time>2016-08-07T14:04:41Z</time>
      </trkpt>
      <trkpt lat="49.32896" lon="-0.39083">
        <ele>15.52</ele>
        <time>2016-08-07T14:04:42Z</time>
      </trkpt>
      <trkpt lat="49.32881" lon="-0.39042">
        <ele>15.52</ele>
        <time>2016-08-07T14:04:47Z</time>
      </trkpt>
      <trkpt lat="49.32867" lon="-0.39001">
        <ele>15.04</ele>
        <time>2016-08-07T14:04:52Z</time>
      </trkpt>
      <trkpt lat="49.32837" lon="-0.38943">
        <ele>13.12</ele>
        <time>2016-08-07T14:05:04Z</time>
      </trkpt>
      <trkpt lat="49.32832" lon="-0.38931">
        <ele>13.12</ele>
        <time>2016-08-07T14:05:06Z</time>
      </trkpt>
      <trkpt lat="49.32784" lon="-0.3885">
        <ele>11.19</ele>
        <time>2016-08-07T14:05:17Z</time>
      </trkpt>
      <trkpt lat="49.32729" lon="-0.38749">
        <ele>10.23</ele>
        <time>2016-08-07T14:05:30Z</time>
      </trkpt>
      <trkpt lat="49.32726" lon="-0.38742">
        <ele>10.23</ele>
        <time>2016-08-07T14:05:31Z</time>
      </trkpt>
      <trkpt lat="49.32722" lon="-0.38735">
        <ele>10.23</ele>
        <time>2016-08-07T14:05:32Z</time>
      </trkpt>
      <trkpt lat="49.32717" lon="-0.38729">
        <ele>10.23</ele>
        <time>2016-08-07T14:05:33Z</time>
      </trkpt>
      <trkpt lat="49.32712" lon="-0.38725">
        <ele>10.23</ele>
        <time>2016-08-07T14:05:34Z</time>
      </trkpt>
      <trkpt lat="49.32707" lon="-0.38721">
        <ele>10.23</ele>
        <time>2016-08-07T14:05:35Z</time>
      </trkpt>
      <trkpt lat="49.32702" lon="-0.38716">
        <ele>9.75</ele>
        <time>2016-08-07T14:05:36Z</time>
      </trkpt>
      <trkpt lat="49.32699" lon="-0.38708">
        <ele>9.75</ele>
        <time>2016-08-07T14:05:37Z</time>
      </trkpt>
      <trkpt lat="49.32698" lon="-0.38699">
        <ele>9.27</ele>
        <time>2016-08-07T14:05:38Z</time>
      </trkpt>
      <trkpt lat="49.32699" lon="-0.3869">
        <ele>9.27</ele>
        <time>2016-08-07T14:05:39Z</time>
      </trkpt>
      <trkpt lat="49.327" lon="-0.3868">
        <ele>9.27</ele>
        <time>2016-08-07T14:05:40Z</time>
      </trkpt>
      <trkpt lat="49.32702" lon="-0.3867">
        <ele>9.27</ele>
        <time>2016-08-07T14:05:41Z</time>
      </trkpt>
      <trkpt lat="49.32702" lon="-0.3866">
        <ele>9.75</ele>
        <time>2016-08-07T14:05:42Z</time>
      </trkpt>
      <trkpt lat="49.32707" lon="-0.38581">
        <ele>9.27</ele>
        <time>2016-08-07T14:05:49Z</time>
      </trkpt>
      <trkpt lat="49.32707" lon="-0.3857">
        <ele>9.27</ele>
        <time>2016-08-07T14:05:50Z</time>
      </trkpt>
      <trkpt lat="49.32692" lon="-0.38401">
        <ele>8.79</ele>
        <time>2016-08-07T14:06:04Z</time>
      </trkpt>
      <trkpt lat="49.32676" lon="-0.38299">
        <ele>9.27</ele>
        <time>2016-08-07T14:06:13Z</time>
      </trkpt>
      <trkpt lat="49.32675" lon="-0.38291">
        <ele>9.27</ele>
        <time>2016-08-07T14:06:14Z</time>
      </trkpt>
      <trkpt lat="49.32677" lon="-0.38284">
        <ele>9.27</ele>
        <time>2016-08-07T14:06:15Z</time>
      </trkpt>
      <trkpt lat="49.32679" lon="-0.38278">
        <ele>8.79</ele>
        <time>2016-08-07T14:06:16Z</time>
      </trkpt>
      <trkpt lat="49.3268" lon="-0.38272">
        <ele>8.79</ele>
        <time>2016-08-07T14:06:17Z</time>
      </trkpt>
      <trkpt lat="49.32681" lon="-0.38265">
        <ele>8.79</ele>
        <time>2016-08-07T14:06:18Z</time>
      </trkpt>
      <trkpt lat="49.3268" lon="-0.38258">
        <ele>8.79</ele>
        <time>2016-08-07T14:06:19Z</time>
      </trkpt>
      <trkpt lat="49.3268" lon="-0.38241">
        <ele>7.83</ele>
        <time>2016-08-07T14:06:21Z</time>
      </trkpt>
      <trkpt lat="49.32691" lon="-0.38163">
        <ele>5.91</ele>
        <time>2016-08-07T14:06:30Z</time>
      </trkpt>
      <trkpt lat="49.32692" lon="-0.38155">
        <ele>5.42</ele>
        <time>2016-08-07T14:06:31Z</time>
      </trkpt>
      <trkpt lat="49.32693" lon="-0.38146">
        <ele>4.94</ele>
        <time>2016-08-07T14:06:32Z</time>
      </trkpt>
      <trkpt lat="49.32694" lon="-0.38137">
        <ele>4.94</ele>
        <time>2016-08-07T14:06:33Z</time>
      </trkpt>
      <trkpt lat="49.32695" lon="-0.38128">
        <ele>4.94</ele>
        <time>2016-08-07T14:06:34Z</time>
      </trkpt>
      <trkpt lat="49.32697" lon="-0.38111">
        <ele>4.46</ele>
        <time>2016-08-07T14:06:36Z</time>
      </trkpt>
      <trkpt lat="49.32696" lon="-0.38102">
        <ele>4.94</ele>
        <time>2016-08-07T14:06:37Z</time>
      </trkpt>
      <trkpt lat="49.32695" lon="-0.38093">
        <ele>4.94</ele>
        <time>2016-08-07T14:06:38Z</time>
      </trkpt>
      <trkpt lat="49.3269" lon="-0.38041">
        <ele>6.87</ele>
        <time>2016-08-07T14:06:44Z</time>
      </trkpt>
      <trkpt lat="49.32679" lon="-0.37985">
        <ele>8.31</ele>
        <time>2016-08-07T14:06:50Z</time>
      </trkpt>
      <trkpt lat="49.32655" lon="-0.37848">
        <ele>9.27</ele>
        <time>2016-08-07T14:07:04Z</time>
      </trkpt>
      <trkpt lat="49.32633" lon="-0.37724">
        <ele>8.79</ele>
        <time>2016-08-07T14:07:16Z</time>
      </trkpt>
      <trkpt lat="49.32616" lon="-0.37628">
        <ele>8.31</ele>
        <time>2016-08-07T14:07:25Z</time>
      </trkpt>
      <trkpt lat="49.32614" lon="-0.37618">
        <ele>8.31</ele>
        <time>2016-08-07T14:07:26Z</time>
      </trkpt>
      <trkpt lat="49.32613" lon="-0.37608">
        <ele>8.31</ele>
        <time>2016-08-07T14:07:27Z</time>
      </trkpt>
      <trkpt lat="49.32612" lon="-0.37597">
        <ele>7.83</ele>
        <time>2016-08-07T14:07:28Z</time>
      </trkpt>
      <trkpt lat="49.32613" lon="-0.37586">
        <ele>7.83</ele>
        <time>2016-08-07T14:07:29Z</time>
      </trkpt>
      <trkpt lat="49.32613" lon="-0.37575">
        <ele>7.83</ele>
        <time>2016-08-07T14:07:30Z</time>
      </trkpt>
      <trkpt lat="49.32612" lon="-0.37565">
        <ele>7.83</ele>
        <time>2016-08-07T14:07:31Z</time>
      </trkpt>
      <trkpt lat="49.32611" lon="-0.37556">
        <ele>8.31</ele>
        <time>2016-08-07T14:07:32Z</time>
      </trkpt>
      <trkpt lat="49.3261" lon="-0.37539">
        <ele>8.31</ele>
        <time>2016-08-07T14:07:35Z</time>
      </trkpt>
      <trkpt lat="49.3261" lon="-0.37532">
        <ele>8.31</ele>
        <time>2016-08-07T14:07:36Z</time>
      </trkpt>
      <trkpt lat="49.32609" lon="-0.37524">
        <ele>8.31</ele>
        <time>2016-08-07T14:07:37Z</time>
      </trkpt>
      <trkpt lat="49.32609" lon="-0.37515">
        <ele>8.31</ele>
        <time>2016-08-07T14:07:38Z</time>
      </trkpt>
      <trkpt lat="49.32608" lon="-0.37506">
        <ele>7.83</ele>
        <time>2016-08-07T14:07:39Z</time>
      </trkpt>
      <trkpt lat="49.32608" lon="-0.37497">
        <ele>7.83</ele>
        <time>2016-08-07T14:07:40Z</time>
      </trkpt>
      <trkpt lat="49.32599" lon="-0.37421">
        <ele>7.83</ele>
        <time>2016-08-07T14:07:48Z</time>
      </trkpt>
      <trkpt lat="49.32597" lon="-0.37412">
        <ele>7.83</ele>
        <time>2016-08-07T14:07:49Z</time>
      </trkpt>
      <trkpt lat="49.32597" lon="-0.37405">
        <ele>7.35</ele>
        <time>2016-08-07T14:07:50Z</time>
      </trkpt>
      <trkpt lat="49.32594" lon="-0.37384">
        <ele>7.35</ele>
        <time>2016-08-07T14:07:54Z</time>
      </trkpt>
      <trkpt lat="49.32588" lon="-0.37367">
        <ele>7.35</ele>
        <time>2016-08-07T14:07:56Z</time>
      </trkpt>
      <trkpt lat="49.32586" lon="-0.37357">
        <ele>7.35</ele>
        <time>2016-08-07T14:07:57Z</time>
      </trkpt>
      <trkpt lat="49.32584" lon="-0.37345">
        <ele>7.35</ele>
        <time>2016-08-07T14:07:58Z</time>
      </trkpt>
      <trkpt lat="49.32577" lon="-0.37289">
        <ele>6.87</ele>
        <time>2016-08-07T14:08:06Z</time>
      </trkpt>
      <trkpt lat="49.32573" lon="-0.37273">
        <ele>6.87</ele>
        <time>2016-08-07T14:08:09Z</time>
      </trkpt>
      <trkpt lat="49.32573" lon="-0.37266">
        <ele>6.87</ele>
        <time>2016-08-07T14:08:10Z</time>
      </trkpt>
      <trkpt lat="49.32573" lon="-0.37259">
        <ele>6.39</ele>
        <time>2016-08-07T14:08:11Z</time>
      </trkpt>
      <trkpt lat="49.32573" lon="-0.37251">
        <ele>6.39</ele>
        <time>2016-08-07T14:08:12Z</time>
      </trkpt>
      <trkpt lat="49.32572" lon="-0.37243">
        <ele>5.91</ele>
        <time>2016-08-07T14:08:13Z</time>
      </trkpt>
      <trkpt lat="49.3257" lon="-0.37234">
        <ele>5.91</ele>
        <time>2016-08-07T14:08:14Z</time>
      </trkpt>
      <trkpt lat="49.32569" lon="-0.37224">
        <ele>5.91</ele>
        <time>2016-08-07T14:08:15Z</time>
      </trkpt>
      <trkpt lat="49.3256" lon="-0.37152">
        <ele>7.83</ele>
        <time>2016-08-07T14:08:23Z</time>
      </trkpt>
      <trkpt lat="49.32559" lon="-0.37146">
        <ele>7.83</ele>
        <time>2016-08-07T14:08:24Z</time>
      </trkpt>
      <trkpt lat="49.32554" lon="-0.37121">
        <ele>7.35</ele>
        <time>2016-08-07T14:08:29Z</time>
      </trkpt>
      <trkpt lat="49.32549" lon="-0.37103">
        <ele>7.83</ele>
        <time>2016-08-07T14:08:32Z</time>
      </trkpt>
      <trkpt lat="49.32547" lon="-0.37097">
        <ele>8.31</ele>
        <time>2016-08-07T14:08:33Z</time>
      </trkpt>
      <trkpt lat="49.32547" lon="-0.3709">
        <ele>8.31</ele>
        <time>2016-08-07T14:08:34Z</time>
      </trkpt>
      <trkpt lat="49.32544" lon="-0.37077">
        <ele>8.31</ele>
        <time>2016-08-07T14:08:36Z</time>
      </trkpt>
      <trkpt lat="49.32542" lon="-0.37069">
        <ele>8.31</ele>
        <time>2016-08-07T14:08:37Z</time>
      </trkpt>
      <trkpt lat="49.32541" lon="-0.37062">
        <ele>8.31</ele>
        <time>2016-08-07T14:08:38Z</time>
      </trkpt>
      <trkpt lat="49.3254" lon="-0.37055">
        <ele>8.79</ele>
        <time>2016-08-07T14:08:39Z</time>
      </trkpt>
      <trkpt lat="49.32539" lon="-0.37047">
        <ele>9.27</ele>
        <time>2016-08-07T14:08:40Z</time>
      </trkpt>
      <trkpt lat="49.32537" lon="-0.3704">
        <ele>9.27</ele>
        <time>2016-08-07T14:08:41Z</time>
      </trkpt>
      <trkpt lat="49.32516" lon="-0.3694">
        <ele>11.19</ele>
        <time>2016-08-07T14:08:55Z</time>
      </trkpt>
      <trkpt lat="49.32504" lon="-0.36889">
        <ele>11.67</ele>
        <time>2016-08-07T14:09:03Z</time>
      </trkpt>
      <trkpt lat="49.32486" lon="-0.36822">
        <ele>12.63</ele>
        <time>2016-08-07T14:09:17Z</time>
      </trkpt>
      <trkpt lat="49.32456" lon="-0.36716">
        <ele>12.63</ele>
        <time>2016-08-07T14:09:30Z</time>
      </trkpt>
      <trkpt lat="49.32453" lon="-0.36707">
        <ele>13.12</ele>
        <time>2016-08-07T14:09:31Z</time>
      </trkpt>
      <trkpt lat="49.32417" lon="-0.36575">
        <ele>13.12</ele>
        <time>2016-08-07T14:09:46Z</time>
      </trkpt>
      <trkpt lat="49.32378" lon="-0.36435">
        <ele>13.12</ele>
        <time>2016-08-07T14:10:01Z</time>
      </trkpt>
      <trkpt lat="49.32346" lon="-0.36298">
        <ele>12.15</ele>
        <time>2016-08-07T14:10:15Z</time>
      </trkpt>
      <trkpt lat="49.32299" lon="-0.3616">
        <ele>12.15</ele>
        <time>2016-08-07T14:10:30Z</time>
      </trkpt>
      <trkpt lat="49.3225" lon="-0.36063">
        <ele>11.67</ele>
        <time>2016-08-07T14:10:42Z</time>
      </trkpt>
      <trkpt lat="49.32177" lon="-0.35906">
        <ele>8.79</ele>
        <time>2016-08-07T14:10:57Z</time>
      </trkpt>
      <trkpt lat="49.32169" lon="-0.35885">
        <ele>8.79</ele>
        <time>2016-08-07T14:10:59Z</time>
      </trkpt>
      <trkpt lat="49.32124" lon="-0.35774">
        <ele>11.19</ele>
        <time>2016-08-07T14:11:11Z</time>
      </trkpt>
      <trkpt lat="49.32086" lon="-0.35683">
        <ele>11.67</ele>
        <time>2016-08-07T14:11:25Z</time>
      </trkpt>
      <trkpt lat="49.32048" lon="-0.35594">
        <ele>13.6</ele>
        <time>2016-08-07T14:11:41Z</time>
      </trkpt>
      <trkpt lat="49.32037" lon="-0.35564">
        <ele>14.08</ele>
        <time>2016-08-07T14:11:46Z</time>
      </trkpt>
      <trkpt lat="49.32" lon="-0.35474">
        <ele>14.56</ele>
        <time>2016-08-07T14:11:59Z</time>
      </trkpt>
      <trkpt lat="49.31982" lon="-0.35428">
        <ele>14.56</ele>
        <time>2016-08-07T14:12:05Z</time>
      </trkpt>
      <trkpt lat="49.3197" lon="-0.3539">
        <ele>14.56</ele>
        <time>2016-08-07T14:12:13Z</time>
      </trkpt>
      <trkpt lat="49.31952" lon="-0.35356">
        <ele>13.6</ele>
        <time>2016-08-07T14:12:20Z</time>
      </trkpt>
      <trkpt lat="49.31908" lon="-0.35257">
        <ele>12.15</ele>
        <time>2016-08-07T14:12:32Z</time>
      </trkpt>
      <trkpt lat="49.31849" lon="-0.35116">
        <ele>10.71</ele>
        <time>2016-08-07T14:12:46Z</time>
      </trkpt>
      <trkpt lat="49.31825" lon="-0.35061">
        <ele>10.71</ele>
        <time>2016-08-07T14:12:52Z</time>
      </trkpt>
      <trkpt lat="49.31815" lon="-0.35046">
        <ele>10.71</ele>
        <time>2016-08-07T14:12:54Z</time>
      </trkpt>
      <trkpt lat="49.31809" lon="-0.3504">
        <ele>10.71</ele>
        <time>2016-08-07T14:12:55Z</time>
      </trkpt>
      <trkpt lat="49.31717" lon="-0.34954">
        <ele>11.19</ele>
        <time>2016-08-07T14:13:11Z</time>
      </trkpt>
      <trkpt lat="49.31711" lon="-0.34952">
        <ele>11.19</ele>
        <time>2016-08-07T14:13:12Z</time>
      </trkpt>
      <trkpt lat="49.31706" lon="-0.34952">
        <ele>11.19</ele>
        <time>2016-08-07T14:13:13Z</time>
      </trkpt>
      <trkpt lat="49.31701" lon="-0.34954">
        <ele>11.19</ele>
        <time>2016-08-07T14:13:14Z</time>
      </trkpt>
      <trkpt lat="49.31697" lon="-0.34957">
        <ele>11.67</ele>
        <time>2016-08-07T14:13:15Z</time>
      </trkpt>
      <trkpt lat="49.31693" lon="-0.3496">
        <ele>11.67</ele>
        <time>2016-08-07T14:13:16Z</time>
      </trkpt>
      <trkpt lat="49.31688" lon="-0.34959">
        <ele>11.67</ele>
        <time>2016-08-07T14:13:17Z</time>
      </trkpt>
      <trkpt lat="49.31685" lon="-0.34956">
        <ele>12.15</ele>
        <time>2016-08-07T14:13:18Z</time>
      </trkpt>
      <trkpt lat="49.31684" lon="-0.3495">
        <ele>12.15</ele>
        <time>2016-08-07T14:13:19Z</time>
      </trkpt>
      <trkpt lat="49.31684" lon="-0.34943">
        <ele>12.15</ele>
        <time>2016-08-07T14:13:20Z</time>
      </trkpt>
      <trkpt lat="49.31685" lon="-0.34936">
        <ele>12.15</ele>
        <time>2016-08-07T14:13:21Z</time>
      </trkpt>
      <trkpt lat="49.31684" lon="-0.34927">
        <ele>11.67</ele>
        <time>2016-08-07T14:13:22Z</time>
      </trkpt>
      <trkpt lat="49.31682" lon="-0.34918">
        <ele>11.19</ele>
        <time>2016-08-07T14:13:23Z</time>
      </trkpt>
      <trkpt lat="49.31679" lon="-0.34909">
        <ele>11.19</ele>
        <time>2016-08-07T14:13:24Z</time>
      </trkpt>
      <trkpt lat="49.31675" lon="-0.34899">
        <ele>10.71</ele>
        <time>2016-08-07T14:13:25Z</time>
      </trkpt>
      <trkpt lat="49.3167" lon="-0.3489">
        <ele>11.19</ele>
        <time>2016-08-07T14:13:26Z</time>
      </trkpt>
      <trkpt lat="49.316" lon="-0.34735">
        <ele>13.12</ele>
        <time>2016-08-07T14:13:42Z</time>
      </trkpt>
      <trkpt lat="49.31518" lon="-0.34553">
        <ele>14.08</ele>
        <time>2016-08-07T14:14:00Z</time>
      </trkpt>
      <trkpt lat="49.31435" lon="-0.34366">
        <ele>12.63</ele>
        <time>2016-08-07T14:14:18Z</time>
      </trkpt>
      <trkpt lat="49.31351" lon="-0.34161">
        <ele>11.67</ele>
        <time>2016-08-07T14:14:35Z</time>
      </trkpt>
      <trkpt lat="49.31264" lon="-0.33953">
        <ele>13.6</ele>
        <time>2016-08-07T14:14:52Z</time>
      </trkpt>
      <trkpt lat="49.31188" lon="-0.33771">
        <ele>14.56</ele>
        <time>2016-08-07T14:15:08Z</time>
      </trkpt>
      <trkpt lat="49.31117" lon="-0.33598">
        <ele>14.56</ele>
        <time>2016-08-07T14:15:24Z</time>
      </trkpt>
      <trkpt lat="49.31041" lon="-0.33412">
        <ele>14.56</ele>
        <time>2016-08-07T14:15:41Z</time>
      </trkpt>
      <trkpt lat="49.30955" lon="-0.33202">
        <ele>14.08</ele>
        <time>2016-08-07T14:16:00Z</time>
      </trkpt>
      <trkpt lat="49.30842" lon="-0.32946">
        <ele>13.12</ele>
        <time>2016-08-07T14:16:23Z</time>
      </trkpt>
      <trkpt lat="49.30738" lon="-0.32739">
        <ele>12.15</ele>
        <time>2016-08-07T14:16:43Z</time>
      </trkpt>
      <trkpt lat="49.30654" lon="-0.32572">
        <ele>11.19</ele>
        <time>2016-08-07T14:16:59Z</time>
      </trkpt>
      <trkpt lat="49.30625" lon="-0.3252">
        <ele>10.23</ele>
        <time>2016-08-07T14:17:04Z</time>
      </trkpt>
      <trkpt lat="49.30619" lon="-0.32511">
        <ele>10.23</ele>
        <time>2016-08-07T14:17:05Z</time>
      </trkpt>
      <trkpt lat="49.30599" lon="-0.32484">
        <ele>9.75</ele>
        <time>2016-08-07T14:17:08Z</time>
      </trkpt>
      <trkpt lat="49.30593" lon="-0.32473">
        <ele>9.27</ele>
        <time>2016-08-07T14:17:09Z</time>
      </trkpt>
      <trkpt lat="49.30573" lon="-0.3243">
        <ele>9.27</ele>
        <time>2016-08-07T14:17:13Z</time>
      </trkpt>
      <trkpt lat="49.30567" lon="-0.32421">
        <ele>9.27</ele>
        <time>2016-08-07T14:17:14Z</time>
      </trkpt>
      <trkpt lat="49.30562" lon="-0.32413">
        <ele>9.27</ele>
        <time>2016-08-07T14:17:15Z</time>
      </trkpt>
      <trkpt lat="49.30558" lon="-0.32402">
        <ele>9.27</ele>
        <time>2016-08-07T14:17:16Z</time>
      </trkpt>
      <trkpt lat="49.30556" lon="-0.32391">
        <ele>9.27</ele>
        <time>2016-08-07T14:17:17Z</time>
      </trkpt>
      <trkpt lat="49.30555" lon="-0.32379">
        <ele>9.27</ele>
        <time>2016-08-07T14:17:18Z</time>
      </trkpt>
      <trkpt lat="49.30552" lon="-0.32368">
        <ele>9.27</ele>
        <time>2016-08-07T14:17:19Z</time>
      </trkpt>
      <trkpt lat="49.30548" lon="-0.32359">
        <ele>9.27</ele>
        <time>2016-08-07T14:17:20Z</time>
      </trkpt>
      <trkpt lat="49.30542" lon="-0.3235">
        <ele>9.27</ele>
        <time>2016-08-07T14:17:21Z</time>
      </trkpt>
      <trkpt lat="49.30458" lon="-0.32226">
        <ele>11.67</ele>
        <time>2016-08-07T14:17:37Z</time>
      </trkpt>
      <trkpt lat="49.30382" lon="-0.32115">
        <ele>11.67</ele>
        <time>2016-08-07T14:17:52Z</time>
      </trkpt>
      <trkpt lat="49.30305" lon="-0.32005">
        <ele>12.63</ele>
        <time>2016-08-07T14:18:07Z</time>
      </trkpt>
      <trkpt lat="49.30227" lon="-0.31896">
        <ele>12.63</ele>
        <time>2016-08-07T14:18:21Z</time>
      </trkpt>
      <trkpt lat="49.30174" lon="-0.31826">
        <ele>11.19</ele>
        <time>2016-08-07T14:18:31Z</time>
      </trkpt>
      <trkpt lat="49.30157" lon="-0.31795">
        <ele>8.79</ele>
        <time>2016-08-07T14:18:38Z</time>
      </trkpt>
      <trkpt lat="49.30109" lon="-0.3172">
        <ele>6.87</ele>
        <time>2016-08-07T14:18:51Z</time>
      </trkpt>
      <trkpt lat="49.30093" lon="-0.31701">
        <ele>6.87</ele>
        <time>2016-08-07T14:18:59Z</time>
      </trkpt>
      <trkpt lat="49.30075" lon="-0.31679">
        <ele>7.35</ele>
        <time>2016-08-07T14:19:09Z</time>
      </trkpt>
      <trkpt lat="49.30066" lon="-0.31665">
        <ele>7.83</ele>
        <time>2016-08-07T14:19:13Z</time>
      </trkpt>
      <trkpt lat="49.30023" lon="-0.31603">
        <ele>7.35</ele>
        <time>2016-08-07T14:19:23Z</time>
      </trkpt>
      <trkpt lat="49.30014" lon="-0.31591">
        <ele>7.83</ele>
        <time>2016-08-07T14:19:25Z</time>
      </trkpt>
      <trkpt lat="49.29949" lon="-0.31499">
        <ele>8.31</ele>
        <time>2016-08-07T14:19:36Z</time>
      </trkpt>
      <trkpt lat="49.29933" lon="-0.31474">
        <ele>8.31</ele>
        <time>2016-08-07T14:19:39Z</time>
      </trkpt>
      <trkpt lat="49.2991" lon="-0.31418">
        <ele>8.31</ele>
        <time>2016-08-07T14:19:45Z</time>
      </trkpt>
      <trkpt lat="49.29889" lon="-0.31292">
        <ele>8.79</ele>
        <time>2016-08-07T14:19:57Z</time>
      </trkpt>
      <trkpt lat="49.29869" lon="-0.3114">
        <ele>9.27</ele>
        <time>2016-08-07T14:20:12Z</time>
      </trkpt>
      <trkpt lat="49.29844" lon="-0.30967">
        <ele>7.83</ele>
        <time>2016-08-07T14:20:29Z</time>
      </trkpt>
      <trkpt lat="49.29837" lon="-0.30913">
        <ele>6.87</ele>
        <time>2016-08-07T14:20:35Z</time>
      </trkpt>
      <trkpt lat="49.29836" lon="-0.30896">
        <ele>6.87</ele>
        <time>2016-08-07T14:20:37Z</time>
      </trkpt>
      <trkpt lat="49.29834" lon="-0.30887">
        <ele>6.87</ele>
        <time>2016-08-07T14:20:38Z</time>
      </trkpt>
      <trkpt lat="49.29814" lon="-0.30767">
        <ele>5.91</ele>
        <time>2016-08-07T14:20:50Z</time>
      </trkpt>
      <trkpt lat="49.29809" lon="-0.30726">
        <ele>5.91</ele>
        <time>2016-08-07T14:20:54Z</time>
      </trkpt>
      <trkpt lat="49.29808" lon="-0.30716">
        <ele>5.91</ele>
        <time>2016-08-07T14:20:55Z</time>
      </trkpt>
      <trkpt lat="49.29785" lon="-0.30577">
        <ele>4.94</ele>
        <time>2016-08-07T14:21:09Z</time>
      </trkpt>
      <trkpt lat="49.29783" lon="-0.3057">
        <ele>4.94</ele>
        <time>2016-08-07T14:21:10Z</time>
      </trkpt>
      <trkpt lat="49.29768" lon="-0.30513">
        <ele>5.91</ele>
        <time>2016-08-07T14:21:21Z</time>
      </trkpt>
      <trkpt lat="49.29737" lon="-0.3042">
        <ele>7.35</ele>
        <time>2016-08-07T14:21:37Z</time>
      </trkpt>
      <trkpt lat="49.29734" lon="-0.30415">
        <ele>7.35</ele>
        <time>2016-08-07T14:21:38Z</time>
      </trkpt>
      <trkpt lat="49.29732" lon="-0.30409">
        <ele>7.35</ele>
        <time>2016-08-07T14:21:39Z</time>
      </trkpt>
      <trkpt lat="49.29723" lon="-0.30387">
        <ele>7.35</ele>
        <time>2016-08-07T14:21:43Z</time>
      </trkpt>
      <trkpt lat="49.29706" lon="-0.30345">
        <ele>6.87</ele>
        <time>2016-08-07T14:21:53Z</time>
      </trkpt>
      <trkpt lat="49.29706" lon="-0.30343">
        <ele>7.35</ele>
        <time>2016-08-07T14:21:54Z</time>
      </trkpt>
      <trkpt lat="49.29705" lon="-0.3034">
        <ele>7.35</ele>
        <time>2016-08-07T14:21:55Z</time>
      </trkpt>
      <trkpt lat="49.29703" lon="-0.30332">
        <ele>7.35</ele>
        <time>2016-08-07T14:21:57Z</time>
      </trkpt>
      <trkpt lat="49.297" lon="-0.30326">
        <ele>7.83</ele>
        <time>2016-08-07T14:21:58Z</time>
      </trkpt>
      <trkpt lat="49.29698" lon="-0.30319">
        <ele>7.83</ele>
        <time>2016-08-07T14:21:59Z</time>
      </trkpt>
      <trkpt lat="49.29696" lon="-0.30311">
        <ele>8.31</ele>
        <time>2016-08-07T14:22:00Z</time>
      </trkpt>
      <trkpt lat="49.29693" lon="-0.30303">
        <ele>8.31</ele>
        <time>2016-08-07T14:22:01Z</time>
      </trkpt>
      <trkpt lat="49.29658" lon="-0.30176">
        <ele>6.87</ele>
        <time>2016-08-07T14:22:16Z</time>
      </trkpt>
      <trkpt lat="49.29644" lon="-0.30095">
        <ele>6.39</ele>
        <time>2016-08-07T14:22:25Z</time>
      </trkpt>
      <trkpt lat="49.29639" lon="-0.30039">
        <ele>6.39</ele>
        <time>2016-08-07T14:22:35Z</time>
      </trkpt>
      <trkpt lat="49.29634" lon="-0.29989">
        <ele>6.39</ele>
        <time>2016-08-07T14:22:47Z</time>
      </trkpt>
      <trkpt lat="49.29633" lon="-0.29981">
        <ele>5.91</ele>
        <time>2016-08-07T14:22:48Z</time>
      </trkpt>
      <trkpt lat="49.2963" lon="-0.29959">
        <ele>5.91</ele>
        <time>2016-08-07T14:22:51Z</time>
      </trkpt>
      <trkpt lat="49.29618" lon="-0.2989">
        <ele>6.87</ele>
        <time>2016-08-07T14:22:59Z</time>
      </trkpt>
      <trkpt lat="49.29599" lon="-0.29811">
        <ele>7.35</ele>
        <time>2016-08-07T14:23:07Z</time>
      </trkpt>
      <trkpt lat="49.29595" lon="-0.29802">
        <ele>7.35</ele>
        <time>2016-08-07T14:23:08Z</time>
      </trkpt>
      <trkpt lat="49.29546" lon="-0.29645">
        <ele>6.39</ele>
        <time>2016-08-07T14:23:24Z</time>
      </trkpt>
      <trkpt lat="49.29497" lon="-0.2948">
        <ele>5.91</ele>
        <time>2016-08-07T14:23:41Z</time>
      </trkpt>
      <trkpt lat="49.2946" lon="-0.29366">
        <ele>6.39</ele>
        <time>2016-08-07T14:23:53Z</time>
      </trkpt>
      <trkpt lat="49.29408" lon="-0.29197">
        <ele>5.91</ele>
        <time>2016-08-07T14:24:09Z</time>
      </trkpt>
      <trkpt lat="49.29351" lon="-0.29013">
        <ele>6.87</ele>
        <time>2016-08-07T14:24:26Z</time>
      </trkpt>
      <trkpt lat="49.29287" lon="-0.28806">
        <ele>7.35</ele>
        <time>2016-08-07T14:24:45Z</time>
      </trkpt>
      <trkpt lat="49.29227" lon="-0.28615">
        <ele>6.39</ele>
        <time>2016-08-07T14:25:03Z</time>
      </trkpt>
      <trkpt lat="49.29169" lon="-0.28427">
        <ele>6.87</ele>
        <time>2016-08-07T14:25:21Z</time>
      </trkpt>
      <trkpt lat="49.29132" lon="-0.28307">
        <ele>7.35</ele>
        <time>2016-08-07T14:25:35Z</time>
      </trkpt>
      <trkpt lat="49.29127" lon="-0.28288">
        <ele>7.83</ele>
        <time>2016-08-07T14:25:46Z</time>
      </trkpt>
      <trkpt lat="49.29124" lon="-0.28277">
        <ele>7.35</ele>
        <time>2016-08-07T14:25:48Z</time>
      </trkpt>
      <trkpt lat="49.29121" lon="-0.28271">
        <ele>7.35</ele>
        <time>2016-08-07T14:25:49Z</time>
      </trkpt>
      <trkpt lat="49.29114" lon="-0.28255">
        <ele>7.35</ele>
        <time>2016-08-07T14:25:51Z</time>
      </trkpt>
      <trkpt lat="49.29111" lon="-0.28245">
        <ele>7.35</ele>
        <time>2016-08-07T14:25:52Z</time>
      </trkpt>
      <trkpt lat="49.29059" lon="-0.2807">
        <ele>6.39</ele>
        <time>2016-08-07T14:26:09Z</time>
      </trkpt>
      <trkpt lat="49.29005" lon="-0.27896">
        <ele>5.91</ele>
        <time>2016-08-07T14:26:25Z</time>
      </trkpt>
      <trkpt lat="49.28953" lon="-0.2773">
        <ele>6.39</ele>
        <time>2016-08-07T14:26:40Z</time>
      </trkpt>
      <trkpt lat="49.28906" lon="-0.27578">
        <ele>5.91</ele>
        <time>2016-08-07T14:26:54Z</time>
      </trkpt>
      <trkpt lat="49.28896" lon="-0.27546">
        <ele>6.39</ele>
        <time>2016-08-07T14:26:57Z</time>
      </trkpt>
      <trkpt lat="49.28892" lon="-0.27536">
        <ele>6.39</ele>
        <time>2016-08-07T14:26:58Z</time>
      </trkpt>
      <trkpt lat="49.28889" lon="-0.27525">
        <ele>6.39</ele>
        <time>2016-08-07T14:26:59Z</time>
      </trkpt>
      <trkpt lat="49.28874" lon="-0.27473">
        <ele>5.42</ele>
        <time>2016-08-07T14:27:04Z</time>
      </trkpt>
      <trkpt lat="49.28872" lon="-0.27463">
        <ele>5.91</ele>
        <time>2016-08-07T14:27:05Z</time>
      </trkpt>
      <trkpt lat="49.28869" lon="-0.27453">
        <ele>5.42</ele>
        <time>2016-08-07T14:27:06Z</time>
      </trkpt>
      <trkpt lat="49.28838" lon="-0.27357">
        <ele>4.94</ele>
        <time>2016-08-07T14:27:17Z</time>
      </trkpt>
      <trkpt lat="49.28826" lon="-0.27317">
        <ele>5.42</ele>
        <time>2016-08-07T14:27:21Z</time>
      </trkpt>
      <trkpt lat="49.28823" lon="-0.27307">
        <ele>5.42</ele>
        <time>2016-08-07T14:27:22Z</time>
      </trkpt>
      <trkpt lat="49.28786" lon="-0.27191">
        <ele>6.39</ele>
        <time>2016-08-07T14:27:35Z</time>
      </trkpt>
      <trkpt lat="49.28775" lon="-0.27146">
        <ele>5.91</ele>
        <time>2016-08-07T14:27:44Z</time>
      </trkpt>
      <trkpt lat="49.28774" lon="-0.27142">
        <ele>5.91</ele>
        <time>2016-08-07T14:27:45Z</time>
      </trkpt>
      <trkpt lat="49.28767" lon="-0.2712">
        <ele>6.39</ele>
        <time>2016-08-07T14:27:49Z</time>
      </trkpt>
      <trkpt lat="49.28753" lon="-0.27071">
        <ele>6.39</ele>
        <time>2016-08-07T14:27:58Z</time>
      </trkpt>
      <trkpt lat="49.2872" lon="-0.26963">
        <ele>6.87</ele>
        <time>2016-08-07T14:28:11Z</time>
      </trkpt>
      <trkpt lat="49.28704" lon="-0.26909">
        <ele>6.39</ele>
        <time>2016-08-07T14:28:18Z</time>
      </trkpt>
      <trkpt lat="49.2868" lon="-0.26832">
        <ele>5.91</ele>
        <time>2016-08-07T14:28:30Z</time>
      </trkpt>
      <trkpt lat="49.28668" lon="-0.26795">
        <ele>6.39</ele>
        <time>2016-08-07T14:28:36Z</time>
      </trkpt>
      <trkpt lat="49.28664" lon="-0.26781">
        <ele>6.39</ele>
        <time>2016-08-07T14:28:38Z</time>
      </trkpt>
      <trkpt lat="49.28656" lon="-0.26761">
        <ele>6.39</ele>
        <time>2016-08-07T14:28:41Z</time>
      </trkpt>
      <trkpt lat="49.28646" lon="-0.26735">
        <ele>6.87</ele>
        <time>2016-08-07T14:28:45Z</time>
      </trkpt>
      <trkpt lat="49.28643" lon="-0.26732">
        <ele>6.87</ele>
        <time>2016-08-07T14:28:46Z</time>
      </trkpt>
      <trkpt lat="49.28641" lon="-0.26728">
        <ele>6.39</ele>
        <time>2016-08-07T14:28:47Z</time>
      </trkpt>
      <trkpt lat="49.28639" lon="-0.26723">
        <ele>6.39</ele>
        <time>2016-08-07T14:28:48Z</time>
      </trkpt>
      <trkpt lat="49.28638" lon="-0.26719">
        <ele>6.39</ele>
        <time>2016-08-07T14:28:49Z</time>
      </trkpt>
      <trkpt lat="49.28621" lon="-0.26673">
        <ele>5.91</ele>
        <time>2016-08-07T14:29:01Z</time>
      </trkpt>
      <trkpt lat="49.28619" lon="-0.26668">
        <ele>5.91</ele>
        <time>2016-08-07T14:29:02Z</time>
      </trkpt>
      <trkpt lat="49.28615" lon="-0.26665">
        <ele>5.91</ele>
        <time>2016-08-07T14:29:03Z</time>
      </trkpt>
      <trkpt lat="49.28609" lon="-0.26663">
        <ele>5.91</ele>
        <time>2016-08-07T14:29:04Z</time>
      </trkpt>
      <trkpt lat="49.28603" lon="-0.26665">
        <ele>5.42</ele>
        <time>2016-08-07T14:29:05Z</time>
      </trkpt>
      <trkpt lat="49.28597" lon="-0.2667">
        <ele>5.91</ele>
        <time>2016-08-07T14:29:06Z</time>
      </trkpt>
      <trkpt lat="49.28591" lon="-0.26675">
        <ele>5.91</ele>
        <time>2016-08-07T14:29:07Z</time>
      </trkpt>
      <trkpt lat="49.2853" lon="-0.26726">
        <ele>5.42</ele>
        <time>2016-08-07T14:29:19Z</time>
      </trkpt>
      <trkpt lat="49.28521" lon="-0.26734">
        <ele>5.91</ele>
        <time>2016-08-07T14:29:21Z</time>
      </trkpt>
      <trkpt lat="49.28513" lon="-0.26741">
        <ele>5.42</ele>
        <time>2016-08-07T14:29:23Z</time>
      </trkpt>
      <trkpt lat="49.28509" lon="-0.26746">
        <ele>4.94</ele>
        <time>2016-08-07T14:29:24Z</time>
      </trkpt>
      <trkpt lat="49.28507" lon="-0.26752">
        <ele>4.94</ele>
        <time>2016-08-07T14:29:25Z</time>
      </trkpt>
      <trkpt lat="49.28507" lon="-0.26759">
        <ele>4.94</ele>
        <time>2016-08-07T14:29:26Z</time>
      </trkpt>
      <trkpt lat="49.28508" lon="-0.26766">
        <ele>4.94</ele>
        <time>2016-08-07T14:29:27Z</time>
      </trkpt>
      <trkpt lat="49.2851" lon="-0.26772">
        <ele>4.94</ele>
        <time>2016-08-07T14:29:28Z</time>
      </trkpt>
      <trkpt lat="49.28513" lon="-0.26777">
        <ele>4.94</ele>
        <time>2016-08-07T14:29:29Z</time>
      </trkpt>
      <trkpt lat="49.28515" lon="-0.26783">
        <ele>4.94</ele>
        <time>2016-08-07T14:29:30Z</time>
      </trkpt>
      <trkpt lat="49.28526" lon="-0.26814">
        <ele>4.94</ele>
        <time>2016-08-07T14:29:35Z</time>
      </trkpt>
      <trkpt lat="49.28548" lon="-0.26878">
        <ele>4.46</ele>
        <time>2016-08-07T14:29:45Z</time>
      </trkpt>
      <trkpt lat="49.28548" lon="-0.26885">
        <ele>4.46</ele>
        <time>2016-08-07T14:29:46Z</time>
      </trkpt>
      <trkpt lat="49.28548" lon="-0.26892">
        <ele>4.46</ele>
        <time>2016-08-07T14:29:47Z</time>
      </trkpt>
      <trkpt lat="49.28547" lon="-0.26899">
        <ele>3.98</ele>
        <time>2016-08-07T14:29:48Z</time>
      </trkpt>
      <trkpt lat="49.28546" lon="-0.26905">
        <ele>3.98</ele>
        <time>2016-08-07T14:29:49Z</time>
      </trkpt>
      <trkpt lat="49.28544" lon="-0.26912">
        <ele>4.46</ele>
        <time>2016-08-07T14:29:50Z</time>
      </trkpt>
      <trkpt lat="49.28542" lon="-0.26918">
        <ele>4.46</ele>
        <time>2016-08-07T14:29:51Z</time>
      </trkpt>
      <trkpt lat="49.28532" lon="-0.26968">
        <ele>3.5</ele>
        <time>2016-08-07T14:29:59Z</time>
      </trkpt>
      <trkpt lat="49.28534" lon="-0.26973">
        <ele>3.02</ele>
        <time>2016-08-07T14:30:00Z</time>
      </trkpt>
      <trkpt lat="49.28536" lon="-0.26978">
        <ele>3.02</ele>
        <time>2016-08-07T14:30:01Z</time>
      </trkpt>
      <trkpt lat="49.28538" lon="-0.26981">
        <ele>3.02</ele>
        <time>2016-08-07T14:30:02Z</time>
      </trkpt>
      <trkpt lat="49.2854" lon="-0.26986">
        <ele>3.98</ele>
        <time>2016-08-07T14:30:12Z</time>
      </trkpt>
      <trkpt lat="49.28542" lon="-0.26993">
        <ele>3.5</ele>
        <time>2016-08-07T14:30:18Z</time>
      </trkpt>
      <trkpt lat="49.28543" lon="-0.27011">
        <ele>3.5</ele>
        <time>2016-08-07T14:30:24Z</time>
      </trkpt>
      <trkpt lat="49.28543" lon="-0.27014">
        <ele>3.5</ele>
        <time>2016-08-07T14:30:25Z</time>
      </trkpt>
      <trkpt lat="49.28543" lon="-0.27016">
        <ele>3.5</ele>
        <time>2016-08-07T14:30:26Z</time>
      </trkpt>
      <trkpt lat="49.28542" lon="-0.27024">
        <ele>3.98</ele>
        <time>2016-08-07T14:30:34Z</time>
      </trkpt>
      <trkpt lat="49.28541" lon="-0.27027">
        <ele>3.98</ele>
        <time>2016-08-07T14:30:35Z</time>
      </trkpt>
      <trkpt lat="49.2854" lon="-0.2703">
        <ele>3.98</ele>
        <time>2016-08-07T14:30:36Z</time>
      </trkpt>
      <trkpt lat="49.28539" lon="-0.27033">
        <ele>3.98</ele>
        <time>2016-08-07T14:30:37Z</time>
      </trkpt>
      <trkpt lat="49.28539" lon="-0.27037">
        <ele>3.5</ele>
        <time>2016-08-07T14:30:38Z</time>
      </trkpt>
      <trkpt lat="49.28539" lon="-0.27041">
        <ele>3.5</ele>
        <time>2016-08-07T14:30:39Z</time>
      </trkpt>
      <trkpt lat="49.2854" lon="-0.27045">
        <ele>3.5</ele>
        <time>2016-08-07T14:30:40Z</time>
      </trkpt>
      <trkpt lat="49.28541" lon="-0.27052">
        <ele>3.02</ele>
        <time>2016-08-07T14:30:50Z</time>
      </trkpt>
      <trkpt lat="49.28544" lon="-0.27063">
        <ele>3.02</ele>
        <time>2016-08-07T14:31:03Z</time>
      </trkpt>
      <trkpt lat="49.28559" lon="-0.27115">
        <ele>3.02</ele>
        <time>2016-08-07T14:31:14Z</time>
      </trkpt>
      <trkpt lat="49.28575" lon="-0.27151">
        <ele>3.02</ele>
        <time>2016-08-07T14:31:22Z</time>
      </trkpt>
      <trkpt lat="49.28578" lon="-0.27152">
        <ele>2.54</ele>
        <time>2016-08-07T14:31:23Z</time>
      </trkpt>
      <trkpt lat="49.2858" lon="-0.27151">
        <ele>2.54</ele>
        <time>2016-08-07T14:31:24Z</time>
      </trkpt>
      <trkpt lat="49.28583" lon="-0.27148">
        <ele>2.54</ele>
        <time>2016-08-07T14:31:25Z</time>
      </trkpt>
      <trkpt lat="49.28585" lon="-0.27146">
        <ele>3.02</ele>
        <time>2016-08-07T14:31:26Z</time>
      </trkpt>
      <trkpt lat="49.28591" lon="-0.27137">
        <ele>3.98</ele>
        <time>2016-08-07T14:31:35Z</time>
      </trkpt>
      <trkpt lat="49.28591" lon="-0.27135">
        <ele>3.98</ele>
        <time>2016-08-07T14:31:36Z</time>
      </trkpt>
      <trkpt lat="49.28591" lon="-0.27134">
        <ele>4.46</ele>
        <time>2016-08-07T14:31:42Z</time>
      </trkpt>
    </trkseg>
  </trk>
</gpx>